Site Date LOGGERID PROGID AIRTEMP_MEAN_150_0_04 AIRTEMP_MEAN_250_0_03 AIRTEMP_MEAN_350_0_02 AIRTEMP_MEAN_450_0_01 AIRTEMP_MEAN_350_0_08 RELHUM_MEAN_150_0_04 RELHUM_MEAN_450_0_01 DEWPT_MEAN_150_0_04 DEWPT_MEAN_450_0_01 SOILTEMP_MEAN_0_10_01 SOILTEMP_MEAN_0_20_02 SOILTEMP_MEAN_0_50_03 SOILTEMP_MEAN_0_100_04 SOILWC_MEAN_0_10_01 SOILWC_MEAN_0_20_02 SOILWC_MEAN_0_50_03 SOILWC_MEAN_0_100_04 WINDSPEED_Avg WIND_DIR PRECIP_INST_455_0_01 PRECIP_TOT_455_0_01 AIRTEMP_150_DIAG AIRTEMP_250_DIAG AIRTEMP_MAX_150_0_04 AIRTEMP_MAX_250_0_03 AIRTEMP_MAX_350_0_02 AIRTEMP_MAX_350_0_08 AIRTEMP_MAX_450_0_01 DEWPT_MAX_150_0_04 DEWPT_MAX_450_0_01 WSPD_PRO_MAX_1000_0_01 AIRTEMP_MIN_150_0_04 AIRTEMP_MIN_250_0_03 AIRTEMP_MIN_350_0_02 AIRTEMP_MIN_350_0_08 AIRTEMP_MIN_450_0_01 DEWPT_MIN_150_0_04 DEWPT_MIN_450_0_01 WSPD_PRO_MEAN_1000_0_01 WDIR_PRO_MEAN_1000_0_01 WDIR_PRO_STDDEV_1000_0_01 WUX_SNC_MEAN_1000_0_02 WUY_SNC_MEAN_1000_0_02 WAIR_SNC_MEAN_1000_0_02 WUX_SNC_STDEV_1000_0_02 WUY_SNC_STDEV_1000_0_02 WAIR_SNC_STDDEV_1000_0_02 WSPD_SNC_MEAN_1000_0_02 WDIR_SNC_MEAN_1000_0_02 WDIR_SNC_STDDEV_1000_0_02 WSPD_SNC_MAX_1000_0_02 BATTERY_V_CHECK PUMPVOLTS_Avg PUMPVOLTS_CHECK SATVP_MEAN_150_0_04 VAP_MEAN_150_0_04 VPD_MEAN_150_0_04 SATVP_MEAN_450_0_01 VAP_MEAN_450_0_01 VPD_MEAN_450_0_01
UPLMET_235 2018-10-01 00:00:00 235 46891.0 8.00 8.320 8.560 8.600 8.190 95.100 90.800 7.268 7.186 9.600 9.200 8.460 8.980 0.109 0.071 0.103 0.133     45.010 0.00 1 1 8.050 8.440 8.670 8.380 8.670 7.321 7.208 0.6240 7.962 8.260 8.500 8.050 8.550 7.239 7.168 0.1320 242.60 0.67                       129.90   10.726 10.204 0.526 11.173 10.147 1.028
UPLMET_235 2018-09-30 23:55:00 235 46891.0 7.99 8.450 8.660 8.650 8.550 96.000 90.700 7.392 7.224 9.610 9.190 8.460 8.980 0.109 0.071 0.103 0.133     45.050 0.00 1 1 8.080 8.500 8.700 8.800 8.690 7.459 7.285 0.6150 7.810 8.320 8.540 8.360 8.540 7.308 7.165 0.2820 223.40 0.33                       130.00   10.720 10.291 0.429 11.211 10.173 1.043
UPLMET_235 2018-09-30 23:50:00 235 46891.0 7.75 8.140 8.420 8.450 8.100 96.300 91.500 7.203 7.157 9.620 9.190 8.460 8.980 0.109 0.071 0.103 0.133     45.040 0.00 1 1 7.783 8.270 8.500 8.500 8.530 7.276 7.245 0.6770 7.708 8.070 8.360 7.922 8.400 7.154 7.112 0.1700 224.50 0.06                       130.00   10.544 10.158 0.390 11.060 10.126 0.940
UPLMET_235 2018-09-30 23:45:00 235 46891.0 7.75 8.220 8.480 8.490 8.190 96.700 91.200 7.273 7.144 9.620 9.190 8.460 8.980 0.109 0.071 0.103 0.133     45.000 0.00 1 1 7.784 8.250 8.510 8.280 8.520 7.305 7.159 0.6240 7.721 8.180 8.450 8.110 8.460 7.229 7.126 0.3250 224.50 0.00                       130.00   10.547 10.207 0.348 11.090 10.117 0.976
UPLMET_235 2018-09-30 23:40:00 235 46891.0 7.64 8.190 8.490 8.510 8.240 97.500 91.100 7.273 7.141 9.630 9.190 8.460 8.980 0.109 0.071 0.103 0.133     45.080 0.00 1 1 7.715 8.240 8.510 8.290 8.520 7.318 7.156 0.3740 7.533 8.090 8.460 8.130 8.470 7.172 7.125 0.1310 224.50 0.00                       130.10   10.468 10.207 0.262 11.105 10.115 0.988
UPLMET_235 2018-09-30 23:35:00 235 46891.0 7.50 8.040 8.410 8.430 8.180 97.500 91.500 7.145 7.128 9.640 9.190 8.460 8.980 0.109 0.071 0.103 0.133     45.030 0.00 1 1 7.533 8.100 8.460 8.250 8.500 7.171 7.151 0.4100 7.483 8.010 8.370 8.130 8.380 7.105 7.106 0.2360 224.60 0.05                       130.10   10.370 10.118 0.259 11.045 10.106 0.939
UPLMET_235 2018-09-30 23:30:00 235 46891.0 7.47 7.966 8.330 8.340 8.060 98.000 91.900 7.177 7.103 9.650 9.190 8.460 8.980 0.109 0.071 0.103 0.133     45.090 0.00 1 1 7.493 8.010 8.360 8.180 8.380 7.221 7.129 0.2760 7.421 7.900 8.280 7.884 8.300 7.134 7.073 0.0590 224.70 0.00                       130.10   10.342 10.140 0.207 10.978 10.089 0.889
UPLMET_235 2018-09-30 23:25:00 235 46891.0 7.25 7.810 8.130 8.150 8.030 98.400 92.800 7.028 7.060 9.650 9.190 8.460 8.980 0.109 0.071 0.103 0.133     45.050 0.00 1 1 7.394 7.981 8.320 8.170 8.280 7.165 7.105 0.5610 7.120 7.581 7.906 7.698 7.966 6.889 6.948 0.1870 224.70 0.00                       130.20   10.193 10.037 0.163 10.837 10.059 0.780
UPLMET_235 2018-09-30 23:20:00 235 46891.0 7.09 7.493 7.818 7.897 7.573 98.500 93.400 6.866 6.910 9.660 9.190 8.460 8.980 0.109 0.071 0.103 0.133     45.080 0.00 1 1 7.147 7.618 7.902 7.763 7.979 6.921 6.975 0.5080 7.021 7.398 7.741 7.352 7.847 6.806 6.824 0.2020 224.70 0.01                       130.20   10.077 9.926 0.151 10.652 9.956 0.703
UPLMET_235 2018-09-30 23:15:00 235 46891.0 6.91 7.320 7.719 7.838 7.447 98.300 93.400 6.670 6.844 9.660 9.180 8.460 8.980 0.109 0.071 0.103 0.133     45.050 0.00 1 1 7.027 7.436 7.836 7.650 7.890 6.811 6.913 0.4540 6.789 7.221 7.619 7.266 7.807 6.510 6.773 0.0930 224.70 0.00                       130.20   9.956 9.793 0.169 10.609 9.911 0.700
UPLMET_235 2018-09-30 23:10:00 235 46891.0 6.79 7.269 7.681 7.805 7.314 98.300 93.000 6.545 6.753 9.670 9.180 8.460 8.980 0.109 0.071 0.103 0.133     45.040 0.00 1 1 6.819 7.370 7.723 7.450 7.857 6.610 6.853 0.4810 6.759 7.209 7.631 7.155 7.764 6.470 6.696 0.1250 224.70 0.00                       130.30   9.877 9.709 0.168 10.585 9.849 0.741
UPLMET_235 2018-09-30 23:05:00 235 46891.0 6.68 7.330 7.655 7.681 7.453 98.500 93.300 6.463 6.677 9.680 9.180 8.460 8.980 0.109 0.071 0.103 0.133     45.050 0.00 1 1 6.829 7.418 7.729 7.530 7.784 6.639 6.720 0.9980 6.518 7.188 7.547 7.337 7.579 6.255 6.625 0.7890 224.70 0.00                       130.30   9.802 9.655 0.147 10.496 9.798 0.703
UPLMET_235 2018-09-30 23:00:00 235 46891.0 6.50 7.128 7.498 7.535 7.244 98.100 93.600 6.233 6.581 9.680 9.180 8.460 8.980 0.109 0.071 0.103 0.133     45.050 0.00 1 1 6.548 7.178 7.541 7.330 7.592 6.298 6.638 0.9620 6.469 7.076 7.463 7.110 7.486 6.178 6.522 0.6950 224.70 0.02                       130.30   9.681 9.502 0.184 10.392 9.733 0.665
UPLMET_235 2018-09-30 22:55:00 235 46891.0 6.44 7.016 7.360 7.394 7.104 98.100 94.100 6.163 6.506 9.690 9.180 8.460 8.980 0.109 0.071 0.103 0.133     45.080 0.00 1 1 6.518 7.122 7.455 7.264 7.493 6.264 6.580 1.0330 6.383 6.947 7.311 6.995 7.338 6.091 6.433 0.8420 224.70 0.36                       130.40   9.639 9.457 0.183 10.292 9.683 0.607
UPLMET_235 2018-09-30 22:50:00 235 46891.0 6.34 6.949 7.299 7.339 7.025 97.500 94.100 5.982 6.453 9.690 9.170 8.460 8.980 0.109 0.071 0.103 0.133     45.040 0.00 1 1 6.393 6.984 7.335 7.073 7.368 6.085 6.487 1.0600 6.304 6.905 7.253 6.954 7.311 5.906 6.411 0.9190 224.10 0.21                       130.40   9.572 9.339 0.239 10.254 9.648 0.605
UPLMET_235 2018-09-30 22:45:00 235 46891.0 6.39 6.931 7.271 7.365 6.967 96.800 93.600 5.929 6.407 9.700 9.170 8.460 8.980 0.109 0.071 0.103 0.133     45.020 0.00 1 1 6.515 6.966 7.299 6.980 7.424 6.030 6.435 0.7390 6.327 6.910 7.253 6.947 7.315 5.900 6.393 0.6250 224.10 0.03                       130.50   9.605 9.305 0.307 10.272 9.617 0.657
UPLMET_235 2018-09-30 22:40:00 235 46891.0 6.64 7.056 7.378 7.466 7.016 97.000 93.300 6.202 6.455 9.700 9.170 8.460 8.980 0.109 0.071 0.103 0.133     45.040 0.00 1 1 6.716 7.160 7.451 7.099 7.506 6.272 6.498 0.8110 6.524 6.971 7.305 6.967 7.413 6.048 6.407 0.6430 224.10 0.01                       130.50   9.774 9.482 0.293 10.343 9.649 0.693
UPLMET_235 2018-09-30 22:35:00 235 46891.0 6.80 7.253 7.528 7.585 7.166 97.000 93.000 6.354 6.530 9.710 9.170 8.460 8.980 0.109 0.071 0.103 0.133     45.040 0.00 1 1 6.865 7.328 7.601 7.231 7.681 6.439 6.598 0.9350 6.709 7.167 7.458 7.102 7.509 6.259 6.481 0.7650 224.10 0.02                       130.50   9.879 9.582 0.296 10.428 9.699 0.730
UPLMET_235 2018-09-30 22:30:00 235 46891.0 6.92 7.405 7.697 7.764 7.327 97.100 92.600 6.498 6.651 9.710 9.160 8.460 8.980 0.109 0.071 0.103 0.133     45.050 0.00 1 1 6.958 7.463 7.776 7.418 7.860 6.539 6.729 1.0070 6.868 7.343 7.608 7.235 7.655 6.450 6.566 0.8690 224.10 0.01                       130.60   9.961 9.678 0.289 10.556 9.780 0.781
UPLMET_235 2018-09-30 22:25:00 235 46891.0 6.99 7.517 7.858 7.949 7.496 97.200 92.200 6.576 6.772 9.720 9.160 8.460 8.980 0.109 0.071 0.103 0.133     45.010 0.00 1 1 7.034 7.570 7.947 7.624 8.050 6.647 6.841 1.0330 6.938 7.470 7.782 7.423 7.856 6.499 6.723 0.8580 224.00 0.09                       130.60   10.010 9.730 0.280 10.690 9.862 0.834
UPLMET_235 2018-09-30 22:20:00 235 46891.0 7.02 7.583 7.990 8.100 7.629 97.000 91.800 6.579 6.848 9.720 9.160 8.460 8.980 0.109 0.071 0.103 0.133     45.050 0.00 1 1 7.097 7.680 8.060 7.714 8.170 6.686 6.871 1.1310 6.951 7.522 7.941 7.583 8.050 6.486 6.827 0.7960 225.80 0.97                       130.70   10.032 9.732 0.301 10.800 9.914 0.886
UPLMET_235 2018-09-30 22:15:00 235 46891.0 7.09 7.591 8.120 8.280 7.704 96.800 91.000 6.629 6.900 9.720 9.160 8.460 8.980 0.109 0.071 0.103 0.133     45.060 0.00 1 1 7.175 7.666 8.220 7.755 8.400 6.722 6.944 0.9090 7.054 7.539 8.070 7.635 8.190 6.555 6.876 0.6840 226.30 0.04                       130.70   10.083 9.766 0.323 10.933 9.949 0.984
UPLMET_235 2018-09-30 22:10:00 235 46891.0 7.23 7.716 8.300 8.440 7.963 97.100 90.400 6.804 6.963 9.730 9.150 8.460 8.980 0.109 0.071 0.103 0.133     45.010 0.00 1 1 7.282 7.773 8.330 8.060 8.470 6.859 6.992 0.7220 7.182 7.605 8.230 7.755 8.390 6.734 6.924 0.4350 226.30 0.02                       130.70   10.179 9.884 0.295 11.053 9.993 1.061
UPLMET_235 2018-09-30 22:05:00 235 46891.0 7.30 7.773 8.280 8.380 7.918 97.300 90.800 6.906 6.964 9.730 9.150 8.460 8.980 0.109 0.071 0.103 0.133     45.010 0.00 1 1 7.321 7.860 8.330 8.050 8.440 6.956 7.008 0.8910 7.265 7.672 8.200 7.719 8.310 6.842 6.927 0.5930 226.20 0.04                       130.80   10.225 9.953 0.276 11.008 9.993 1.013
UPLMET_235 2018-09-30 22:00:00 235 46891.0 7.22 7.843 8.240 8.240 8.070 98.000 91.300 6.931 6.917 9.730 9.150 8.460 8.980 0.109 0.071 0.103 0.133     44.970 0.00 1 1 7.328 7.936 8.310 8.200 8.330 7.029 6.972 1.1050 7.063 7.637 8.080 7.938 8.100 6.778 6.881 0.8000 226.40 0.34                       130.80   10.168 9.971 0.203 10.904 9.961 0.949
UPLMET_235 2018-09-30 21:55:00 235 46891.0 6.98 7.452 7.890 7.930 7.696 98.000 92.800 6.688 6.836 9.730 9.150 8.460 8.980 0.109 0.071 0.103 0.133     45.030 0.00 1 1 7.050 7.618 8.060 7.941 8.080 6.764 6.879 0.8370 6.924 7.332 7.774 7.447 7.803 6.630 6.763 0.6780 228.70 0.62                       130.90   10.001 9.805 0.200 10.676 9.906 0.769
UPLMET_235 2018-09-30 21:50:00 235 46891.0 6.86 7.359 7.735 7.743 7.489 97.900 93.300 6.569 6.729 9.740 9.140 8.460 8.980 0.109 0.071 0.103 0.133     45.040 0.00 1 1 6.928 7.423 7.788 7.577 7.810 6.640 6.774 0.6240 6.782 7.255 7.633 7.294 7.671 6.453 6.662 0.3290 229.00 0.03                       130.90   9.925 9.725 0.208 10.541 9.833 0.706
UPLMET_235 2018-09-30 21:45:00 235 46891.0 6.75 7.309 7.676 7.719 7.352 97.700 92.800 6.417 6.637 9.740 9.140 8.460 8.980 0.109 0.071 0.103 0.133     44.980 0.00 1 1 6.782 7.359 7.707 7.478 7.747 6.446 6.664 0.8370 6.706 7.236 7.624 7.241 7.677 6.348 6.616 0.4650 229.00 0.00                       130.90   9.849 9.624 0.227 10.523 9.771 0.758
UPLMET_235 2018-09-30 21:40:00 235 46891.0 6.67 7.257 7.632 7.658 7.362 97.300 92.900 6.271 6.587 9.740 9.140 8.460 8.980 0.109 0.071 0.103 0.133     45.050 0.00 1 1 6.709 7.349 7.702 7.486 7.710 6.353 6.640 1.0250 6.623 7.164 7.599 7.288 7.627 6.182 6.528 0.8500 228.90 0.07                       131.00   9.791 9.527 0.264 10.480 9.737 0.744
UPLMET_235 2018-09-30 21:35:00 235 46891.0 6.72 7.267 7.599 7.641 7.303 97.500 92.600 6.357 6.520 9.740 9.130 8.460 8.980 0.109 0.071 0.103 0.133     45.050 0.00 1 1 6.732 7.306 7.616 7.333 7.664 6.412 6.542 1.0420 6.682 7.190 7.583 7.250 7.614 6.277 6.484 0.9050 229.20 0.50                       131.00   9.824 9.584 0.246 10.468 9.693 0.775
UPLMET_235 2018-09-30 21:30:00 235 46891.0 6.64 7.235 7.576 7.625 7.308 97.800 92.900 6.320 6.557 9.740 9.130 8.460 8.980 0.109 0.071 0.103 0.133     45.030 0.00 1 1 6.725 7.289 7.602 7.329 7.657 6.416 6.578 1.2210 6.553 7.184 7.526 7.256 7.574 6.194 6.535 1.0200 230.00 0.02                       131.10   9.776 9.560 0.215 10.456 9.717 0.742
UPLMET_235 2018-09-30 21:25:00 235 46891.0 6.54 7.162 7.490 7.544 7.183 97.500 92.900 6.176 6.473 9.740 9.130 8.460 8.980 0.109 0.071 0.103 0.133     45.050 0.00 1 1 6.583 7.184 7.518 7.239 7.561 6.236 6.529 1.3630 6.493 7.118 7.481 7.164 7.524 6.102 6.444 1.1940 230.00 0.11                       131.10   9.708 9.465 0.243 10.398 9.661 0.738
UPLMET_235 2018-09-30 21:20:00 235 46891.0 6.54 7.155 7.496 7.555 7.164 97.500 92.300 6.187 6.400 9.740 9.120 8.460 8.980 0.109 0.071 0.103 0.133     45.000 0.00 1 1 6.569 7.205 7.533 7.223 7.593 6.255 6.471 1.3270 6.516 7.100 7.451 7.096 7.521 6.119 6.363 1.0750 229.80 0.32                       131.20   9.707 9.472 0.243 10.406 9.613 0.801
UPLMET_235 2018-09-30 21:15:00 235 46891.0 6.43 7.115 7.508 7.600 7.189 97.800 92.300 6.110 6.436 9.740 9.120 8.460 8.980 0.109 0.071 0.103 0.133     45.070 0.00 1 1 6.516 7.194 7.534 7.226 7.633 6.216 6.490 1.4340 6.364 7.039 7.466 7.116 7.543 6.030 6.369 1.2300 231.50 0.45                       131.20   9.633 9.422 0.212 10.438 9.637 0.804
UPLMET_235 2018-09-30 21:10:00 235 46891.0 6.31 6.986 7.460 7.554 7.130 97.300 92.200 5.926 6.379 9.740 9.120 8.460 8.980 0.109 0.071 0.103 0.133     45.040 0.00 1 1 6.380 7.041 7.470 7.152 7.593 6.043 6.431 1.3360 6.238 6.861 7.452 7.111 7.530 5.763 6.340 1.2300 231.60 0.00                       131.20   9.556 9.303 0.258 10.405 9.599 0.812
UPLMET_235 2018-09-30 21:05:00 235 46891.0 6.39 7.012 7.550 7.675 7.192 97.100 91.600 5.980 6.401 9.740 9.110 8.460 8.980 0.109 0.071 0.103 0.133     45.030 0.00 1 1 6.512 7.145 7.599 7.295 7.708 6.179 6.433 1.3990 6.254 6.837 7.471 7.053 7.613 5.767 6.369 1.1880 231.60 0.11                       131.30   9.609 9.338 0.279 10.492 9.613 0.881
UPLMET_235 2018-09-30 21:00:00 235 46891.0 6.46 7.132 7.552 7.639 7.261 98.000 92.000 6.178 6.425 9.740 9.110 8.460 8.980 0.109 0.071 0.103 0.133     45.060 0.00 1 1 6.522 7.191 7.589 7.309 7.692 6.230 6.462 1.5860 6.389 7.025 7.479 7.173 7.562 6.119 6.388 1.3750 232.10 0.51                       131.30   9.655 9.466 0.193 10.466 9.629 0.837
UPLMET_235 2018-09-30 20:55:00 235 46891.0 6.27 6.855 7.407 7.531 7.122 97.800 92.400 5.959 6.387 9.740 9.110 8.460 8.980 0.109 0.071 0.103 0.133     45.020 0.00 1 1 6.389 7.015 7.475 7.192 7.572 6.125 6.420 1.4340 6.177 6.707 7.294 6.989 7.483 5.823 6.358 1.2410 232.90 0.63                       131.40   9.526 9.324 0.210 10.389 9.604 0.790
UPLMET_235 2018-09-30 20:50:00 235 46891.0 6.18 6.620 7.241 7.487 6.803 97.400 92.300 5.807 6.329 9.740 9.100 8.460 8.980 0.109 0.071 0.103 0.133     45.010 0.00 1 1 6.223 6.723 7.389 7.016 7.591 5.875 6.413 1.2380 6.154 6.571 7.151 6.674 7.420 5.743 6.221 1.0040 237.70 2.73                       131.40   9.471 9.226 0.246 10.358 9.566 0.798
UPLMET_235 2018-09-30 20:45:00 235 46891.0 6.28 6.796 7.403 7.530 7.025 97.400 92.500 5.902 6.395 9.740 9.100 8.460 8.980 0.109 0.071 0.103 0.133     45.030 0.00 1 1 6.375 6.957 7.464 7.109 7.604 6.041 6.427 1.3270 6.183 6.637 7.336 6.854 7.442 5.769 6.361 1.0860 238.90 0.10                       131.50   9.534 9.287 0.248 10.388 9.609 0.779
UPLMET_235 2018-09-30 20:40:00 235 46891.0 6.34 6.850 7.327 7.479 6.976 97.500 92.600 5.973 6.360 9.730 9.100 8.460 8.980 0.109 0.071 0.103 0.133     45.100 0.00 1 1 6.371 6.898 7.368 7.052 7.505 6.025 6.394 0.9890 6.312 6.781 7.296 6.872 7.449 5.924 6.330 0.8190 239.00 0.03                       131.50   9.574 9.333 0.239 10.352 9.586 0.766
UPLMET_235 2018-09-30 20:35:00 235 46891.0 6.33 6.892 7.367 7.507 6.962 97.200 92.400 5.932 6.362 9.730 9.090 8.460 8.980 0.109 0.071 0.103 0.133     45.050 0.00 1 1 6.397 6.960 7.438 7.064 7.560 6.049 6.389 1.0420 6.271 6.773 7.306 6.834 7.471 5.820 6.331 0.7750 239.00 0.02                       131.60   9.568 9.307 0.268 10.372 9.587 0.788
UPLMET_235 2018-09-30 20:30:00 235 46891.0 6.32 6.913 7.449 7.601 7.133 96.500 92.000 5.806 6.390 9.730 9.090 8.460 8.980 0.109 0.071 0.103 0.133     45.100 0.00 1 1 6.371 6.991 7.461 7.158 7.643 5.956 6.410 1.0780 6.252 6.827 7.429 7.096 7.557 5.665 6.362 0.9070 239.00 0.02                       131.60   9.560 9.226 0.335 10.439 9.606 0.835
UPLMET_235 2018-09-30 20:25:00 235 46891.0 6.50 6.910 7.401 7.684 6.971 95.500 91.500 5.838 6.387 9.720 9.080 8.460 8.980 0.109 0.071 0.103 0.133     45.070 0.00 1 1 6.681 7.207 7.601 7.146 7.791 6.078 6.459 1.3360 6.370 6.800 7.244 6.633 7.633 5.721 6.292 0.9990 239.30 0.51                       131.70   9.681 9.246 0.436 10.498 9.604 0.892
UPLMET_235 2018-09-30 20:20:00 235 46891.0 6.73 7.396 7.796 7.890 7.459 96.500 90.400 6.213 6.426 9.720 9.080 8.460 8.980 0.109 0.071 0.103 0.133     45.020 0.00 1 1 6.770 7.497 7.871 7.589 7.936 6.268 6.476 1.3630 6.667 7.251 7.652 7.196 7.824 6.127 6.340 1.1380 233.70 2.21                       131.70   9.831 9.489 0.344 10.647 9.630 1.022
UPLMET_235 2018-09-30 20:15:00 235 46891.0 6.70 7.343 7.722 7.807 7.434 96.400 91.000 6.168 6.431 9.710 9.080 8.460 8.980 0.109 0.071 0.103 0.133     45.120 0.00 1 1 6.739 7.415 7.812 7.552 7.866 6.234 6.459 1.5410 6.667 7.231 7.602 7.287 7.740 6.119 6.386 1.2470 233.20 1.25                       131.80   9.813 9.460 0.353 10.587 9.633 0.953
UPLMET_235 2018-09-30 20:10:00 235 46891.0 6.70 7.179 7.633 7.819 7.271 96.000 90.600 6.108 6.387 9.710 9.070 8.460 8.980 0.109 0.071 0.103 0.133     45.010 0.00 1 1 6.775 7.259 7.697 7.375 7.889 6.233 6.427 1.1400 6.603 7.098 7.574 7.180 7.743 5.962 6.351 0.7610 236.90 0.02                       131.80   9.812 9.421 0.392 10.595 9.604 0.996
UPLMET_235 2018-09-30 20:05:00 235 46891.0 6.82 7.344 7.753 7.942 7.399 95.600 90.100 6.174 6.433 9.700 9.070 8.460 8.980 0.109 0.071 0.103 0.133     45.070 0.00 1 1 6.907 7.460 7.809 7.468 7.987 6.323 6.476 1.1230 6.719 7.231 7.698 7.319 7.885 5.990 6.386 0.7460 229.40 4.95                       131.90   9.896 9.464 0.435 10.685 9.635 1.058
UPLMET_235 2018-09-30 20:00:00 235 46891.0 6.97 7.492 7.900 8.070 7.488 94.700 89.600 6.192 6.473 9.700 9.070 8.460 8.980 0.109 0.071 0.103 0.133     45.100 0.00 1 1 7.141 7.736 8.070 7.689 8.170 6.424 6.510 0.8640 6.821 7.348 7.790 7.348 7.987 6.046 6.423 0.5890 226.10 0.00                       131.90   9.999 9.476 0.530 10.778 9.661 1.121
UPLMET_235 2018-09-30 19:55:00 235 46891.0 7.13 7.761 8.130 8.230 7.750 94.600 89.100 6.321 6.549 9.690 9.060 8.460 8.980 0.109 0.071 0.103 0.133     45.010 0.00 1 1 7.206 7.794 8.210 7.807 8.320 6.418 6.570 0.9530 7.091 7.741 8.070 7.701 8.180 6.229 6.525 0.7580 225.40 0.14                       132.00   10.104 9.560 0.546 10.896 9.712 1.188
UPLMET_235 2018-09-30 19:50:00 235 46891.0 7.28 7.883 8.240 8.330 7.927 94.500 89.000 6.465 6.630 9.690 9.060 8.460 8.980 0.109 0.071 0.103 0.133     45.070 0.00 1 1 7.309 7.912 8.280 8.000 8.350 6.529 6.667 0.9710 7.230 7.813 8.220 7.826 8.310 6.336 6.564 0.7920 224.30 0.45                       132.10   10.213 9.656 0.562 10.970 9.766 1.207
UPLMET_235 2018-09-30 19:45:00 235 46891.0 7.32 7.936 8.320 8.420 7.965 93.800 88.300 6.394 6.609 9.680 9.060 8.460 8.980 0.109 0.071 0.103 0.133     45.120 0.00 1 1 7.384 8.010 8.400 8.110 8.470 6.449 6.660 1.0420 7.226 7.826 8.210 7.791 8.310 6.315 6.570 0.9020 224.60 0.51                       132.10   10.237 9.609 0.635 11.038 9.752 1.291
UPLMET_235 2018-09-30 19:40:00 235 46891.0 7.50 8.040 8.400 8.490 8.070 93.200 88.100 6.481 6.640 9.670 9.050 8.460 8.980 0.109 0.071 0.103 0.133     45.120 0.00 1 1 7.559 8.120 8.430 8.160 8.510 6.586 6.669 1.1940 7.404 7.955 8.350 7.974 8.460 6.386 6.624 0.8850 224.00 1.09                       132.20   10.365 9.667 0.705 11.090 9.773 1.320
UPLMET_235 2018-09-30 19:35:00 235 46891.0 7.57 8.070 8.380 8.450 8.080 93.100 88.300 6.527 6.634 9.660 9.050 8.460 8.980 0.109 0.071 0.103 0.133     45.100 0.00 1 1 7.617 8.120 8.400 8.140 8.480 6.578 6.660 0.9270 7.529 8.030 8.360 8.020 8.420 6.475 6.618 0.7800 220.80 0.02                       132.20   10.418 9.697 0.719 11.060 9.769 1.294
UPLMET_235 2018-09-30 19:30:00 235 46891.0 7.52 8.070 8.350 8.420 8.060 93.600 88.300 6.561 6.599 9.660 9.040 8.460 8.980 0.109 0.071 0.103 0.133     45.130 0.00 1 1 7.620 8.140 8.380 8.130 8.440 6.620 6.631 1.0780 7.458 8.020 8.320 7.980 8.400 6.461 6.569 0.9040 215.90 3.21                       132.30   10.384 9.720 0.665 11.038 9.745 1.291
UPLMET_235 2018-09-30 19:25:00 235 46891.0 7.51 8.030 8.340 8.420 8.010 93.300 88.200 6.505 6.597 9.650 9.040 8.460 8.980 0.109 0.071 0.103 0.133     45.070 0.00 1 1 7.556 8.080 8.360 8.070 8.460 6.538 6.624 1.0330 7.484 7.996 8.320 7.928 8.410 6.468 6.572 0.8480 213.10 0.06                       132.40   10.376 9.683 0.695 11.038 9.744 1.302
UPLMET_235 2018-09-30 19:20:00 235 46891.0 7.55 8.040 8.340 8.400 8.060 93.000 88.300 6.495 6.590 9.640 9.040 8.460 8.980 0.109 0.071 0.103 0.133     45.080 0.00 1 1 7.579 8.100 8.380 8.140 8.460 6.557 6.617 1.1310 7.533 7.967 8.290 7.898 8.360 6.416 6.560 0.9390 210.90 1.22                       132.40   10.405 9.676 0.728 11.023 9.739 1.290
UPLMET_235 2018-09-30 19:15:00 235 46891.0 7.53 8.080 8.320 8.360 8.060 93.100 88.300 6.491 6.546 9.630 9.030 8.460 8.980 0.109 0.071 0.103 0.133     45.140 0.00 1 1 7.612 8.180 8.400 8.210 8.430 6.561 6.599 1.3450 7.430 7.985 8.280 7.916 8.320 6.401 6.520 1.0700 212.30 1.55                       132.50   10.391 9.673 0.717 10.993 9.710 1.286
UPLMET_235 2018-09-30 19:10:00 235 46891.0 7.34 7.932 8.210 8.270 7.930 93.700 88.700 6.394 6.519 9.620 9.030 8.460 8.980 0.109 0.071 0.103 0.133     45.140 0.00 1 1 7.430 8.020 8.280 8.040 8.330 6.468 6.561 1.4080 7.284 7.865 8.170 7.832 8.220 6.273 6.492 0.9830 219.10 4.83                       132.60   10.255 9.609 0.646 10.926 9.692 1.235
UPLMET_235 2018-09-30 19:05:00 235 46891.0 7.36 7.912 8.230 8.310 7.873 93.100 88.300 6.331 6.486 9.610 9.030 8.460 8.980 0.109 0.071 0.103 0.133     45.110 0.00 1 1 7.435 7.990 8.290 7.975 8.380 6.397 6.526 1.2920 7.293 7.834 8.170 7.772 8.220 6.277 6.450 0.8930 225.30 5.31                       132.60   10.271 9.567 0.709 10.956 9.670 1.282
UPLMET_235 2018-09-30 19:00:00 235 46891.0 7.54 8.040 8.340 8.410 8.020 92.700 88.100 6.438 6.573 9.600 9.020 8.460 8.980 0.109 0.071 0.103 0.133     45.090 0.00 1 1 7.616 8.090 8.370 8.090 8.440 6.565 6.606 1.3810 7.425 7.935 8.290 7.926 8.370 6.246 6.512 1.0480 215.60 1.29                       132.70   10.395 9.638 0.759 11.030 9.728 1.313
UPLMET_235 2018-09-30 18:55:00 235 46891.0 7.56 8.100 8.380 8.470 8.100 93.100 88.000 6.524 6.608 9.590 9.020 8.460 8.980 0.109 0.071 0.103 0.133     45.090 0.00 1 1 7.599 8.140 8.410 8.180 8.490 6.608 6.639 1.2830 7.506 8.040 8.340 8.010 8.440 6.445 6.573 1.0090 216.40 0.19                       132.80   10.407 9.695 0.718 11.075 9.752 1.329
UPLMET_235 2018-09-30 18:50:00 235 46891.0 7.53 8.050 8.380 8.480 8.030 92.900 87.800 6.466 6.576 9.580 9.020 8.460 8.980 0.109 0.071 0.103 0.133     45.100 0.00 1 1 7.617 8.090 8.430 8.110 8.540 6.544 6.602 1.0690 7.492 7.975 8.350 7.935 8.420 6.342 6.551 0.8220 219.10 0.99                       132.80   10.392 9.657 0.738 11.083 9.730 1.352
UPLMET_235 2018-09-30 18:45:00 235 46891.0 7.64 8.150 8.480 8.590 8.150 92.500 87.500 6.513 6.647 9.570 9.010 8.460 8.980 0.109 0.071 0.103 0.133     45.080 0.00 1 1 7.689 8.190 8.500 8.190 8.630 6.558 6.675 1.3360 7.597 8.090 8.440 8.070 8.550 6.453 6.603 0.9640 217.80 2.03                       132.90   10.470 9.688 0.785 11.166 9.778 1.396
UPLMET_235 2018-09-30 18:40:00 235 46891.0 7.68 8.240 8.600 8.690 8.250 92.300 86.700 6.509 6.612 9.560 9.010 8.460 8.980 0.109 0.071 0.103 0.133     45.050 0.00 1 1 7.731 8.350 8.680 8.410 8.750 6.587 6.636 1.2210 7.639 8.150 8.510 8.140 8.630 6.424 6.593 0.9130 221.80 2.77                       133.00   10.494 9.685 0.808 11.242 9.754 1.495
UPLMET_235 2018-09-30 18:35:00 235 46891.0 7.68 8.290 8.600 8.690 8.280 92.500 86.900 6.553 6.639 9.550 9.010 8.460 8.980 0.109 0.071 0.103 0.133     45.080 0.00 1 1 7.725 8.340 8.630 8.370 8.720 6.590 6.683 1.1400 7.661 8.260 8.570 8.220 8.650 6.518 6.599 0.8230 215.50 8.67                       133.10   10.499 9.715 0.787 11.242 9.772 1.473
UPLMET_235 2018-09-30 18:30:00 235 46891.0 7.73 8.290 8.610 8.730 8.280 91.900 86.800 6.506 6.665 9.540 9.000 8.460 8.980 0.109 0.071 0.103 0.133     45.130 0.00 1 1 7.816 8.330 8.660 8.330 8.760 6.562 6.705 1.1230 7.667 8.250 8.580 8.230 8.690 6.439 6.617 0.8850 207.30 1.95                       133.20   10.529 9.683 0.853 11.272 9.790 1.488
UPLMET_235 2018-09-30 18:25:00 235 46891.0 7.80 8.350 8.680 8.750 8.380 92.100 86.600 6.611 6.647 9.520 9.000 8.460 8.980 0.109 0.071 0.103 0.133     45.110 0.00 1 1 7.855 8.380 8.710 8.440 8.780 6.665 6.668 1.1310 7.746 8.290 8.660 8.310 8.720 6.551 6.626 0.8490 219.10 2.41                       133.20   10.582 9.754 0.836 11.287 9.778 1.513
UPLMET_235 2018-09-30 18:20:00 235 46891.0 7.74 8.240 8.610 8.750 8.290 92.200 86.600 6.572 6.652 9.510 9.000 8.460 8.980 0.109 0.071 0.103 0.133     45.100 0.00 1 1 7.794 8.330 8.670 8.400 8.810 6.633 6.677 1.0330 7.702 8.150 8.580 8.180 8.720 6.518 6.628 0.5320 240.60 14.24                       133.30   10.542 9.727 0.822 11.287 9.781 1.513
UPLMET_235 2018-09-30 18:15:00 235 46891.0 7.93 8.300 8.710 8.940 8.290 91.400 85.800 6.619 6.701 9.500 8.990 8.460 8.980 0.109 0.071 0.103 0.133     45.050 0.00 1 1 8.040 8.430 8.820 8.420 9.070 6.719 6.729 0.7930 7.803 8.160 8.610 8.200 8.810 6.515 6.665 0.4600 259.50 6.71                       133.40   10.677 9.759 0.918 11.433 9.814 1.624
UPLMET_235 2018-09-30 18:10:00 235 46891.0 8.13 8.500 8.910 9.130 8.520 90.600 84.800 6.692 6.717 9.490 8.990 8.460 8.980 0.109 0.071 0.103 0.133     45.140 0.00 1 1 8.260 8.560 8.990 8.630 9.200 6.759 6.743 0.5610 8.030 8.430 8.830 8.390 9.070 6.638 6.683 0.3650 263.10 0.03                       133.50   10.822 9.808 1.017 11.581 9.825 1.760
UPLMET_235 2018-09-30 18:05:00 235 46891.0 8.29 8.650 9.040 9.190 8.780 90.400 84.600 6.821 6.739 9.470 8.990 8.460 8.980 0.109 0.071 0.103 0.133     45.060 0.00 1 1 8.310 8.680 9.070 8.880 9.220 6.873 6.836 1.2470 8.260 8.590 9.000 8.580 9.170 6.760 6.688 0.6940 272.30 7.01                       133.60   10.941 9.896 1.050 11.628 9.840 1.791
UPLMET_235 2018-09-30 18:00:00 235 46891.0 8.32 8.720 9.110 9.290 8.780 90.600 84.500 6.880 6.827 9.460 8.980 8.460 8.980 0.109 0.071 0.103 0.133     45.080 0.00 1 1 8.360 8.790 9.160 8.900 9.340 6.935 6.906 1.5770 8.260 8.620 9.010 8.630 9.200 6.842 6.761 0.6880 275.80 4.39                       133.70   10.963 9.936 1.031 11.707 9.900 1.815
UPLMET_235 2018-09-30 17:55:00 235 46891.0 8.44 8.870 9.190 9.370 8.930 89.700 84.100 6.850 6.824 9.450 8.980 8.470 8.980 0.109 0.071 0.103 0.133     45.200 0.02 1 1 8.510 9.040 9.310 9.260 9.410 6.940 6.947 1.9690 8.360 8.750 9.150 8.750 9.350 6.773 6.728 0.6430 264.30 29.63                       133.90   11.053 9.915 1.138 11.770 9.898 1.871
UPLMET_235 2018-09-30 17:50:00 235 46891.0 8.45 8.890 9.270 9.440 9.010 90.200 84.000 6.952 6.888 9.440 8.980 8.470 8.980 0.109 0.071 0.103 0.133     45.060 0.00 1 1 8.480 8.960 9.340 9.150 9.490 7.043 6.984 0.9980 8.420 8.780 9.190 8.770 9.370 6.831 6.784 0.4940 218.40 22.22                       134.00   11.060 9.985 1.084 11.826 9.941 1.892
UPLMET_235 2018-09-30 17:45:00 235 46891.0 8.44 8.820 9.190 9.470 8.920 90.100 84.100 6.911 6.937 9.420 8.980 8.470 8.980 0.109 0.071 0.103 0.133     45.000 0.00 1 1 8.490 8.880 9.280 9.460 9.610 6.970 7.006 0.8640 8.400 8.750 9.100 8.710 9.390 6.802 6.805 0.3790 258.10 5.97                       134.10   11.053 9.957 1.094 11.849 9.975 1.884
UPLMET_235 2018-09-30 17:40:00 235 46891.0 8.61 9.060 9.500 9.710 9.160 89.100 82.800 6.924 6.947 9.410 8.970 8.470 8.980 0.109 0.071 0.103 0.133     45.070 0.00 1 1 8.760 9.200 9.610 9.420 9.760 7.004 6.985 0.9530 8.470 8.880 9.300 8.810 9.630 6.864 6.911 0.2780 248.00 7.86                       134.20   11.181 9.966 1.219 12.042 9.982 2.071
UPLMET_235 2018-09-30 17:35:00 235 46891.0 8.86 9.120 9.420 9.600 9.080 88.600 83.600 7.085 6.974 9.400 8.970 8.470 8.980 0.109 0.071 0.103 0.133     45.130 0.00 1 1 9.010 9.230 9.520 9.440 9.690 7.198 7.063 0.8640 8.770 9.020 9.340 8.820 9.540 7.031 6.923 0.2240 245.30 6.01                       134.40   11.372 10.077 1.296 11.953 10.000 1.960
UPLMET_235 2018-09-30 17:30:00 235 46891.0 9.24 9.420 9.600 9.770 9.110 87.200 83.000 7.234 7.031 9.380 8.970 8.470 8.980 0.109 0.071 0.103 0.133     45.110 0.00 1 1 9.460 9.650 9.800 9.320 9.930 7.334 7.085 0.5970 9.020 9.240 9.480 9.020 9.640 7.122 6.992 0.2340 260.70 0.00                       134.50   11.667 10.180 1.493 12.091 10.039 2.055
UPLMET_235 2018-09-30 17:25:00 235 46891.0 9.70 9.850 9.960 10.050 9.430 84.800 81.600 7.264 7.044 9.370 8.970 8.470 8.980 0.109 0.071 0.103 0.133     45.070 0.00 1 1 9.910 10.040 10.140 9.510 10.200 7.494 7.410 1.2210 9.460 9.670 9.820 9.350 9.930 7.158 6.828 0.4870 255.80 5.75                       134.70   12.034 10.201 1.829 12.320 10.048 2.267
UPLMET_235 2018-09-30 17:20:00 235 46891.0 10.00 10.170 10.270 10.300 9.920 83.600 79.830 7.353 6.978 9.350 8.960 8.470 8.980 0.109 0.071 0.103 0.133     45.110 0.00 1 1 10.090 10.260 10.330 10.070 10.350 7.530 7.467 0.2320 9.910 10.060 10.160 9.560 10.210 7.074 6.764 0.0360 243.50 0.00                       134.90   12.279 10.263 2.014 12.528 10.003 2.527
UPLMET_235 2018-09-30 17:15:00 235 46891.0 9.94 10.170 10.260 10.250 10.140 82.600 79.330 7.111 6.842 9.340 8.960 8.470 8.980 0.109 0.071 0.103 0.133     45.020 0.00 1 1 10.060 10.330 10.380 10.580 10.360 7.600 7.279 1.1670 9.840 10.010 10.120 9.840 10.130 6.541 6.504 0.3370 216.50 31.64                       135.00   12.229 10.095 2.128 12.486 9.910 2.581
UPLMET_235 2018-09-30 17:10:00 235 46891.0 9.90 10.040 10.160 10.210 9.770 85.900 83.500 7.658 7.537 9.330 8.960 8.470 8.980 0.109 0.071 0.103 0.133     45.070 0.00 1 1 9.990 10.080 10.210 9.880 10.270 7.941 7.872 0.5880 9.860 10.020 10.130 9.600 10.140 7.365 7.068 0.1350 141.10 31.98                       135.20   12.197 10.480 1.720 12.453 10.393 2.055
UPLMET_235 2018-09-30 17:05:00 235 46891.0 10.16 10.210 10.330 10.440 9.820 85.700 83.400 7.882 7.747 9.310 8.960 8.470 8.980 0.109 0.071 0.103 0.133     44.970 0.00 1 1 10.340 10.370 10.470 9.960 10.620 7.987 7.887 0.8110 10.000 10.090 10.220 9.730 10.300 7.797 7.545 0.2380 175.60 27.91                       135.30   12.411 10.641 1.775 12.645 10.544 2.099
UPLMET_235 2018-09-30 17:00:00 235 46891.0 10.50 10.540 10.640 10.700 10.140 84.100 82.200 7.943 7.803 9.300 8.960 8.470 8.980 0.109 0.071 0.103 0.133     45.160 0.00 1 1 10.700 10.710 10.800 10.280 10.760 8.010 7.905 0.2850 10.350 10.390 10.490 10.010 10.620 7.870 7.723 0.0230 227.40 0.00                       135.50   12.696 10.685 2.019 12.867 10.584 2.290
UPLMET_235 2018-09-30 16:55:00 235 46891.0 10.90 10.900 10.950 10.900 10.450 81.700 81.000 7.900 7.777 9.290 8.950 8.470 8.980 0.109 0.071 0.103 0.133     45.060 0.00 1 1 11.100 11.090 11.080 10.590 11.020 7.969 7.826 1.0600 10.690 10.730 10.810 10.290 10.760 7.813 7.723 0.3410 236.40 38.16                       135.90   13.039 10.654 2.386 13.039 10.565 2.477
UPLMET_235 2018-09-30 16:50:00 235 46891.0 11.24 11.230 11.190 11.110 10.660 80.500 80.300 8.020 7.864 9.270 8.950 8.470 8.980 0.109 0.071 0.103 0.133     44.970 0.00 1 1 11.310 11.380 11.300 10.780 11.210 8.210 8.040 0.7390 11.120 11.100 11.090 10.560 11.010 7.853 7.705 0.1980 52.24 7.73                       136.40   13.337 10.742 2.601 13.222 10.628 2.605
UPLMET_235 2018-09-30 16:45:00 235 46891.0 11.37 11.420 11.340 11.230 10.800 79.240 79.540 7.916 7.831 9.260 8.950 8.470 8.980 0.109 0.071 0.103 0.133     45.060 0.00 1 1 11.430 11.440 11.400 10.850 11.270 8.060 7.951 0.8730 11.290 11.380 11.300 10.770 11.180 7.819 7.726 0.4770 302.20 1.86                       137.10   13.452 10.666 2.793 13.328 10.604 2.727
UPLMET_235 2018-09-30 16:40:00 235 46891.0 11.56 11.520 11.480 11.300 10.910 78.700 79.230 7.996 7.848 9.250 8.950 8.470 8.980 0.109 0.071 0.103 0.133     45.000 0.00 1 1 11.660 11.600 11.560 11.010 11.340 8.210 8.060 0.9530 11.420 11.440 11.400 10.830 11.260 7.866 7.749 0.4290 344.70 55.01                       137.80   13.623 10.724 2.902 13.390 10.616 2.781
UPLMET_235 2018-09-30 16:35:00 235 46891.0 11.69 11.630 11.570 11.360 10.970 77.900 78.610 7.970 7.787 9.230 8.950 8.470 8.980 0.109 0.071 0.103 0.133     45.020 0.00 1 1 11.740 11.650 11.590 11.020 11.390 8.120 8.020 1.4080 11.660 11.600 11.550 10.930 11.330 7.817 7.662 0.9140 67.71 27.93                       138.60   13.740 10.705 3.037 13.444 10.572 2.876
UPLMET_235 2018-09-30 16:30:00 235 46891.0 11.77 11.700 11.590 11.420 11.070 79.100 79.080 8.280 7.937 9.220 8.940 8.470 8.980 0.109 0.071 0.103 0.133     45.150 0.00 1 1 11.830 11.770 11.650 11.140 11.490 8.580 8.260 2.0310 11.740 11.660 11.550 10.940 11.380 7.880 7.656 1.1190 54.64 6.64                       138.30   13.813 10.933 2.887 13.497 10.681 2.824
UPLMET_235 2018-09-30 16:25:00 235 46891.0 11.86 11.860 11.780 11.600 11.230 78.700 78.550 8.290 8.010 9.210 8.940 8.470 8.980 0.109 0.071 0.103 0.133     45.160 0.00 1 1 11.890 11.890 11.830 11.320 11.670 8.510 8.180 2.2810 11.840 11.780 11.670 11.090 11.520 8.060 7.836 0.8540 89.60 50.06                       138.20   13.896 10.941 2.960 13.659 10.734 2.930
UPLMET_235 2018-09-30 16:20:00 235 46891.0 12.01 11.970 11.910 11.740 11.290 76.690 77.300 8.050 7.912 9.190 8.940 8.470 8.980 0.109 0.071 0.103 0.133     45.050 0.00 1 1 12.150 12.090 11.980 11.390 11.820 8.340 8.130 1.3540 11.860 11.870 11.820 11.200 11.670 7.852 7.749 0.6830 329.20 39.05                       138.80   14.034 10.764 3.271 13.786 10.663 3.129
UPLMET_235 2018-09-30 16:15:00 235 46891.0 12.24 12.230 12.160 11.930 11.330 74.880 75.700 7.922 7.782 9.180 8.940 8.470 8.980 0.109 0.071 0.103 0.133     44.970 0.00 1 1 12.310 12.320 12.290 11.450 12.030 8.110 7.927 1.3630 12.160 12.120 12.000 11.240 11.830 7.814 7.667 0.6400 39.83 22.55                       139.90   14.248 10.670 3.579 13.960 10.569 3.392
UPLMET_235 2018-09-30 16:10:00 235 46891.0 12.22 12.260 12.230 12.000 11.610 75.140 74.770 7.958 7.671 9.170 8.940 8.470 8.980 0.109 0.071 0.103 0.133     45.060 0.00 1 1 12.310 12.340 12.290 11.730 12.050 8.490 8.110 1.0250 12.120 12.170 12.110 11.480 11.880 7.310 6.976 0.2690 24.15 16.54                       141.40   14.229 10.696 3.537 14.025 10.489 3.538
UPLMET_235 2018-09-30 16:05:00 235 46891.0 12.11 12.100 12.040 11.850 11.540 70.260 70.170 6.867 6.602 9.150 8.940 8.470 8.980 0.109 0.071 0.103 0.133     45.180 0.01 1 1 12.150 12.160 12.090 11.670 11.880 7.385 7.191 1.6750 12.060 12.060 12.010 11.440 11.830 6.483 6.167 0.7460 100.90 27.18                       141.20   14.127 9.927 4.201 13.886 9.747 4.142
UPLMET_235 2018-09-30 16:00:00 235 46891.0 12.18 12.130 12.080 11.910 11.520 74.220 73.530 7.731 7.341 9.140 8.940 8.470 8.980 0.109 0.071 0.103 0.133     45.030 0.00 1 1 12.210 12.200 12.140 11.700 11.960 8.140 7.934 1.1400 12.140 12.080 12.030 11.370 11.850 6.881 6.787 0.5060 75.42 18.40                       140.40   14.192 10.532 3.659 13.941 10.255 3.690
UPLMET_235 2018-09-30 15:55:00 235 46891.0 12.19 12.150 12.120 11.950 11.580 71.980 71.830 7.292 7.036 9.130 8.930 8.470 8.980 0.109 0.071 0.103 0.133     44.970 0.00 1 1 12.270 12.290 12.290 11.770 12.050 8.020 7.568 2.4050 12.120 12.080 12.030 11.490 11.870 6.699 6.574 0.9180 51.43 13.48                       141.00   14.201 10.221 3.979 13.978 10.043 3.938
UPLMET_235 2018-09-30 15:50:00 235 46891.0 12.27 12.260 12.250 12.030 11.650 69.010 69.510 6.759 6.637 9.120 8.930 8.470 8.980 0.109 0.071 0.103 0.133     45.040 0.00 1 1 12.380 12.380 12.310 11.750 12.070 7.412 7.182 1.7550 12.200 12.200 12.210 11.600 11.990 6.501 6.421 0.7480 19.04 16.54                       141.60   14.276 9.853 4.424 14.052 9.771 4.285
UPLMET_235 2018-09-30 15:45:00 235 46891.0 12.38 12.390 12.320 12.060 11.800 69.260 69.580 6.914 6.675 9.100 8.930 8.470 8.980 0.109 0.071 0.103 0.133     44.960 0.00 1 1 12.410 12.430 12.350 11.910 12.090 7.352 7.325 1.4520 12.320 12.340 12.260 11.710 12.010 6.644 6.420 0.6960 134.70 29.49                       142.70   14.380 9.959 4.420 14.080 9.797 4.283
UPLMET_235 2018-09-30 15:40:00 235 46891.0 12.33 12.290 12.210 12.010 11.670 71.060 71.050 7.244 6.928 9.090 8.930 8.470 8.980 0.109 0.071 0.103 0.133     45.000 0.00 1 1 12.440 12.420 12.380 11.770 12.160 8.000 7.639 2.6910 12.260 12.210 12.140 11.620 11.940 6.516 6.463 1.3930 118.20 31.22                       142.60   14.333 10.187 4.148 14.034 9.969 4.063
UPLMET_235 2018-09-30 15:35:00 235 46891.0 12.61 12.570 12.520 12.310 11.700 71.290 72.080 7.561 7.435 9.080 8.930 8.470 8.980 0.109 0.071 0.103 0.133     45.160 0.00 1 1 12.800 12.770 12.730 11.810 12.460 8.010 7.900 1.6660 12.460 12.440 12.410 11.620 12.180 7.300 7.220 0.9570 12.14 55.23                       141.50   14.599 10.410 4.191 14.314 10.321 3.996
UPLMET_235 2018-09-30 15:30:00 235 46891.0 12.78 12.780 12.810 12.520 12.060 69.830 69.790 7.418 7.158 9.070 8.930 8.470 8.980 0.109 0.071 0.103 0.133     45.010 0.00 1 1 12.810 12.850 12.850 12.150 12.550 7.833 7.456 1.6660 12.740 12.710 12.750 11.830 12.470 6.943 6.842 0.6910 57.10 50.71                       142.80   14.762 10.309 4.454 14.513 10.127 4.384
UPLMET_235 2018-09-30 15:25:00 235 46891.0 12.74 12.670 12.670 12.430 12.060 66.220 66.690 6.606 6.413 9.060 8.930 8.470 8.980 0.109 0.071 0.103 0.133     45.090 0.00 1 1 12.860 12.720 12.780 12.100 12.490 7.050 6.921 2.5210 12.650 12.610 12.610 12.010 12.350 6.264 6.083 0.9080 159.10 41.28                       146.00   14.724 9.750 4.974 14.427 9.621 4.806
UPLMET_235 2018-09-30 15:20:00 235 46891.0 13.28 13.070 13.140 12.800 12.250 64.080 64.830 6.646 6.358 9.050 8.930 8.470 8.980 0.109 0.071 0.103 0.133     45.100 0.00 1 1 13.480 13.270 13.370 12.470 12.920 7.107 6.735 3.1090 12.890 12.680 12.690 12.000 12.480 6.064 5.970 1.4510 103.30 61.46                       144.90   15.253 9.777 5.479 14.782 9.585 5.199
UPLMET_235 2018-09-30 15:15:00 235 46891.0 13.41 13.310 13.470 13.040 12.540 64.910 65.390 6.956 6.712 9.040 8.930 8.470 8.980 0.109 0.071 0.103 0.133     45.130 0.00 1 1 13.580 13.450 13.580 12.710 13.130 7.535 7.036 2.4500 13.160 13.180 13.340 12.320 12.910 6.473 6.276 1.3710 108.30 46.08                       146.20   15.383 9.988 5.398 15.016 9.822 5.197
UPLMET_235 2018-09-30 15:10:00 235 46891.0 13.01 13.050 13.150 12.790 12.340 64.810 64.890 6.551 6.358 9.020 8.930 8.470 8.980 0.109 0.071 0.103 0.133     44.970 0.00 1 1 13.160 13.190 13.330 12.470 12.920 7.013 6.697 1.7820 12.800 12.840 12.960 12.160 12.650 6.249 6.135 0.6120 129.80 62.89                       144.60   14.986 9.713 5.274 14.772 9.585 5.186
UPLMET_235 2018-09-30 15:05:00 235 46891.0 12.84 12.910 13.030 12.660 12.240 65.300 65.560 6.504 6.384 9.010 8.930 8.470 8.980 0.109 0.071 0.103 0.133     45.090 0.00 1 1 12.930 13.040 13.230 12.390 12.770 6.987 6.749 2.2900 12.680 12.730 12.760 12.070 12.470 6.223 6.153 0.8580 223.20 67.12                       145.40   14.820 9.682 5.143 14.647 9.602 5.044
UPLMET_235 2018-09-30 15:00:00 235 46891.0 12.69 12.710 12.690 12.370 12.090 65.610 65.950 6.422 6.196 9.000 8.930 8.470 8.980 0.109 0.071 0.103 0.133     45.080 0.00 1 1 12.750 12.820 12.780 12.240 12.440 6.835 6.420 3.5280 12.630 12.620 12.610 12.010 12.310 6.107 5.746 1.2430 181.40 92.60                       146.10   14.675 9.627 5.047 14.370 9.478 4.893
UPLMET_235 2018-09-30 14:55:00 235 46891.0 12.59 12.540 12.530 12.280 11.910 65.650 66.190 6.338 6.166 8.990 8.930 8.470 8.980 0.109 0.071 0.103 0.133     45.080 0.00 1 1 12.700 12.730 12.730 12.180 12.380 6.677 6.515 3.0110 12.480 12.410 12.430 11.770 12.220 6.081 5.970 1.5790 105.20 45.10                       146.60   14.579 9.572 5.008 14.286 9.459 4.830
UPLMET_235 2018-09-30 14:50:00 235 46891.0 12.61 12.550 12.500 12.320 11.800 65.870 66.430 6.409 6.254 8.980 8.930 8.470 8.980 0.109 0.071 0.103 0.133     45.130 0.00 1 1 12.980 12.910 12.770 11.980 12.560 7.026 6.723 2.1380 12.470 12.460 12.410 11.700 12.210 6.155 6.110 0.6850 304.20 73.11                       143.30   14.599 9.619 4.983 14.323 9.516 4.808
UPLMET_235 2018-09-30 14:45:00 235 46891.0 13.16 13.170 13.050 12.710 12.270 66.730 67.120 7.114 6.772 8.980 8.930 8.470 8.980 0.110 0.071 0.103 0.133     45.040 0.00 1 1 13.240 13.280 13.230 12.350 12.830 8.320 7.540 3.1270 13.020 13.020 12.800 12.060 12.580 6.112 6.064 1.2960 52.28 85.30                       144.20   15.134 10.097 5.035 14.695 9.862 4.832
UPLMET_235 2018-09-30 14:40:00 235 46891.0 13.18 13.150 13.070 12.680 12.330 66.110 67.170 7.004 6.753 8.970 8.930 8.470 8.990 0.110 0.071 0.103 0.133     45.170 0.02 1 1 13.230 13.300 13.220 12.550 12.790 7.447 7.380 1.6660 13.040 12.970 12.940 12.160 12.570 6.521 6.356 0.8050 21.25 26.53                       145.90   15.154 10.021 5.136 14.666 9.849 4.815
UPLMET_235 2018-09-30 14:35:00 235 46891.0 12.69 12.630 12.580 12.300 11.990 68.410 68.880 7.034 6.758 8.960 8.930 8.470 8.990 0.110 0.071 0.103 0.133     44.930 0.00 1 1 13.000 12.880 12.850 12.290 12.530 7.561 7.240 3.4300 12.600 12.460 12.460 11.820 12.210 6.527 6.485 1.8010 102.40 88.60                       146.10   14.675 10.041 4.636 14.304 9.853 4.452
UPLMET_235 2018-09-30 14:30:00 235 46891.0 12.84 12.810 12.670 12.380 11.910 67.080 67.500 6.889 6.541 8.950 8.930 8.470 8.990 0.110 0.071 0.103 0.133     44.980 0.00 1 1 13.120 13.100 12.940 12.110 12.600 7.254 6.869 2.4590 12.630 12.620 12.480 11.750 12.230 6.344 6.101 1.1800 129.80 53.53                       143.40   14.820 9.942 4.879 14.380 9.707 4.673
UPLMET_235 2018-09-30 14:25:00 235 46891.0 13.22 13.230 13.210 12.860 12.280 67.470 68.290 7.336 7.174 8.940 8.930 8.470 8.990 0.110 0.071 0.103 0.133     45.030 0.00 1 1 13.330 13.500 13.480 12.570 12.990 8.100 7.603 2.5750 13.130 13.030 13.010 12.030 12.640 6.812 6.694 1.1760 9.78 62.84                       145.50   15.193 10.251 4.942 14.840 10.138 4.706
UPLMET_235 2018-09-30 14:20:00 235 46891.0 12.90 12.850 12.760 12.490 12.080 68.600 69.100 7.272 6.993 8.930 8.930 8.470 8.990 0.110 0.071 0.103 0.133     44.990 0.00 1 1 13.210 13.170 13.120 12.500 12.830 7.939 7.476 2.3790 12.680 12.550 12.480 11.590 12.290 6.753 6.564 1.1810 18.48 27.79                       146.80   14.879 10.207 4.672 14.484 10.013 4.476
UPLMET_235 2018-09-30 14:15:00 235 46891.0 13.05 12.970 12.890 12.570 11.840 66.000 67.120 6.854 6.640 8.920 8.930 8.470 8.990 0.110 0.071 0.103 0.133     45.120 0.00 1 1 13.420 13.380 13.280 12.150 12.840 7.227 6.820 2.3250 12.740 12.640 12.580 11.610 12.320 6.560 6.454 0.9720 250.70 83.40                       145.60   15.025 9.918 5.109 14.560 9.773 4.787
UPLMET_235 2018-09-30 14:10:00 235 46891.0 13.83 13.880 13.880 13.270 12.530 63.690 64.760 7.072 6.783 8.910 8.930 8.470 8.990 0.110 0.071 0.103 0.133     45.100 0.00 1 1 14.070 14.270 14.290 12.940 13.540 7.708 7.664 3.5280 13.490 13.430 13.340 12.160 12.860 6.450 6.114 1.2140 191.20 64.66                       145.00   15.809 10.068 5.740 15.243 9.870 5.372
UPLMET_235 2018-09-30 14:05:00 235 46891.0 13.26 13.430 13.290 12.760 12.390 67.410 67.920 7.351 6.994 8.910 8.930 8.470 8.990 0.110 0.071 0.103 0.133     45.030 0.00 1 1 13.730 13.850 13.850 12.920 13.260 8.350 7.733 2.1200 12.640 12.650 12.550 11.980 12.190 6.686 6.629 0.8660 160.10 88.10                       145.40   15.233 10.262 4.964 14.743 10.014 4.730
UPLMET_235 2018-09-30 14:00:00 235 46891.0 12.24 12.180 12.080 11.840 11.480 70.750 71.210 7.095 6.806 8.900 8.930 8.470 8.990 0.110 0.071 0.103 0.133     45.050 0.00 1 1 12.600 12.560 12.480 11.880 12.130 7.646 7.366 4.4810 12.080 11.990 11.910 11.290 11.690 6.736 6.538 1.6040 139.60 57.93                       146.10   14.248 10.084 4.168 13.877 9.885 3.995
UPLMET_235 2018-09-30 13:55:00 235 46891.0 12.91 12.810 12.700 12.440 11.530 71.350 72.300 7.857 7.595 8.890 8.930 8.470 8.990 0.110 0.071 0.103 0.133     45.000 0.00 1 1 13.370 13.540 13.470 12.070 12.880 8.920 8.530 3.3680 12.360 12.210 12.140 11.290 11.980 6.685 6.581 1.2610 76.95 59.48                       143.50   14.889 10.623 4.266 14.437 10.435 3.999
UPLMET_235 2018-09-30 13:50:00 235 46891.0 13.39 13.640 13.560 12.890 12.540 73.650 74.650 8.790 8.510 8.890 8.930 8.470 8.990 0.110 0.071 0.103 0.133     45.110 0.00 1 1 13.530 13.870 13.760 13.030 13.060 9.300 9.050 1.3190 13.030 13.280 13.200 12.140 12.530 8.290 8.050 0.5660 242.40 94.20                       144.70   15.363 11.318 4.048 14.869 11.105 3.769
UPLMET_235 2018-09-30 13:45:00 235 46891.0 12.60 12.740 12.700 12.210 11.840 78.220 78.270 8.910 8.550 8.880 8.930 8.470 8.990 0.110 0.071 0.103 0.133     45.100 0.00 1 1 12.980 13.160 13.100 12.490 12.460 9.600 9.090 2.5390 12.350 12.420 12.410 11.440 12.050 8.030 8.050 0.9900 293.20 78.15                       147.50   14.589 11.410 3.177 14.220 11.135 3.090
UPLMET_235 2018-09-30 13:40:00 235 46891.0 12.29 12.220 12.100 11.800 11.220 78.800 79.790 8.720 8.430 8.870 8.930 8.470 8.990 0.110 0.071 0.103 0.133     45.060 0.00 1 1 12.370 12.390 12.390 11.470 12.030 9.160 8.880 2.3070 12.190 12.030 11.870 10.800 11.670 8.270 8.110 0.8730 2.10 34.98                       147.30   14.295 11.264 3.031 13.841 11.045 2.797
UPLMET_235 2018-09-30 13:35:00 235 46891.0 12.30 12.270 12.080 11.800 11.290 77.350 78.450 8.470 8.180 8.870 8.930 8.470 8.990 0.110 0.071 0.103 0.133     44.970 0.00 1 1 12.380 12.390 12.220 11.420 11.900 8.900 8.640 2.5480 12.260 12.120 11.930 11.080 11.750 8.200 7.854 0.8330 78.71 68.63                       147.10   14.304 11.075 3.240 13.841 10.859 2.983
UPLMET_235 2018-09-30 13:30:00 235 46891.0 12.53 12.630 12.430 12.080 11.650 76.160 76.440 8.460 8.080 8.860 8.930 8.470 8.990 0.110 0.071 0.103 0.133     45.050 0.00 1 1 12.600 12.800 12.580 11.970 12.180 8.900 8.420 2.3700 12.380 12.220 12.090 11.080 11.910 8.030 7.748 1.2860 31.49 48.35                       147.00   14.522 11.068 3.462 14.099 10.786 3.322
UPLMET_235 2018-09-30 13:25:00 235 46891.0 12.20 12.140 11.950 11.670 11.280 76.230 76.740 8.150 7.730 8.850 8.930 8.470 8.990 0.110 0.071 0.103 0.133     45.000 0.00 1 1 12.420 12.510 12.340 11.990 11.940 9.190 8.730 3.5550 12.010 11.850 11.650 10.820 11.490 7.253 6.846 1.4860 40.49 43.34                       147.30   14.211 10.837 3.378 13.722 10.531 3.192
UPLMET_235 2018-09-30 13:20:00 235 46891.0 12.25 12.130 11.910 11.670 11.190 75.240 75.850 8.000 7.564 8.850 8.930 8.470 8.990 0.110 0.071 0.103 0.133     45.040 0.00 1 1 12.450 12.390 12.200 11.460 11.870 8.570 7.848 1.8350 12.110 12.000 11.730 10.980 11.560 7.491 6.836 0.9320 66.84 35.77                       147.50   14.257 10.727 3.530 13.722 10.413 3.314
UPLMET_235 2018-09-30 13:15:00 235 46891.0 12.05 12.120 11.880 11.530 11.270 76.810 76.570 8.110 7.557 8.840 8.930 8.470 8.990 0.110 0.071 0.103 0.133     45.110 0.00 1 1 12.210 12.350 12.110 11.610 11.690 8.850 8.280 2.3700 11.840 11.980 11.740 11.030 11.340 7.497 6.813 1.1720 56.63 47.97                       147.50   14.071 10.808 3.263 13.596 10.408 3.185
UPLMET_235 2018-09-30 13:10:00 235 46891.0 11.66 11.600 11.440 11.200 10.780 77.610 77.440 7.891 7.405 8.840 8.930 8.470 8.990 0.110 0.071 0.103 0.133     45.040 0.00 1 1 11.870 11.990 11.790 11.390 11.320 8.760 8.100 2.7530 11.540 11.400 11.240 10.410 11.090 7.216 6.909 1.8700 43.33 14.10                       147.50   13.713 10.648 3.070 13.302 10.300 3.001
UPLMET_235 2018-09-30 13:05:00 235 46891.0 11.83 11.750 11.580 11.240 10.820 72.380 73.300 7.032 6.651 8.830 8.940 8.470 8.990 0.110 0.071 0.103 0.133     45.090 0.00 1 1 11.900 11.860 11.700 11.000 11.320 7.353 6.963 1.7190 11.770 11.650 11.470 10.660 11.180 6.608 6.354 0.9240 130.20 37.92                       147.10   13.868 10.040 3.830 13.337 9.780 3.561
UPLMET_235 2018-09-30 13:00:00 235 46891.0 11.80 11.890 11.700 11.290 10.970 74.370 74.680 7.395 6.963 8.830 8.940 8.470 8.990 0.110 0.071 0.103 0.133     45.080 0.00 1 1 11.890 11.980 11.790 11.130 11.360 8.020 7.606 1.6130 11.640 11.780 11.570 10.730 11.150 6.658 6.339 0.6770 152.60 57.20                       146.90   13.841 10.293 3.547 13.381 9.993 3.388
UPLMET_235 2018-09-30 12:55:00 235 46891.0 11.47 11.570 11.380 11.010 10.710 76.830 76.640 7.554 7.070 8.820 8.940 8.470 8.990 0.110 0.071 0.103 0.133     45.150 0.13 1 1 11.630 11.750 11.550 10.920 11.140 8.210 7.658 1.3450 11.240 11.250 11.110 10.490 10.780 7.126 6.701 0.8150 88.60 35.98                       147.30   13.542 10.405 3.138 13.135 10.066 3.068
UPLMET_235 2018-09-30 12:50:00 235 46891.0 11.08 11.180 11.010 10.700 10.380 76.800 76.570 7.171 6.760 8.820 8.940 8.470 8.990 0.110 0.071 0.103 0.133     45.200 0.00 1 1 11.230 11.300 11.120 10.470 10.770 7.602 7.282 2.7530 10.820 10.950 10.810 10.280 10.530 6.620 6.394 1.1170 127.30 39.95                       147.30   13.196 10.136 3.061 12.867 9.854 3.015
UPLMET_235 2018-09-30 12:45:00 235 46891.0 10.69 10.710 10.600 10.380 10.050 78.530 78.100 7.117 6.734 8.820 8.940 8.470 8.990 0.110 0.071 0.103 0.133     44.980 0.00 1 1 10.770 10.910 10.760 10.230 10.490 7.520 6.961 1.6390 10.640 10.610 10.520 9.940 10.270 6.785 6.536 0.5170 61.53 38.65                       144.60   12.858 10.099 2.761 12.595 9.836 2.758
UPLMET_235 2018-09-30 12:40:00 235 46891.0 10.79 10.810 10.700 10.450 10.030 78.720 78.830 7.249 6.939 8.810 8.940 8.470 8.990 0.110 0.071 0.103 0.133     45.020 0.00 1 1 10.910 11.010 10.870 10.200 10.540 8.300 7.413 2.5750 10.670 10.620 10.520 9.920 10.290 6.700 6.435 1.0200 121.20 89.10                       142.50   12.944 10.191 2.754 12.654 9.976 2.679
UPLMET_235 2018-09-30 12:35:00 235 46891.0 10.79 11.000 10.880 10.500 10.240 86.300 85.800 8.600 8.230 8.810 8.940 8.470 8.990 0.110 0.071 0.103 0.133     45.060 0.00 1 1 10.920 11.070 10.950 10.400 10.570 9.230 8.670 1.8710 10.600 10.850 10.740 10.110 10.400 7.965 7.510 0.8290 61.33 35.20                       142.80   12.944 11.173 1.773 12.696 10.896 1.803
UPLMET_235 2018-09-30 12:30:00 235 46891.0 10.51 10.680 10.610 10.330 9.900 85.400 85.100 8.170 7.946 8.810 8.940 8.470 8.990 0.110 0.071 0.103 0.133     45.100 0.00 1 1 10.590 10.830 10.730 10.140 10.380 8.790 8.410 1.2560 10.490 10.620 10.520 9.820 10.280 7.893 7.753 0.7120 22.40 22.63                       142.10   12.705 10.852 1.855 12.553 10.688 1.870
UPLMET_235 2018-09-30 12:25:00 235 46891.0 10.48 10.590 10.510 10.290 9.860 84.900 84.600 8.050 7.825 8.800 8.940 8.470 8.990 0.110 0.071 0.103 0.133     45.180 0.00 1 1 10.530 10.660 10.600 9.950 10.320 8.280 8.190 1.4340 10.450 10.510 10.480 9.780 10.260 7.697 7.600 0.6530 353.70 42.01                       140.20   12.679 10.764 1.915 12.519 10.600 1.928
UPLMET_235 2018-09-30 12:20:00 235 46891.0 10.58 10.660 10.630 10.380 9.920 85.200 84.600 8.210 7.914 8.800 8.940 8.470 8.990 0.110 0.071 0.103 0.133     45.120 0.00 1 1 10.610 10.720 10.680 10.040 10.420 8.520 8.140 1.6040 10.550 10.610 10.580 9.800 10.340 7.936 7.690 0.6790 353.60 33.75                       140.50   12.764 10.881 1.889 12.595 10.664 1.940
UPLMET_235 2018-09-30 12:15:00 235 46891.0 10.63 10.640 10.530 10.290 10.010 83.600 83.600 7.973 7.641 8.800 8.950 8.470 8.990 0.110 0.071 0.103 0.133     45.100 0.00 1 1 10.650 10.740 10.670 10.160 10.390 8.480 7.895 3.1180 10.610 10.560 10.400 9.880 10.230 7.654 7.112 0.9750 349.70 29.55                       142.40   12.807 10.707 2.100 12.519 10.468 2.053
UPLMET_235 2018-09-30 12:10:00 235 46891.0 10.69 10.680 10.530 10.380 9.880 82.100 81.900 7.768 7.425 8.800 8.950 8.470 8.990 0.110 0.071 0.103 0.133     45.120 0.00 1 1 10.860 10.820 10.690 10.150 10.580 8.540 8.040 3.1000 10.630 10.580 10.440 9.770 10.270 7.223 7.074 1.6900 60.86 23.49                       144.40   12.858 10.559 2.302 12.595 10.314 2.280
UPLMET_235 2018-09-30 12:05:00 235 46891.0 10.82 11.000 10.940 10.620 10.150 86.900 86.400 8.730 8.450 8.800 8.950 8.470 8.990 0.110 0.071 0.103 0.133     44.930 0.00 1 1 10.890 11.050 11.000 10.280 10.700 8.920 8.890 2.2810 10.730 10.890 10.760 9.890 10.510 8.330 7.555 0.8500 62.04 17.84                       143.70   12.970 11.272 1.699 12.798 11.060 1.741
UPLMET_235 2018-09-30 12:00:00 235 46891.0 10.70 10.870 10.770 10.460 9.890 84.700 84.800 8.230 8.010 8.790 8.950 8.470 8.990 0.110 0.071 0.103 0.133     45.090 0.00 1 1 10.770 10.960 10.880 10.140 10.570 8.650 8.290 1.8440 10.640 10.740 10.670 9.710 10.400 7.895 7.803 0.5720 34.59 14.90                       142.50   12.867 10.896 1.969 12.662 10.734 1.925
UPLMET_235 2018-09-30 11:55:00 235 46891.0 10.84 10.930 10.870 10.580 10.060 84.200 83.900 8.280 7.986 8.790 8.950 8.470 8.990 0.110 0.071 0.103 0.133     45.080 0.00 1 1 10.910 10.990 10.910 10.170 10.600 8.700 8.220 1.8530 10.770 10.860 10.800 9.860 10.560 7.989 7.710 1.0410 0.30 44.00                       144.20   12.987 10.933 2.052 12.764 10.717 2.055
UPLMET_235 2018-09-30 11:50:00 235 46891.0 10.75 10.770 10.650 10.400 10.090 80.500 80.400 7.536 7.175 8.790 8.950 8.470 8.990 0.110 0.071 0.103 0.133     45.090 0.00 1 1 10.880 10.920 10.790 10.310 10.550 7.966 7.709 2.0940 10.650 10.640 10.540 9.950 10.340 6.999 6.685 1.1090 78.86 46.82                       145.20   12.910 10.393 2.517 12.612 10.139 2.472
UPLMET_235 2018-09-30 11:45:00 235 46891.0 10.85 10.850 10.720 10.440 10.000 79.520 79.610 7.458 7.076 8.790 8.950 8.470 8.990 0.110 0.071 0.103 0.133     45.110 0.00 1 1 10.980 11.050 10.960 10.260 10.640 8.360 7.968 1.8000 10.770 10.740 10.600 9.890 10.330 7.176 6.723 0.8460 113.30 40.45                       145.10   12.996 10.337 2.662 12.645 10.070 2.578
UPLMET_235 2018-09-30 11:40:00 235 46891.0 10.91 10.980 10.910 10.570 10.190 84.400 84.000 8.390 7.996 8.790 8.960 8.470 8.990 0.110 0.071 0.103 0.133     45.090 0.00 1 1 10.960 11.050 10.970 10.340 10.620 8.750 8.250 1.4880 10.800 10.860 10.850 10.090 10.510 7.929 7.816 0.6570 14.43 58.08                       145.00   13.048 11.015 2.035 12.756 10.724 2.041
UPLMET_235 2018-09-30 11:35:00 235 46891.0 10.99 10.970 10.920 10.590 10.180 83.300 83.100 8.270 7.855 8.790 8.960 8.470 8.990 0.110 0.071 0.103 0.133     44.990 0.00 1 1 11.050 11.080 11.000 10.330 10.660 8.810 8.360 2.0220 10.840 10.800 10.850 10.020 10.500 7.844 7.471 1.1370 45.65 68.38                       144.80   13.117 10.926 2.191 12.773 10.622 2.159
UPLMET_235 2018-09-30 11:30:00 235 46891.0 11.01 11.100 11.020 10.660 10.360 83.200 82.900 8.260 7.883 8.790 8.960 8.470 8.990 0.110 0.071 0.103 0.133     45.060 0.00 1 1 11.100 11.280 11.170 10.700 10.730 8.870 8.450 2.6370 10.930 10.970 10.940 10.110 10.550 7.635 7.338 1.0750 310.50 48.24                       145.50   13.135 10.918 2.207 12.832 10.642 2.194
UPLMET_235 2018-09-30 11:25:00 235 46891.0 11.05 11.120 10.970 10.600 10.050 83.500 83.800 8.370 7.979 8.790 8.960 8.470 8.990 0.110 0.071 0.103 0.133     45.110 0.00 1 1 11.200 11.330 11.120 10.240 10.740 9.050 8.630 2.5120 10.930 10.980 10.910 9.840 10.520 7.648 7.465 1.2920 318.90 79.30                       146.10   13.170 11.000 2.173 12.781 10.712 2.071
UPLMET_235 2018-09-30 11:20:00 235 46891.0 11.24 11.280 11.190 10.860 10.180 85.700 85.500 8.930 8.540 8.790 8.960 8.470 8.990 0.110 0.071 0.103 0.133     44.950 0.00 1 1 11.430 11.440 11.390 10.430 11.020 9.370 8.950 2.3430 11.080 11.100 11.000 9.970 10.720 8.370 8.230 1.2430 343.70 34.82                       147.70   13.337 11.426 1.907 13.004 11.128 1.886
UPLMET_235 2018-09-30 11:15:00 235 46891.0 11.54 11.500 11.360 11.000 10.240 85.800 87.000 9.250 8.920 8.790 8.960 8.470 8.990 0.110 0.071 0.103 0.133     45.060 0.00 1 1 11.610 11.580 11.510 10.460 11.080 9.740 9.310 2.3880 11.450 11.380 11.270 10.070 10.870 8.460 8.530 0.9960 20.82 39.93                       147.90   13.605 11.675 1.932 13.126 11.418 1.706
UPLMET_235 2018-09-30 11:10:00 235 46891.0 11.54 11.530 11.270 10.810 10.230 85.700 86.500 9.230 8.650 8.790 8.970 8.470 8.990 0.110 0.071 0.103 0.133     45.120 0.00 1 1 11.660 11.670 11.420 10.690 10.950 9.800 9.200 1.4610 11.380 11.250 10.960 9.650 10.630 8.390 8.050 0.8330 45.54 37.79                       147.90   13.605 11.659 1.945 12.961 11.211 1.750
UPLMET_235 2018-09-30 11:05:00 235 46891.0 11.35 11.420 11.240 10.760 9.830 82.900 82.700 8.560 7.945 8.790 8.970 8.470 8.990 0.110 0.071 0.103 0.133     45.110 0.00 1 1 11.410 11.520 11.360 10.050 10.830 8.950 8.210 2.0940 11.280 11.260 10.960 9.620 10.640 8.190 7.774 1.0790 19.17 48.08                       148.10   13.435 11.143 2.297 12.918 10.687 2.235
UPLMET_235 2018-09-30 11:00:00 235 46891.0 10.75 10.970 10.790 10.360 9.850 88.200 87.500 8.890 8.390 8.790 8.970 8.470 8.990 0.110 0.071 0.103 0.133     45.070 0.00 1 1 11.300 11.520 11.360 10.540 10.810 10.210 9.250 1.3630 10.320 10.410 10.240 9.300 9.930 8.100 7.722 0.6710 39.87 25.13                       148.00   12.910 11.395 1.523 12.578 11.015 1.572
UPLMET_235 2018-09-30 10:55:00 235 46891.0 10.00 10.150 10.010 9.660 9.330 89.300 87.300 8.320 7.657 8.790 8.970 8.470 8.990 0.110 0.071 0.103 0.133     45.080 0.00 1 1 10.300 10.380 10.210 9.510 9.920 8.980 7.912 1.6210 9.580 9.770 9.700 9.090 9.370 7.885 7.435 0.6670 61.57 34.11                       147.90   12.279 10.963 1.314 12.002 10.479 1.524
UPLMET_235 2018-09-30 10:50:00 235 46891.0 9.37 9.520 9.480 9.230 8.910 89.400 88.200 7.716 7.392 8.790 8.970 8.470 8.990 0.110 0.071 0.103 0.133     45.080 0.00 1 1 9.520 9.710 9.670 9.160 9.390 8.110 7.756 1.0870 9.230 9.370 9.330 8.770 9.100 7.341 7.165 0.5820 102.90 49.75                       144.90   11.770 10.521 1.248 11.659 10.291 1.376
UPLMET_235 2018-09-30 10:45:00 235 46891.0 9.19 9.310 9.250 9.080 8.670 88.300 87.900 7.361 7.196 8.790 8.970 8.470 8.990 0.110 0.071 0.103 0.133     45.030 0.00 1 1 9.210 9.360 9.310 8.790 9.110 7.672 7.332 2.0130 9.160 9.270 9.210 8.620 9.050 7.146 6.962 0.7990 233.70 78.16                       143.70   11.628 10.269 1.360 11.542 10.154 1.397
UPLMET_235 2018-09-30 10:40:00 235 46891.0 9.08 9.200 9.160 8.960 8.670 90.200 89.800 7.558 7.385 8.790 8.980 8.470 8.990 0.110 0.071 0.103 0.133     45.110 0.00 1 1 9.160 9.330 9.250 8.740 9.050 7.776 7.657 1.5950 8.990 9.060 9.050 8.550 8.870 7.361 7.201 0.7550 250.90 57.92                       142.70   11.542 10.408 1.131 11.449 10.286 1.168
UPLMET_235 2018-09-30 10:35:00 235 46891.0 8.98 9.070 9.030 8.840 8.540 90.600 89.900 7.532 7.280 8.790 8.980 8.470 8.990 0.110 0.071 0.103 0.133     45.080 0.00 1 1 9.010 9.100 9.060 8.570 8.890 7.702 7.410 2.5030 8.940 9.030 8.990 8.510 8.800 7.399 7.126 0.7540 266.70 38.66                       141.00   11.464 10.390 1.078 11.356 10.212 1.147
UPLMET_235 2018-09-30 10:30:00 235 46891.0 8.89 8.980 8.960 8.770 8.520 91.000 90.400 7.506 7.287 8.790 8.980 8.470 8.990 0.110 0.071 0.103 0.133     45.080 0.00 1 1 8.960 9.070 9.030 8.720 8.810 7.853 7.649 1.4790 8.840 8.920 8.920 8.440 8.720 7.117 6.997 0.4950 194.60 56.53                       138.70   11.395 10.371 1.026 11.303 10.217 1.085
UPLMET_235 2018-09-30 10:25:00 235 46891.0 8.91 8.990 9.000 8.790 8.530 89.600 89.200 7.299 7.129 8.790 8.980 8.470 8.990 0.110 0.071 0.103 0.133     45.020 0.00 1 1 8.950 9.060 9.070 8.570 8.830 7.487 7.268 1.8440 8.870 8.930 8.940 8.480 8.730 7.159 7.005 1.0010 247.10 55.71                       137.70   11.410 10.226 1.187 11.318 10.107 1.222
UPLMET_235 2018-09-30 10:20:00 235 46891.0 8.96 9.020 9.060 8.830 8.560 89.800 89.400 7.382 7.192 8.790 8.980 8.470 8.990 0.110 0.071 0.103 0.133     45.050 0.00 1 1 8.980 9.060 9.090 8.630 8.850 7.563 7.371 2.6550 8.930 8.980 9.030 8.470 8.800 6.987 6.900 1.1500 275.50 36.31                       138.80   11.449 10.284 1.168 11.349 10.151 1.203
UPLMET_235 2018-09-30 10:15:00 235 46891.0 9.07 9.100 9.170 8.920 8.530 89.100 88.900 7.384 7.190 8.800 8.980 8.470 8.990 0.110 0.071 0.103 0.133     44.930 0.00 1 1 9.190 9.200 9.270 8.680 9.000 7.808 7.524 3.1090 8.970 9.010 9.060 8.480 8.840 7.077 6.956 0.8930 325.90 69.18                       138.50   11.534 10.285 1.257 11.418 10.149 1.267
UPLMET_235 2018-09-30 10:10:00 235 46891.0 9.27 9.330 9.330 9.060 8.740 90.800 90.500 7.851 7.584 8.800 8.990 8.470 8.990 0.110 0.071 0.103 0.133     44.890 0.00 1 1 9.330 9.430 9.430 8.880 9.160 8.060 7.786 1.8710 9.210 9.220 9.290 8.610 9.020 7.498 7.277 0.9070 46.47 53.63                       137.10   11.691 10.619 1.076 11.526 10.427 1.095
UPLMET_235 2018-09-30 10:05:00 235 46891.0 9.39 9.480 9.460 9.180 8.810 90.700 89.600 7.956 7.572 8.800 8.990 8.470 8.990 0.110 0.071 0.103 0.133     44.860 0.00 1 1 9.450 9.560 9.520 8.990 9.230 8.390 8.090 1.2560 9.290 9.400 9.420 8.710 9.140 7.472 7.208 0.6320 340.20 39.74                       138.00   11.786 10.695 1.096 11.620 10.418 1.208
UPLMET_235 2018-09-30 10:00:00 235 46891.0 9.27 9.350 9.290 9.050 8.770 91.700 90.000 7.996 7.514 8.800 8.990 8.470 8.990 0.110 0.071 0.103 0.133     44.870 0.00 1 1 9.420 9.520 9.440 8.960 9.170 8.420 7.922 0.8200 9.140 9.260 9.230 8.600 8.970 7.585 7.216 0.3020 19.41 42.77                       139.50   11.691 10.724 0.970 11.519 10.377 1.152
UPLMET_235 2018-09-30 09:55:00 235 46891.0 9.01 9.080 9.080 8.890 8.570 90.600 89.200 7.554 7.223 8.800 8.990 8.470 8.990 0.110 0.071 0.103 0.133     44.900 0.00 1 1 9.110 9.240 9.200 8.800 8.960 7.896 7.482 0.7480 8.950 9.000 9.010 8.420 8.860 7.328 6.994 0.1280 248.80 18.85                       137.30   11.488 10.405 1.080 11.395 10.172 1.231
UPLMET_235 2018-09-30 09:50:00 235 46891.0 8.98 9.000 9.010 8.890 8.440 88.000 87.500 7.112 6.930 8.810 8.990 8.470 8.990 0.110 0.071 0.103 0.133     44.870 0.00 1 1 9.080 9.060 9.080 8.500 8.980 7.432 7.220 1.1140 8.910 8.930 8.960 8.400 8.830 6.882 6.760 0.3760 274.70 12.37                       136.70   11.464 10.095 1.376 11.395 9.970 1.424
UPLMET_235 2018-09-30 09:45:00 235 46891.0 9.20 9.260 9.250 9.090 8.660 87.000 85.900 7.158 6.863 8.810 9.000 8.470 8.990 0.110 0.071 0.103 0.133     44.930 0.00 1 1 9.250 9.340 9.330 8.790 9.150 7.464 7.078 1.2030 9.090 9.080 9.090 8.480 8.980 6.869 6.700 0.3720 300.00 33.60                       136.50   11.636 10.127 1.513 11.550 9.924 1.629
UPLMET_235 2018-09-30 09:40:00 235 46891.0 9.31 9.430 9.420 9.200 8.880 87.200 86.000 7.293 6.995 8.810 9.000 8.470 8.990 0.110 0.071 0.103 0.133     44.900 0.00 1 1 9.390 9.520 9.480 8.970 9.270 7.800 7.400 1.7460 9.240 9.340 9.340 8.770 9.140 6.888 6.654 0.7810 276.70 56.14                       136.60   11.722 10.221 1.500 11.636 10.015 1.629
UPLMET_235 2018-09-30 09:35:00 235 46891.0 9.38 9.500 9.450 9.210 8.890 86.100 85.700 7.189 6.954 8.820 9.000 8.470 8.990 0.110 0.071 0.103 0.133     44.900 0.00 1 1 9.420 9.530 9.480 8.950 9.260 7.686 7.189 0.5700 9.360 9.460 9.430 8.840 9.180 6.902 6.742 0.1320 56.11 44.10                       136.90   11.778 10.149 1.637 11.644 9.986 1.665
UPLMET_235 2018-09-30 09:30:00 235 46891.0 9.29 9.360 9.340 9.100 8.840 88.400 86.600 7.472 6.985 8.820 9.000 8.470 8.990 0.110 0.071 0.103 0.133     44.830 0.00 1 1 9.380 9.470 9.440 8.910 9.180 7.715 7.285 1.0250 9.210 9.240 9.230 8.700 9.030 7.097 6.628 0.1870 73.41 7.35                       137.40   11.707 10.347 1.358 11.558 10.008 1.549
UPLMET_235 2018-09-30 09:25:00 235 46891.0 9.26 9.270 9.310 9.110 8.720 87.400 85.800 7.276 6.877 8.820 9.000 8.470 8.990 0.110 0.071 0.103 0.133     44.820 0.00 1 1 9.320 9.360 9.420 8.780 9.220 7.741 7.109 1.9150 9.220 9.220 9.240 8.630 9.040 6.888 6.681 1.1330 26.85 54.54                       137.60   11.683 10.209 1.472 11.565 9.934 1.642
UPLMET_235 2018-09-30 09:20:00 235 46891.0 9.39 9.490 9.480 9.250 8.930 85.700 84.500 7.119 6.786 8.830 9.000 8.470 8.990 0.110 0.071 0.103 0.133     44.750 0.00 1 1 9.410 9.520 9.500 9.010 9.270 7.335 6.919 0.9530 9.360 9.400 9.420 8.780 9.220 6.973 6.608 0.2980 297.00 32.00                       137.00   11.786 10.100 1.685 11.675 9.872 1.810
UPLMET_235 2018-09-30 09:15:00 235 46891.0 9.42 9.490 9.550 9.290 8.950 84.200 83.200 6.897 6.586 8.830 9.010 8.470 8.990 0.110 0.071 0.103 0.133     44.880 0.00 1 1 9.510 9.610 9.650 9.080 9.360 7.177 6.883 1.4880 9.360 9.420 9.490 8.880 9.240 6.562 6.417 0.5800 336.80 65.17                       137.40   11.810 9.947 1.866 11.707 9.737 1.967
UPLMET_235 2018-09-30 09:10:00 235 46891.0 9.53 9.610 9.620 9.370 9.030 84.100 83.300 6.992 6.683 8.830 9.010 8.470 8.990 0.110 0.071 0.103 0.133     44.870 0.00 1 1 9.620 9.710 9.690 9.150 9.470 7.525 7.166 2.4590 9.480 9.520 9.570 8.940 9.320 6.608 6.248 0.8030 235.30 36.75                       137.60   11.897 10.012 1.892 11.770 9.802 1.966
UPLMET_235 2018-09-30 09:05:00 235 46891.0 9.68 9.760 9.700 9.500 9.100 83.600 82.700 7.047 6.705 8.840 9.010 8.470 8.990 0.110 0.071 0.103 0.133     44.830 0.00 1 1 9.830 9.970 9.770 9.180 9.590 7.532 7.115 2.1560 9.600 9.680 9.640 9.040 9.440 6.513 6.265 1.1010 295.10 29.60                       137.80   12.018 10.050 1.971 11.873 9.817 2.054
UPLMET_235 2018-09-30 09:00:00 235 46891.0 9.94 10.070 9.910 9.660 9.200 82.300 81.000 7.062 6.567 8.840 9.010 8.470 8.990 0.110 0.071 0.103 0.133     44.830 0.00 1 1 10.060 10.240 10.090 9.300 9.760 7.564 7.124 2.1380 9.820 9.960 9.780 9.110 9.590 6.529 6.234 1.2110 267.30 34.94                       138.30   12.229 10.061 2.165 12.002 9.724 2.280
UPLMET_235 2018-09-30 08:55:00 235 46891.0 10.10 10.300 10.180 9.780 9.130 81.400 81.000 7.077 6.682 8.840 9.010 8.470 8.990 0.110 0.071 0.103 0.133     44.910 0.00 1 1 10.180 10.340 10.230 9.200 9.800 7.378 7.126 1.2290 10.060 10.260 10.090 8.920 9.750 6.602 6.356 0.4440 65.23 71.20                       139.40   12.361 10.071 2.299 12.099 9.801 2.299
UPLMET_235 2018-09-30 08:50:00 235 46891.0 9.95 10.090 10.030 9.680 8.950 88.000 86.000 8.060 7.450 8.850 9.020 8.470 8.990 0.110 0.071 0.103 0.133     44.970 0.00 1 1 10.210 10.360 10.290 9.170 9.840 8.730 8.070 1.1050 9.680 9.760 9.750 8.780 9.450 7.038 6.719 0.1760 58.86 10.49                       140.50   12.238 10.771 1.469 12.018 10.332 1.683
UPLMET_235 2018-09-30 08:45:00 235 46891.0 9.69 9.750 9.780 9.430 8.740 88.200 86.700 7.827 7.325 8.850 9.020 8.470 8.990 0.110 0.071 0.103 0.133     44.810 0.00 1 1 9.730 9.850 9.900 8.950 9.510 8.090 7.624 0.5700 9.650 9.690 9.730 8.600 9.360 7.368 6.721 0.1460 56.69 10.23                       136.40   12.026 10.601 1.419 11.818 10.244 1.572
UPLMET_235 2018-09-30 08:40:00 235 46891.0 9.83 9.910 9.870 9.520 8.770 80.900 80.900 6.706 6.407 8.850 9.020 8.470 8.990 0.110 0.071 0.103 0.133     44.760 0.00 1 1 9.930 10.060 9.910 8.970 9.540 7.564 6.961 0.8110 9.710 9.830 9.840 8.690 9.490 6.440 6.225 0.2920 48.61 10.90                       136.50   12.140 9.818 2.319 11.889 9.617 2.271
UPLMET_235 2018-09-30 08:35:00 235 46891.0 9.84 9.940 9.800 9.390 8.580 84.300 83.400 7.329 6.723 8.860 9.020 8.470 8.990 0.110 0.071 0.103 0.133     44.880 0.00 1 1 9.910 10.050 9.900 8.830 9.500 7.921 7.334 0.8640 9.720 9.760 9.690 8.380 9.300 6.854 6.512 0.2650 123.10 9.05                       136.60   12.148 10.247 1.907 11.786 9.829 1.956
UPLMET_235 2018-09-30 08:30:00 235 46891.0 9.50 9.530 9.440 9.110 8.330 88.500 87.100 7.701 7.080 8.860 9.020 8.470 8.990 0.110 0.071 0.103 0.133     44.800 0.00 1 1 9.700 9.710 9.640 8.610 9.280 7.975 7.235 0.7840 9.350 9.430 9.330 8.160 8.980 7.431 6.668 0.3130 131.00 14.84                       135.90   11.873 10.511 1.365 11.565 10.073 1.492
UPLMET_235 2018-09-30 08:25:00 235 46891.0 9.43 9.430 9.340 9.050 8.460 87.700 86.700 7.506 6.962 8.860 9.020 8.470 8.990 0.110 0.071 0.103 0.133     44.790 0.00 1 1 9.510 9.540 9.450 8.630 9.130 7.838 7.234 1.2210 9.340 9.290 9.190 8.170 8.950 7.145 6.798 0.5790 153.20 13.11                       134.40   11.818 10.371 1.454 11.519 9.992 1.532
UPLMET_235 2018-09-30 08:20:00 235 46891.0 9.48 9.440 9.420 9.140 8.290 89.200 87.600 7.806 7.205 8.870 9.030 8.470 8.990 0.110 0.071 0.103 0.133     44.820 0.00 1 1 9.610 9.620 9.640 8.380 9.330 8.130 7.515 0.9530 9.360 9.290 9.210 8.200 8.970 7.498 7.014 0.5600 122.10 20.93                       133.00   11.857 10.586 1.281 11.589 10.160 1.437
UPLMET_235 2018-09-30 08:15:00 235 46891.0 9.63 9.680 9.730 9.390 8.610 91.200 89.700 8.280 7.784 8.870 9.030 8.470 8.990 0.110 0.071 0.103 0.133     44.850 0.00 1 1 9.680 9.720 9.780 8.760 9.420 8.550 8.020 0.4990 9.600 9.640 9.660 8.270 9.320 7.795 7.153 0.1780 113.60 9.91                       132.50   11.978 10.933 1.054 11.786 10.570 1.214
UPLMET_235 2018-09-30 08:10:00 235 46891.0 9.54 9.650 9.730 9.300 8.780 89.900 88.700 7.975 7.537 8.880 9.030 8.470 8.990 0.110 0.071 0.103 0.133     44.840 0.00 1 1 9.670 9.780 9.850 9.000 9.420 8.330 8.060 0.5970 9.410 9.480 9.520 8.580 9.150 7.512 6.812 0.0940 156.70 0.08                       132.30   11.905 10.709 1.202 11.715 10.393 1.324
UPLMET_235 2018-09-30 08:05:00 235 46891.0 9.27 9.400 9.390 9.040 8.530 91.000 88.500 7.882 7.257 8.880 9.030 8.470 8.990 0.110 0.071 0.103 0.133     44.860 0.00 1 1 9.410 9.510 9.510 8.690 9.160 8.310 7.650 0.9000 9.150 9.350 9.330 8.410 8.950 7.501 6.941 0.1220 103.90 27.24                       131.60   11.691 10.641 1.052 11.511 10.196 1.324
UPLMET_235 2018-09-30 08:00:00 235 46891.0 8.96 9.220 9.200 8.790 8.500 89.200 87.800 7.295 6.883 8.880 9.030 8.470 8.990 0.110 0.071 0.103 0.133     44.900 0.00 1 1 9.150 9.370 9.360 8.630 8.960 7.777 7.298 0.0000 8.800 9.060 9.020 8.300 8.660 6.893 6.393 0.0000 0.00 0.00                       130.40   11.449 10.223 1.236 11.318 9.938 1.381
UPLMET_235 2018-09-30 07:55:00 235 46891.0 8.65 8.910 8.860 8.520 8.250 90.000 88.100 7.119 6.671 8.890 9.040 8.470 8.990 0.110 0.071 0.103 0.133     44.780 0.00 1 1 8.810 9.060 9.020 8.360 8.660 7.410 6.828 0.0000 8.490 8.730 8.680 8.140 8.380 6.919 6.435 0.0000 0.00 0.00                       130.00   11.211 10.100 1.121 11.113 9.794 1.322
UPLMET_235 2018-09-30 07:50:00 235 46891.0 8.38 8.590 8.550 8.250 8.100 95.300 92.100 7.674 7.056 8.890 9.040 8.470 8.990 0.110 0.071 0.103 0.133     44.770 0.00 1 1 8.500 8.720 8.670 8.210 8.370 7.773 7.295 0.0000 8.240 8.470 8.460 7.957 8.180 7.530 6.824 0.0000 0.00 0.00                       129.30   11.008 10.491 0.517 10.911 10.057 0.862
UPLMET_235 2018-09-30 07:45:00 235 46891.0 8.11 8.320 8.280 8.050 7.938 95.800 93.200 7.491 7.030 8.900 9.040 8.470 8.990 0.110 0.071 0.103 0.133     44.720 0.00 1 1 8.220 8.450 8.440 8.150 8.170 7.557 7.208 0.0000 8.030 8.210 8.170 7.684 7.964 7.413 6.936 0.0000 0.00 0.00                       128.80   10.808 10.361 0.454 10.764 10.039 0.732
UPLMET_235 2018-09-30 07:40:00 235 46891.0 7.96 8.160 8.120 7.918 7.761 96.200 93.800 7.403 6.992 8.900 9.040 8.470 8.990 0.110 0.071 0.103 0.133     44.800 0.00 1 1 8.010 8.220 8.170 7.892 7.980 7.439 7.122 0.0000 7.898 8.110 8.080 7.675 7.878 7.359 6.810 0.0000 0.00 0.00                       128.60   10.696 10.299 0.406 10.667 10.012 0.661
UPLMET_235 2018-09-30 07:35:00 235 46891.0 7.84 8.030 8.030 7.833 7.708 96.900 94.300 7.388 6.975 8.900 9.040 8.470 8.990 0.110 0.071 0.103 0.133     44.910 0.00 1 1 7.895 8.100 8.080 7.818 7.881 7.486 7.107 0.0000 7.812 7.974 7.977 7.598 7.792 7.313 6.865 0.0000 0.00 0.00                       128.40   10.613 10.288 0.329 10.606 10.001 0.605
UPLMET_235 2018-09-30 07:30:00 235 46891.0 7.75 7.904 7.913 7.737 7.645 97.700 95.700 7.414 7.096 8.910 9.040 8.470 9.000 0.110 0.071 0.103 0.133     44.810 0.00 1 1 7.812 7.971 7.977 7.732 7.792 7.464 7.184 0.0450 7.674 7.833 7.839 7.547 7.667 7.349 6.983 0.0020 180.30 0.00                       128.30   10.546 10.306 0.243 10.536 10.084 0.453
UPLMET_235 2018-09-30 07:25:00 235 46891.0 7.65 7.793 7.803 7.625 7.490 97.900 95.400 7.347 6.949 8.910 9.050 8.470 8.990 0.110 0.071 0.103 0.133     44.880 0.00 1 1 7.690 7.833 7.836 7.598 7.674 7.375 7.054 0.4190 7.605 7.771 7.786 7.401 7.588 7.319 6.890 0.2100 179.90 0.56                       128.20   10.474 10.259 0.220 10.456 9.983 0.481
UPLMET_235 2018-09-30 07:20:00 235 46891.0 7.51 7.720 7.719 7.537 7.498 98.200 95.200 7.251 6.820 8.920 9.050 8.470 8.990 0.110 0.071 0.103 0.133     44.810 0.00 1 1 7.598 7.796 7.810 7.646 7.635 7.311 7.005 1.0250 7.390 7.630 7.635 7.294 7.429 7.165 6.692 0.5430 190.80 8.24                       128.10   10.375 10.192 0.187 10.393 9.895 0.499
UPLMET_235 2018-09-30 07:15:00 235 46891.0 7.44 7.598 7.605 7.396 7.267 98.800 97.500 7.269 7.039 8.920 9.050 8.470 9.000 0.110 0.071 0.103 0.133     44.840 0.00 1 1 7.476 7.631 7.636 7.414 7.416 7.312 7.115 0.9440 7.406 7.565 7.580 7.187 7.370 7.209 6.752 0.4900 207.10 13.17                       128.10   10.325 10.205 0.124 10.294 10.045 0.257
UPLMET_235 2018-09-30 07:10:00 235 46891.0 7.28 7.461 7.485 7.296 7.204 98.800 98.000 7.113 7.006 8.920 9.050 8.470 8.990 0.110 0.071 0.103 0.133     44.840 0.00 1 1 7.390 7.582 7.589 7.361 7.383 7.232 7.080 0.8820 7.191 7.357 7.401 7.091 7.215 7.018 6.931 0.5860 216.90 3.18                       128.00   10.212 10.096 0.123 10.223 10.022 0.204
UPLMET_235 2018-09-30 07:05:00 235 46891.0 7.14 7.292 7.339 7.174 7.018 98.800 98.000 6.971 6.882 8.930 9.050 8.470 9.000 0.110 0.071 0.103 0.133     44.830 0.00 1 1 7.201 7.348 7.389 7.073 7.241 7.025 6.957 0.6950 7.092 7.238 7.291 6.979 7.125 6.916 6.816 0.4170 213.30 0.12                       127.90   10.118 9.998 0.121 10.138 9.937 0.203
UPLMET_235 2018-09-30 07:00:00 235 46891.0 7.03 7.178 7.238 7.090 6.905 98.700 97.700 6.842 6.755 8.930 9.050 8.470 8.990 0.110 0.071 0.103 0.133     44.860 0.00 1 1 7.082 7.232 7.284 6.979 7.125 6.903 6.813 0.9000 6.993 7.143 7.205 6.862 7.050 6.801 6.701 0.6330 222.10 8.51                       127.80   10.040 9.910 0.131 10.080 9.851 0.232
UPLMET_235 2018-09-30 06:55:00 235 46891.0 6.99 7.132 7.196 7.059 6.856 98.700 97.500 6.799 6.695 8.940 9.060 8.470 9.000 0.110 0.071 0.103 0.133     44.860 0.00 1 1 7.003 7.140 7.203 6.876 7.079 6.814 6.721 0.8550 6.974 7.124 7.193 6.847 7.043 6.786 6.677 0.6490 230.50 0.00                       127.70   10.010 9.881 0.130 10.059 9.810 0.251
UPLMET_235 2018-09-30 06:50:00 235 46891.0 6.94 7.109 7.177 7.051 6.872 98.700 97.200 6.765 6.637 8.940 9.060 8.470 9.000 0.110 0.071 0.103 0.133     44.710 0.00 1 1 6.974 7.129 7.195 6.890 7.066 6.795 6.686 0.7930 6.911 7.088 7.160 6.854 7.033 6.735 6.604 0.6000 230.50 0.00                       127.60   9.980 9.857 0.130 10.053 9.771 0.281
UPLMET_235 2018-09-30 06:45:00 235 46891.0 6.90 7.055 7.137 7.022 6.809 98.800 97.200 6.730 6.610 8.940 9.060 8.470 9.000 0.110 0.071 0.103 0.133     44.860 0.00 1 1 6.934 7.085 7.158 6.852 7.053 6.758 6.637 1.1670 6.884 7.039 7.121 6.773 6.997 6.712 6.590 0.6180 230.50 0.02                       127.50   9.951 9.834 0.119 10.033 9.753 0.281
UPLMET_235 2018-09-30 06:40:00 235 46891.0 6.86 7.033 7.143 7.052 6.832 98.800 96.500 6.692 6.543 8.950 9.060 8.470 9.000 0.110 0.071 0.103 0.133     44.910 0.00 1 1 6.901 7.049 7.147 6.856 7.093 6.730 6.602 0.9710 6.822 7.023 7.138 6.810 7.030 6.650 6.474 0.5130 230.50 0.00                       127.50   9.924 9.808 0.119 10.054 9.708 0.352
UPLMET_235 2018-09-30 06:35:00 235 46891.0 6.80 7.003 7.147 7.098 6.900 98.800 95.100 6.627 6.374 8.950 9.060 8.470 9.000 0.110 0.071 0.103 0.133     44.830 0.00 1 1 6.825 7.028 7.158 6.967 7.159 6.660 6.470 0.8460 6.759 6.977 7.130 6.852 7.070 6.591 6.291 0.4930 205.90 13.67                       127.40   9.879 9.764 0.119 10.086 9.595 0.494
UPLMET_235 2018-09-30 06:30:00 235 46891.0 6.76 6.968 7.111 7.088 6.893 98.900 94.600 6.611 6.278 8.960 9.060 8.470 9.000 0.110 0.071 0.103 0.133     44.720 0.00 1 1 6.782 6.992 7.163 7.023 7.172 6.631 6.414 1.0070 6.736 6.959 7.083 6.794 7.023 6.585 6.096 0.5330 199.10 26.36                       127.40   9.857 9.754 0.108 10.079 9.532 0.544
UPLMET_235 2018-09-30 06:25:00 235 46891.0 6.72 6.894 6.992 6.875 6.740 99.000 97.100 6.570 6.451 8.960 9.070 8.470 9.000 0.110 0.071 0.103 0.133     44.670 0.00 1 1 6.752 6.975 7.117 6.967 7.070 6.607 6.544 1.0960 6.689 6.829 6.900 6.605 6.765 6.537 6.286 0.7060 213.80 15.13                       127.50   9.825 9.726 0.098 9.932 9.647 0.288
UPLMET_235 2018-09-30 06:20:00 235 46891.0 6.68 6.809 6.886 6.775 6.605 98.900 98.100 6.520 6.504 8.970 9.070 8.470 9.000 0.110 0.071 0.103 0.133     44.680 0.00 1 1 6.696 6.829 6.899 6.646 6.792 6.547 6.533 0.9620 6.659 6.793 6.875 6.582 6.762 6.502 6.471 0.3880 232.70 0.12                       127.50   9.797 9.693 0.108 9.864 9.682 0.187
UPLMET_235 2018-09-30 06:15:00 235 46891.0 6.65 6.791 6.883 6.784 6.599 98.800 97.800 6.485 6.461 8.970 9.070 8.470 9.000 0.110 0.071 0.103 0.133     44.670 0.00 1 1 6.679 6.801 6.890 6.623 6.811 6.518 6.501 0.4720 6.623 6.775 6.877 6.578 6.772 6.456 6.420 0.1910 237.00 0.02                       127.50   9.780 9.669 0.117 9.870 9.653 0.217
UPLMET_235 2018-09-30 06:10:00 235 46891.0 6.64 6.778 6.874 6.779 6.585 98.800 97.500 6.465 6.416 8.970 9.070 8.470 9.000 0.110 0.071 0.103 0.133     44.720 0.00 1 1 6.660 6.784 6.878 6.597 6.809 6.491 6.439 0.7570 6.607 6.768 6.871 6.569 6.756 6.432 6.369 0.3680 234.50 1.05                       127.50   9.771 9.656 0.117 9.867 9.623 0.247
UPLMET_235 2018-09-30 06:05:00 235 46891.0 6.61 6.763 6.891 6.817 6.609 98.700 96.800 6.425 6.347 8.980 9.070 8.470 9.000 0.110 0.071 0.103 0.133     44.780 0.00 1 1 6.627 6.769 6.916 6.671 6.855 6.453 6.388 0.6770 6.587 6.753 6.872 6.579 6.785 6.401 6.308 0.2300 233.90 0.28                       127.50   9.750 9.629 0.127 9.893 9.578 0.317
UPLMET_235 2018-09-30 06:00:00 235 46891.0 6.57 6.733 6.862 6.780 6.571 98.700 96.900 6.382 6.325 8.980 9.070 8.470 9.000 0.110 0.071 0.103 0.133     44.700 0.00 1 1 6.590 6.764 6.912 6.664 6.818 6.409 6.351 1.0510 6.547 6.722 6.835 6.535 6.756 6.352 6.308 0.3480 250.20 12.90                       127.60   9.727 9.601 0.126 9.868 9.563 0.306
UPLMET_235 2018-09-30 05:55:00 235 46891.0 6.61 6.767 6.892 6.804 6.573 98.700 97.200 6.428 6.393 8.990 9.080 8.470 9.000 0.110 0.071 0.103 0.133     44.760 0.00 1 1 6.666 6.808 6.923 6.615 6.851 6.490 6.459 1.6480 6.567 6.737 6.873 6.535 6.769 6.375 6.326 0.7730 230.90 32.43                       127.60   9.754 9.631 0.127 9.884 9.608 0.277
UPLMET_235 2018-09-30 05:50:00 235 46891.0 6.66 6.832 6.956 6.866 6.647 98.800 97.000 6.492 6.429 8.990 9.080 8.470 9.000 0.110 0.071 0.103 0.133     44.740 0.00 1 1 6.693 6.858 6.992 6.679 6.917 6.523 6.455 0.9980 6.646 6.810 6.925 6.630 6.838 6.470 6.403 0.5740 206.40 10.10                       127.60   9.790 9.674 0.117 9.926 9.632 0.298
UPLMET_235 2018-09-30 05:45:00 235 46891.0 6.68 6.883 7.001 6.891 6.733 98.800 97.200 6.519 6.479 8.990 9.080 8.470 9.000 0.110 0.071 0.103 0.133     44.690 0.00 1 1 6.709 6.898 7.032 6.782 6.934 6.549 6.501 1.3990 6.663 6.857 6.946 6.673 6.835 6.495 6.442 1.0500 222.00 7.36                       127.60   9.803 9.692 0.118 9.943 9.665 0.278
UPLMET_235 2018-09-30 05:40:00 235 46891.0 6.66 6.826 6.924 6.815 6.635 98.800 97.600 6.487 6.472 9.000 9.080 8.470 9.000 0.110 0.071 0.103 0.133     44.630 0.00 1 1 6.683 6.853 6.944 6.673 6.844 6.515 6.504 1.1940 6.637 6.810 6.913 6.612 6.802 6.459 6.438 0.6740 225.70 6.21                       127.60   9.789 9.671 0.117 9.891 9.661 0.237
UPLMET_235 2018-09-30 05:35:00 235 46891.0 6.67 6.836 6.941 6.831 6.642 98.800 97.300 6.494 6.445 9.000 9.080 8.470 9.000 0.110 0.071 0.103 0.133     44.660 0.00 1 1 6.686 6.851 6.954 6.665 6.851 6.506 6.472 0.7750 6.656 6.823 6.925 6.621 6.805 6.478 6.415 0.4560 228.40 0.00                       127.60   9.793 9.675 0.118 9.902 9.643 0.267
UPLMET_235 2018-09-30 05:30:00 235 46891.0 6.69 6.847 6.938 6.817 6.650 98.800 97.700 6.520 6.486 9.010 9.080 8.470 9.000 0.110 0.071 0.103 0.133     44.670 0.00 1 1 6.712 6.871 6.972 6.702 6.864 6.544 6.521 1.0420 6.666 6.821 6.908 6.610 6.768 6.493 6.443 0.6880 224.10 4.34                       127.70   9.807 9.693 0.118 9.893 9.670 0.228
UPLMET_235 2018-09-30 05:25:00 235 46891.0 6.68 6.825 6.897 6.776 6.612 98.800 97.900 6.505 6.480 9.010 9.090 8.470 9.000 0.110 0.071 0.103 0.133     44.660 0.00 1 1 6.699 6.839 6.904 6.625 6.792 6.526 6.512 0.6950 6.659 6.816 6.892 6.600 6.762 6.481 6.454 0.1850 244.60 12.67                       127.70   9.801 9.683 0.118 9.865 9.666 0.207
UPLMET_235 2018-09-30 05:20:00 235 46891.0 6.67 6.805 6.896 6.800 6.596 98.700 97.600 6.482 6.456 9.020 9.090 8.470 9.000 0.110 0.071 0.103 0.133     44.710 0.00 1 1 6.693 6.815 6.907 6.610 6.828 6.506 6.475 0.4900 6.646 6.792 6.890 6.577 6.768 6.461 6.442 0.1860 259.40 0.02                       127.70   9.793 9.667 0.127 9.881 9.650 0.237
UPLMET_235 2018-09-30 05:15:00 235 46891.0 6.66 6.813 6.921 6.857 6.600 98.600 97.100 6.467 6.435 9.020 9.090 8.470 9.000 0.110 0.071 0.103 0.133     44.680 0.00 1 1 6.686 6.824 6.954 6.624 6.914 6.497 6.476 0.6680 6.643 6.809 6.903 6.587 6.825 6.449 6.414 0.3800 259.40 0.03                       127.70   9.787 9.657 0.137 9.920 9.636 0.288
UPLMET_235 2018-09-30 05:10:00 235 46891.0 6.66 6.851 6.999 6.917 6.708 98.600 96.200 6.465 6.363 9.020 9.090 8.470 9.000 0.110 0.071 0.103 0.133     44.670 0.00 1 1 6.672 6.866 7.034 6.777 6.953 6.478 6.410 0.8110 6.649 6.828 6.957 6.641 6.844 6.453 6.308 0.5400 237.90 10.02                       127.70   9.787 9.656 0.137 9.961 9.588 0.379
UPLMET_235 2018-09-30 05:05:00 235 46891.0 6.65 6.825 6.951 6.867 6.665 98.600 97.100 6.448 6.440 9.030 9.090 8.470 9.000 0.110 0.071 0.103 0.133     44.720 0.00 1 1 6.673 6.837 6.966 6.676 6.884 6.482 6.461 1.1230 6.623 6.806 6.941 6.643 6.851 6.409 6.423 0.4680 238.70 3.26                       127.80   9.779 9.645 0.137 9.927 9.639 0.288
UPLMET_235 2018-09-30 05:00:00 235 46891.0 6.65 6.807 6.960 6.882 6.657 98.500 96.600 6.432 6.391 9.030 9.090 8.470 9.000 0.110 0.071 0.103 0.133     44.680 0.00 1 1 6.672 6.826 6.987 6.703 6.907 6.458 6.444 1.3100 6.626 6.793 6.940 6.630 6.847 6.408 6.356 0.5840 239.70 1.14                       127.80   9.780 9.634 0.147 9.937 9.607 0.338
UPLMET_235 2018-09-30 04:55:00 235 46891.0 6.66 6.818 6.944 6.871 6.634 98.400 96.500 6.430 6.366 9.040 9.090 8.470 9.000 0.110 0.071 0.103 0.133     44.700 0.00 1 1 6.682 6.842 6.960 6.658 6.887 6.452 6.395 1.0690 6.642 6.798 6.930 6.586 6.851 6.408 6.337 0.6030 240.50 3.77                       127.80   9.789 9.633 0.157 9.930 9.590 0.348
UPLMET_235 2018-09-30 04:50:00 235 46891.0 6.68 6.853 6.978 6.910 6.654 98.200 96.000 6.427 6.325 9.040 9.100 8.470 9.000 0.110 0.071 0.103 0.133     44.580 0.00 1 1 6.716 6.886 7.015 6.702 6.947 6.458 6.367 1.1940 6.659 6.830 6.951 6.621 6.871 6.396 6.290 0.6770 238.40 9.98                       127.80   9.802 9.631 0.176 9.956 9.563 0.398
UPLMET_235 2018-09-30 04:45:00 235 46891.0 6.71 6.909 7.049 6.954 6.764 98.300 95.600 6.461 6.304 9.040 9.100 8.470 9.000 0.110 0.071 0.103 0.133     44.670 0.00 1 1 6.726 6.924 7.063 6.798 6.970 6.477 6.339 0.9620 6.685 6.891 7.020 6.711 6.940 6.435 6.251 0.6060 229.90 0.08                       127.80   9.819 9.653 0.167 9.986 9.549 0.439
UPLMET_235 2018-09-30 04:40:00 235 46891.0 6.66 6.863 7.008 6.866 6.756 98.500 96.100 6.440 6.294 9.050 9.100 8.470 9.000 0.110 0.071 0.103 0.133     44.690 0.00 1 1 6.695 6.924 7.082 6.880 6.950 6.468 6.379 0.9530 6.626 6.798 6.913 6.657 6.788 6.411 6.219 0.5550 226.60 10.17                       127.90   9.786 9.639 0.147 9.926 9.543 0.387
UPLMET_235 2018-09-30 04:35:00 235 46891.0 6.62 6.750 6.838 6.767 6.550 98.400 97.400 6.388 6.395 9.050 9.100 8.470 9.000 0.110 0.071 0.103 0.133     44.680 0.00 1 1 6.633 6.790 6.905 6.640 6.795 6.409 6.428 0.6860 6.600 6.732 6.822 6.501 6.742 6.365 6.372 0.2760 221.40 7.28                       127.90   9.757 9.605 0.156 9.859 9.609 0.256
UPLMET_235 2018-09-30 04:30:00 235 46891.0 6.62 6.762 6.865 6.814 6.554 98.300 97.200 6.380 6.407 9.060 9.100 8.470 9.000 0.110 0.071 0.103 0.133     44.630 0.00 1 1 6.659 6.795 6.902 6.622 6.831 6.420 6.433 0.7570 6.599 6.731 6.823 6.477 6.778 6.355 6.385 0.1590 226.90 0.01                       127.90   9.760 9.599 0.166 9.891 9.617 0.277
UPLMET_235 2018-09-30 04:25:00 235 46891.0 6.64 6.802 6.913 6.856 6.633 98.200 96.600 6.386 6.353 9.060 9.100 8.470 9.000 0.110 0.071 0.103 0.133     44.600 0.00 1 1 6.686 6.841 6.935 6.691 6.884 6.438 6.392 1.1140 6.603 6.789 6.900 6.606 6.828 6.349 6.320 0.3510 225.80 3.27                       127.90   9.773 9.603 0.176 9.919 9.582 0.337
UPLMET_235 2018-09-30 04:20:00 235 46891.0 6.65 6.810 6.894 6.812 6.614 98.100 96.800 6.379 6.349 9.060 9.100 8.470 9.000 0.110 0.071 0.103 0.133     44.680 0.00 1 1 6.675 6.843 6.930 6.700 6.844 6.424 6.372 0.6770 6.629 6.770 6.863 6.510 6.771 6.338 6.329 0.3230 222.10 17.83                       128.00   9.780 9.599 0.186 9.889 9.579 0.316
UPLMET_235 2018-09-30 04:15:00 235 46891.0 6.69 6.836 6.938 6.859 6.613 97.900 96.400 6.385 6.335 9.070 9.110 8.470 9.000 0.110 0.071 0.103 0.133     44.690 0.00 1 1 6.711 6.860 6.977 6.649 6.896 6.403 6.373 0.7750 6.655 6.786 6.886 6.547 6.814 6.358 6.280 0.2840 223.80 0.00                       128.00   9.805 9.603 0.206 9.921 9.570 0.357
UPLMET_235 2018-09-30 04:10:00 235 46891.0 6.70 6.917 7.031 6.942 6.774 98.100 95.300 6.420 6.241 9.070 9.110 8.470 9.000 0.110 0.071 0.103 0.133     44.700 0.00 1 1 6.728 6.961 7.063 6.951 6.986 6.446 6.294 0.8460 6.645 6.863 6.984 6.617 6.886 6.393 6.177 0.2640 230.10 6.76                       128.00   9.813 9.626 0.186 9.978 9.508 0.469
UPLMET_235 2018-09-30 04:05:00 235 46891.0 6.64 6.823 6.941 6.843 6.656 98.200 96.500 6.377 6.338 9.080 9.110 8.470 9.000 0.110 0.071 0.103 0.133     44.680 0.00 1 1 6.658 6.877 7.007 6.716 6.873 6.408 6.369 1.7640 6.625 6.806 6.912 6.593 6.820 6.358 6.250 0.8620 221.30 14.91                       128.00   9.770 9.597 0.176 9.910 9.572 0.347
UPLMET_235 2018-09-30 04:00:00 235 46891.0 6.66 6.866 6.969 6.872 6.696 98.200 96.100 6.403 6.305 9.080 9.110 8.470 9.000 0.110 0.071 0.103 0.133     44.600 0.00 1 1 6.675 6.898 6.999 6.776 6.897 6.429 6.338 1.2380 6.635 6.804 6.910 6.581 6.830 6.362 6.270 0.6430 177.70 14.84                       128.00   9.784 9.615 0.176 9.930 9.550 0.387
UPLMET_235 2018-09-30 03:55:00 235 46891.0 6.67 6.851 6.941 6.833 6.647 98.600 97.000 6.464 6.397 9.090 9.110 8.470 9.000 0.110 0.071 0.103 0.133     44.620 0.00 1 1 6.688 6.891 6.984 6.725 6.893 6.505 6.462 2.2090 6.645 6.811 6.889 6.568 6.771 6.411 6.312 1.2370 174.80 15.82                       128.10   9.792 9.655 0.137 9.904 9.611 0.297
UPLMET_235 2018-09-30 03:50:00 235 46891.0 6.66 6.840 6.910 6.809 6.641 98.700 97.700 6.487 6.473 9.090 9.110 8.470 9.000 0.110 0.071 0.103 0.133     44.700 0.00 1 1 6.712 6.901 6.955 6.731 6.847 6.540 6.513 0.9530 6.632 6.785 6.866 6.552 6.764 6.446 6.436 0.6230 183.90 0.01                       128.10   9.790 9.671 0.127 9.887 9.661 0.227
UPLMET_235 2018-09-30 03:45:00 235 46891.0 6.67 6.838 6.931 6.845 6.661 98.700 97.500 6.486 6.482 9.090 9.110 8.470 9.000 0.110 0.071 0.103 0.133     44.650 0.00 1 1 6.685 6.856 6.943 6.696 6.860 6.507 6.504 0.5430 6.645 6.807 6.894 6.591 6.820 6.458 6.453 0.4290 184.00 0.05                       128.10   9.791 9.670 0.127 9.912 9.667 0.248
UPLMET_235 2018-09-30 03:40:00 235 46891.0 6.68 6.846 6.938 6.846 6.665 98.800 97.900 6.507 6.544 9.100 9.120 8.470 9.000 0.110 0.071 0.103 0.133     44.690 0.00 1 1 6.698 6.884 6.966 6.759 6.876 6.535 6.609 1.0960 6.655 6.820 6.913 6.599 6.810 6.477 6.502 0.5570 188.40 19.67                       128.10   9.798 9.684 0.118 9.913 9.709 0.208
UPLMET_235 2018-09-30 03:35:00 235 46891.0 6.72 6.882 6.948 6.835 6.678 98.900 98.600 6.566 6.633 9.100 9.120 8.470 9.000 0.110 0.071 0.103 0.133     44.680 0.00 1 1 6.757 6.897 6.976 6.713 6.876 6.606 6.656 1.3900 6.681 6.866 6.917 6.632 6.777 6.512 6.612 0.8800 186.70 16.55                       128.20   9.830 9.723 0.108 9.905 9.768 0.139
UPLMET_235 2018-09-30 03:30:00 235 46891.0 6.75 6.862 6.916 6.787 6.630 98.900 98.800 6.586 6.615 9.110 9.120 8.470 9.000 0.110 0.071 0.103 0.133     44.600 0.00 1 1 6.764 6.869 6.924 6.637 6.817 6.599 6.633 0.7220 6.731 6.856 6.909 6.620 6.770 6.563 6.603 0.3180 202.60 9.23                       128.20   9.845 9.737 0.108 9.872 9.756 0.118
UPLMET_235 2018-09-30 03:25:00 235 46891.0 6.75 6.878 6.943 6.827 6.642 98.800 98.600 6.575 6.622 9.110 9.120 8.470 9.000 0.110 0.071 0.103 0.133     44.650 0.00 1 1 6.780 6.893 6.960 6.660 6.849 6.602 6.644 0.5970 6.727 6.864 6.924 6.625 6.800 6.554 6.594 0.3830 210.50 0.02                       128.20   9.848 9.729 0.118 9.900 9.761 0.139
UPLMET_235 2018-09-30 03:20:00 235 46891.0 6.80 6.921 6.987 6.877 6.686 98.700 98.400 6.619 6.652 9.110 9.120 8.470 9.000 0.110 0.071 0.103 0.133     44.640 0.00 1 1 6.829 6.938 7.003 6.714 6.899 6.645 6.672 0.7930 6.767 6.898 6.964 6.639 6.836 6.587 6.617 0.5190 218.10 6.32                       128.20   9.881 9.759 0.128 9.934 9.781 0.159
UPLMET_235 2018-09-30 03:15:00 235 46891.0 6.82 6.947 7.019 6.910 6.719 98.700 98.300 6.633 6.659 9.120 9.120 8.470 9.000 0.110 0.071 0.103 0.133     44.660 0.00 1 1 6.853 6.969 7.042 6.759 6.935 6.663 6.672 0.5080 6.806 6.929 7.006 6.672 6.885 6.615 6.637 0.1460 223.70 0.01                       128.20   9.898 9.768 0.129 9.956 9.786 0.169
UPLMET_235 2018-09-30 03:10:00 235 46891.0 6.86 6.988 7.072 6.964 6.752 98.600 97.900 6.657 6.664 9.120 9.120 8.470 9.000 0.110 0.071 0.103 0.133     44.720 0.00 1 1 6.889 7.031 7.114 6.819 7.008 6.691 6.686 0.5080 6.833 6.964 7.042 6.728 6.928 6.627 6.639 0.0800 223.70 0.00                       128.30   9.921 9.784 0.139 9.993 9.789 0.210
UPLMET_235 2018-09-30 03:05:00 235 46891.0 6.94 7.065 7.142 7.032 6.824 98.600 97.800 6.738 6.707 9.130 9.120 8.470 9.000 0.110 0.071 0.103 0.133     44.700 0.00 1 1 6.995 7.111 7.177 6.855 7.094 6.803 6.762 0.9620 6.879 7.025 7.118 6.790 7.005 6.665 6.663 0.5150 224.50 0.58                       128.30   9.975 9.839 0.140 10.040 9.818 0.221
UPLMET_235 2018-09-30 03:00:00 235 46891.0 7.00 7.138 7.211 7.110 6.873 98.600 97.700 6.806 6.772 9.130 9.130 8.470 9.000 0.110 0.071 0.103 0.133     44.720 0.00 1 1 7.034 7.167 7.250 6.890 7.150 6.847 6.841 0.8370 6.968 7.113 7.178 6.855 7.057 6.775 6.720 0.5450 226.00 0.44                       128.30   10.018 9.885 0.140 10.094 9.862 0.232
UPLMET_235 2018-09-30 02:55:00 235 46891.0 7.07 7.222 7.303 7.203 6.980 98.700 97.900 6.889 6.904 9.140 9.130 8.470 9.000 0.110 0.071 0.103 0.133     44.700 0.00 1 1 7.097 7.244 7.327 7.019 7.242 6.911 6.924 0.9180 7.041 7.172 7.253 6.874 7.150 6.857 6.854 0.3330 223.80 1.53                       128.30   10.068 9.942 0.131 10.158 9.952 0.213
UPLMET_235 2018-09-30 02:50:00 235 46891.0 7.10 7.270 7.365 7.279 7.041 98.700 97.500 6.905 6.916 9.140 9.130 8.470 9.000 0.110 0.071 0.103 0.133     44.700 0.00 1 1 7.123 7.305 7.410 7.099 7.332 6.929 6.931 0.5260 7.067 7.239 7.327 6.995 7.239 6.876 6.901 0.1950 222.40 0.01                       128.40   10.085 9.953 0.131 10.212 9.960 0.255
UPLMET_235 2018-09-30 02:45:00 235 46891.0 7.11 7.317 7.421 7.349 7.132 98.700 97.100 6.924 6.930 9.140 9.130 8.470 9.000 0.110 0.071 0.103 0.133     44.700 0.00 1 1 7.137 7.329 7.432 7.159 7.375 6.947 6.956 0.5350 7.087 7.300 7.411 7.105 7.315 6.889 6.902 0.4330 222.40 0.03                       128.40   10.097 9.966 0.131 10.261 9.970 0.298
UPLMET_235 2018-09-30 02:40:00 235 46891.0 7.10 7.310 7.435 7.367 7.141 98.600 96.900 6.896 6.909 9.150 9.130 8.470 9.000 0.110 0.071 0.103 0.133     44.600 0.00 1 1 7.127 7.338 7.453 7.195 7.398 6.924 6.928 0.9800 7.081 7.284 7.408 7.092 7.322 6.870 6.891 0.5320 222.90 0.36                       128.40   10.088 9.947 0.141 10.273 9.956 0.318
UPLMET_235 2018-09-30 02:35:00 235 46891.0 7.10 7.295 7.427 7.394 7.162 98.500 96.600 6.880 6.898 9.150 9.130 8.470 9.000 0.110 0.071 0.103 0.133     44.710 0.00 1 1 7.117 7.316 7.440 7.178 7.411 6.900 6.915 1.0330 7.080 7.260 7.415 7.136 7.374 6.860 6.874 0.1500 204.60 7.05                       128.40   10.086 9.936 0.151 10.292 9.948 0.350
UPLMET_235 2018-09-30 02:30:00 235 46891.0 7.10 7.262 7.402 7.383 7.114 98.400 96.400 6.874 6.851 9.160 9.130 8.470 9.000 0.110 0.071 0.103 0.133     44.680 0.00 1 1 7.126 7.272 7.422 7.185 7.408 6.903 6.896 0.0000 7.077 7.244 7.383 7.034 7.358 6.838 6.811 0.0000 0.00 0.00                       128.50   10.089 9.932 0.161 10.284 9.916 0.370
UPLMET_235 2018-09-30 02:25:00 235 46891.0 7.14 7.332 7.471 7.433 7.160 98.400 95.600 6.913 6.779 9.160 9.130 8.470 9.000 0.110 0.071 0.103 0.133     44.660 0.00 1 1 7.163 7.394 7.531 7.324 7.480 6.955 6.824 1.0870 7.100 7.270 7.408 7.058 7.381 6.866 6.740 0.2140 198.40 8.13                       128.50   10.111 9.958 0.162 10.320 9.867 0.454
UPLMET_235 2018-09-30 02:20:00 235 46891.0 7.14 7.387 7.518 7.473 7.310 98.600 95.500 6.938 6.803 9.160 9.140 8.470 9.000 0.110 0.071 0.103 0.133     44.670 0.00 1 1 7.159 7.432 7.555 7.488 7.529 6.952 6.857 0.8110 7.106 7.360 7.488 7.194 7.437 6.915 6.765 0.4770 203.30 4.81                       128.50   10.113 9.975 0.142 10.348 9.883 0.466
UPLMET_235 2018-09-30 02:15:00 235 46891.0 7.07 7.277 7.393 7.329 7.162 98.600 96.800 6.866 6.861 9.170 9.140 8.470 9.000 0.110 0.071 0.103 0.133     44.670 0.00 1 1 7.096 7.405 7.501 7.443 7.424 6.901 6.892 1.0070 7.050 7.233 7.358 7.055 7.285 6.837 6.837 0.2440 219.80 19.06                       128.50   10.068 9.926 0.141 10.247 9.923 0.328
UPLMET_235 2018-09-30 02:10:00 235 46891.0 7.09 7.258 7.377 7.328 7.086 98.500 96.800 6.879 6.854 9.170 9.140 8.470 9.000 0.110 0.071 0.103 0.133     44.620 0.00 1 1 7.107 7.261 7.388 7.113 7.351 6.892 6.879 0.3300 7.074 7.254 7.367 7.063 7.315 6.862 6.830 0.1290 267.00 0.01                       128.60   10.081 9.935 0.151 10.246 9.918 0.328
UPLMET_235 2018-09-30 02:05:00 235 46891.0 7.11 7.265 7.395 7.355 7.078 98.500 96.600 6.892 6.851 9.180 9.140 8.470 9.000 0.110 0.071 0.103 0.133     44.600 0.00 1 1 7.126 7.289 7.425 7.118 7.394 6.913 6.879 0.1070 7.093 7.237 7.371 7.024 7.315 6.876 6.818 0.0090 267.00 0.00                       128.60   10.092 9.944 0.151 10.265 9.916 0.349
UPLMET_235 2018-09-30 02:00:00 235 46891.0 7.11 7.302 7.447 7.402 7.185 98.600 96.000 6.918 6.816 9.180 9.140 8.470 9.000 0.110 0.071 0.103 0.133     44.700 0.00 1 1 7.140 7.315 7.470 7.221 7.430 6.940 6.854 0.0530 7.084 7.287 7.429 7.128 7.384 6.885 6.783 0.0040 267.00 0.01                       128.60   10.097 9.962 0.141 10.298 9.892 0.412
UPLMET_235 2018-09-30 01:55:00 235 46891.0 7.07 7.286 7.481 7.410 7.289 98.600 95.700 6.871 6.770 9.190 9.140 8.470 9.000 0.110 0.071 0.103 0.133     44.650 0.00 1 1 7.100 7.313 7.510 7.438 7.440 6.907 6.805 0.5430 7.044 7.238 7.435 7.200 7.378 6.843 6.744 0.1790 269.00 0.68                       128.70   10.063 9.930 0.141 10.304 9.861 0.443
UPLMET_235 2018-09-30 01:50:00 235 46891.0 7.03 7.221 7.400 7.348 7.169 98.700 96.200 6.841 6.786 9.190 9.140 8.470 9.000 0.110 0.071 0.103 0.133     44.700 0.00 1 1 7.057 7.256 7.453 7.261 7.374 6.867 6.811 1.1310 6.994 7.186 7.352 7.052 7.325 6.799 6.767 0.4850 250.70 18.74                       128.70   10.039 9.909 0.131 10.260 9.872 0.390
UPLMET_235 2018-09-30 01:45:00 235 46891.0 6.99 7.199 7.384 7.355 7.107 98.600 95.900 6.796 6.749 9.190 9.140 8.470 9.000 0.110 0.071 0.103 0.133     44.700 0.00 1 1 7.004 7.225 7.415 7.199 7.377 6.815 6.771 1.2740 6.968 7.177 7.342 7.016 7.321 6.773 6.709 0.3330 219.30 2.75                       128.70   10.010 9.879 0.140 10.265 9.847 0.421
UPLMET_235 2018-09-30 01:40:00 235 46891.0 6.97 7.186 7.326 7.273 7.074 98.700 96.500 6.785 6.764 9.200 9.150 8.470 9.000 0.110 0.071 0.103 0.133     44.630 0.00 1 1 6.997 7.238 7.406 7.211 7.351 6.824 6.776 0.7660 6.934 7.143 7.281 6.974 7.219 6.748 6.740 0.4570 196.70 10.74                       128.70   9.994 9.871 0.130 10.207 9.857 0.357
UPLMET_235 2018-09-30 01:35:00 235 46891.0 6.94 7.152 7.283 7.203 7.076 98.800 97.200 6.773 6.792 9.200 9.150 8.470 9.000 0.110 0.071 0.103 0.133     44.690 0.00 1 1 6.971 7.182 7.327 7.136 7.272 6.797 6.820 0.4720 6.918 7.106 7.217 7.008 7.136 6.745 6.768 0.1460 194.50 0.04                       128.80   9.980 9.863 0.120 10.158 9.876 0.284
UPLMET_235 2018-09-30 01:30:00 235 46891.0 6.90 7.070 7.166 7.089 6.945 98.800 97.800 6.727 6.775 9.210 9.150 8.470 9.000 0.110 0.071 0.103 0.133     44.660 0.00 1 1 6.938 7.118 7.214 7.011 7.143 6.771 6.812 1.0160 6.835 6.996 7.099 6.822 7.030 6.648 6.714 0.2160 198.20 13.26                       128.80   9.949 9.832 0.119 10.079 9.864 0.222
UPLMET_235 2018-09-30 01:25:00 235 46891.0 6.86 7.004 7.116 7.039 6.821 98.700 97.800 6.673 6.717 9.210 9.150 8.470 9.000 0.110 0.071 0.103 0.133     44.720 0.00 1 1 6.894 7.035 7.139 6.900 7.060 6.715 6.742 0.9530 6.828 6.974 7.091 6.761 7.014 6.635 6.696 0.4830 226.20 12.79                       128.80   9.923 9.795 0.129 10.045 9.825 0.221
UPLMET_235 2018-09-30 01:20:00 235 46891.0 6.86 7.020 7.129 7.031 6.843 98.600 97.900 6.666 6.734 9.210 9.150 8.470 9.000 0.110 0.071 0.103 0.133     44.670 0.00 1 1 6.897 7.031 7.139 6.868 7.049 6.700 6.754 1.0070 6.841 7.007 7.115 6.809 7.000 6.641 6.707 0.5380 229.90 13.76                       128.80   9.924 9.791 0.139 10.039 9.836 0.211
UPLMET_235 2018-09-30 01:15:00 235 46891.0 6.89 7.040 7.142 7.036 6.858 98.600 97.900 6.687 6.726 9.220 9.150 8.470 9.000 0.110 0.071 0.103 0.133     44.690 0.00 1 1 6.904 7.059 7.165 6.893 7.066 6.711 6.754 0.9350 6.868 7.018 7.127 6.815 7.013 6.660 6.703 0.4570 219.50 12.78                       128.90   9.940 9.805 0.139 10.043 9.831 0.211
UPLMET_235 2018-09-30 01:10:00 235 46891.0 6.90 7.060 7.159 7.049 6.879 98.600 97.800 6.696 6.730 9.220 9.150 8.470 9.000 0.110 0.071 0.103 0.133     44.680 0.00 1 1 6.927 7.079 7.167 6.894 7.063 6.727 6.747 0.8640 6.881 7.051 7.153 6.858 7.036 6.668 6.712 0.4810 245.60 2.44                       128.90   9.949 9.811 0.139 10.052 9.834 0.221
UPLMET_235 2018-09-30 01:05:00 235 46891.0 6.93 7.063 7.144 7.041 6.848 98.600 98.000 6.734 6.751 9.230 9.150 8.470 9.000 0.110 0.071 0.103 0.133     44.680 0.00 1 1 6.963 7.080 7.163 6.888 7.076 6.766 6.796 1.0870 6.904 7.047 7.125 6.813 7.013 6.699 6.712 0.7980 250.00 4.12                       128.90   9.973 9.836 0.140 10.046 9.848 0.201
UPLMET_235 2018-09-30 01:00:00 235 46891.0 6.98 7.101 7.173 7.076 6.856 98.600 97.900 6.781 6.769 9.230 9.150 8.470 9.000 0.110 0.071 0.103 0.133     44.710 0.00 1 1 7.020 7.142 7.213 6.894 7.129 6.824 6.803 0.6240 6.943 7.079 7.157 6.825 7.043 6.743 6.747 0.1290 212.80 5.58                       129.00   10.005 9.868 0.140 10.070 9.860 0.211
UPLMET_235 2018-09-30 00:55:00 235 46891.0 7.04 7.191 7.269 7.175 6.950 98.700 97.800 6.855 6.849 9.230 9.150 8.470 9.000 0.110 0.071 0.103 0.133     44.620 0.00 1 1 7.062 7.215 7.305 7.006 7.224 6.879 6.890 0.7040 7.003 7.144 7.217 6.866 7.115 6.805 6.792 0.4410 207.80 0.13                       129.00   10.048 9.919 0.131 10.139 9.915 0.223
UPLMET_235 2018-09-30 00:50:00 235 46891.0 7.05 7.225 7.322 7.245 7.036 98.700 97.500 6.861 6.878 9.240 9.150 8.470 9.000 0.110 0.071 0.103 0.133     44.710 0.00 1 1 7.072 7.258 7.349 7.110 7.277 6.885 6.897 0.7840 7.023 7.212 7.305 7.013 7.214 6.828 6.867 0.4280 207.70 0.02                       129.00   10.054 9.923 0.131 10.188 9.934 0.255
UPLMET_235 2018-09-30 00:45:00 235 46891.0 7.05 7.219 7.302 7.199 7.036 98.600 97.700 6.851 6.866 9.240 9.160 8.470 9.000 0.110 0.071 0.103 0.133     44.640 0.00 1 1 7.092 7.259 7.350 7.120 7.264 6.911 6.891 1.1850 6.997 7.167 7.261 6.966 7.165 6.773 6.837 0.8720 203.80 3.20                       129.00   10.051 9.916 0.141 10.156 9.926 0.234
UPLMET_235 2018-09-30 00:40:00 235 46891.0 7.03 7.186 7.289 7.226 7.000 98.500 97.400 6.810 6.853 9.250 9.160 8.470 9.000 0.110 0.071 0.103 0.133     44.690 0.00 1 1 7.056 7.216 7.330 7.069 7.265 6.838 6.867 0.8290 7.007 7.153 7.262 6.944 7.192 6.780 6.841 0.3760 276.50 4.86                       129.10   10.039 9.888 0.151 10.174 9.917 0.265
UPLMET_235 2018-09-30 00:35:00 235 46891.0 7.06 7.241 7.326 7.229 7.059 98.500 97.600 6.840 6.874 9.250 9.160 8.470 9.000 0.110 0.071 0.103 0.133     44.660 0.00 1 1 7.073 7.258 7.343 7.091 7.268 6.860 6.906 1.0510 7.040 7.215 7.290 7.007 7.172 6.821 6.828 0.6640 218.80 6.22                       129.10   10.057 9.908 0.151 10.177 9.932 0.244
UPLMET_235 2018-09-30 00:30:00 235 46891.0 7.06 7.204 7.289 7.199 6.997 98.400 98.100 6.838 6.929 9.250 9.160 8.470 9.000 0.110 0.071 0.103 0.133     44.670 0.00 1 1 7.083 7.215 7.302 7.009 7.212 6.856 6.942 0.7390 7.050 7.193 7.280 6.987 7.179 6.824 6.911 0.0900 210.40 0.00                       129.10   10.061 9.907 0.161 10.156 9.969 0.193
UPLMET_235 2018-09-30 00:25:00 235 46891.0 7.08 7.230 7.317 7.219 7.023 98.400 98.200 6.843 6.960 9.260 9.160 8.470 9.000 0.110 0.071 0.103 0.133     44.680 0.00 1 1 7.103 7.246 7.332 7.054 7.232 6.870 6.982 1.0420 7.043 7.208 7.302 6.958 7.202 6.812 6.931 0.4690 210.20 0.47                       129.20   10.070 9.910 0.161 10.170 9.990 0.183
UPLMET_235 2018-09-30 00:20:00 235 46891.0 7.08 7.211 7.301 7.225 7.009 98.200 98.000 6.818 6.942 9.260 9.160 8.470 9.000 0.110 0.071 0.103 0.133     44.630 0.00 1 1 7.099 7.220 7.314 7.033 7.268 6.831 6.970 0.9620 7.060 7.197 7.291 6.990 7.205 6.806 6.920 0.2860 208.20 0.02                       129.20   10.072 9.893 0.181 10.174 9.978 0.203
UPLMET_235 2018-09-30 00:15:00 235 46891.0 7.12 7.252 7.342 7.267 7.065 98.100 98.000 6.845 6.983 9.270 9.160 8.470 9.000 0.110 0.071 0.103 0.133     44.690 0.00 1 1 7.152 7.278 7.363 7.128 7.278 6.881 7.006 0.5430 7.083 7.217 7.314 7.014 7.251 6.809 6.952 0.1150 183.80 11.94                       129.20   10.098 9.912 0.192 10.203 10.006 0.204
UPLMET_235 2018-09-30 00:10:00 235 46891.0 7.15 7.256 7.324 7.261 7.089 98.000 98.100 6.867 6.986 9.270 9.160 8.470 9.000 0.110 0.071 0.103 0.133     44.610 0.00 1 1 7.172 7.280 7.353 7.157 7.288 6.896 7.020 0.6500 7.119 7.220 7.278 7.036 7.228 6.839 6.932 0.0930 169.30 0.78                       129.30   10.122 9.927 0.202 10.199 10.008 0.194
UPLMET_235 2018-09-30 00:05:00 235 46891.0 7.14 7.187 7.260 7.230 6.994 97.700 97.800 6.809 6.910 9.270 9.160 8.470 9.000 0.110 0.071 0.103 0.133     44.680 0.00 1 1 7.155 7.213 7.276 7.031 7.245 6.832 6.942 0.0000 7.122 7.172 7.250 6.964 7.218 6.788 6.892 0.0000 0.00 0.00                       129.30   10.113 9.887 0.233 10.177 9.956 0.224
UPLMET_235 2018-09-30 00:00:00 235 46891.0 7.18 7.220 7.293 7.253 6.966 97.700 97.700 6.840 6.917 9.280 9.160 8.470 9.000 0.110 0.071 0.103 0.133     44.640 0.00 1 1 7.208 7.254 7.328 7.001 7.291 6.874 6.960 0.0000 7.146 7.191 7.270 6.912 7.225 6.812 6.883 0.0000 0.00 0.00                       129.30   10.140 9.908 0.233 10.193 9.961 0.234
UPLMET_235 2018-09-29 23:55:00 235 46891.0 7.21 7.272 7.351 7.297 7.039 97.500 97.600 6.854 6.942 9.280 9.160 8.470 9.000 0.110 0.071 0.103 0.133     44.680 0.00 1 1 7.251 7.289 7.373 7.085 7.331 6.877 6.967 0.0000 7.185 7.259 7.332 7.005 7.261 6.831 6.917 0.0000 0.00 0.00                       129.40   10.166 9.918 0.254 10.224 9.978 0.245
UPLMET_235 2018-09-29 23:50:00 235 46891.0 7.30 7.348 7.424 7.364 7.111 97.400 97.300 6.923 6.968 9.290 9.160 8.470 9.000 0.110 0.071 0.103 0.133     44.670 0.00 1 1 7.327 7.387 7.460 7.193 7.413 6.953 7.008 0.4190 7.245 7.285 7.369 7.012 7.311 6.867 6.921 0.0510 155.50 0.01                       129.40   10.223 9.965 0.266 10.271 9.996 0.277
UPLMET_235 2018-09-29 23:45:00 235 46891.0 7.33 7.395 7.478 7.418 7.167 97.200 97.000 6.922 6.980 9.290 9.160 8.470 9.000 0.110 0.071 0.103 0.133     44.670 0.00 1 1 7.354 7.418 7.509 7.209 7.459 6.948 7.003 0.5260 7.304 7.372 7.459 7.128 7.383 6.899 6.948 0.1100 80.40 5.24                       129.40   10.244 9.964 0.287 10.309 10.004 0.309
UPLMET_235 2018-09-29 23:40:00 235 46891.0 7.39 7.446 7.546 7.500 7.202 96.800 96.500 6.921 6.989 9.290 9.160 8.470 9.000 0.110 0.071 0.103 0.133     44.690 0.00 1 1 7.450 7.487 7.589 7.276 7.562 6.951 7.012 0.6330 7.340 7.412 7.509 7.145 7.446 6.884 6.963 0.0870 45.24 10.30                       129.40   10.292 9.964 0.329 10.367 10.010 0.363
UPLMET_235 2018-09-29 23:35:00 235 46891.0 7.47 7.514 7.620 7.596 7.264 96.400 95.700 6.940 6.952 9.300 9.170 8.470 9.000 0.110 0.071 0.103 0.133     44.680 0.00 1 1 7.499 7.560 7.668 7.329 7.635 6.955 6.984 0.0000 7.440 7.486 7.585 7.216 7.545 6.924 6.928 0.0000 0.00 0.00                       129.50   10.344 9.977 0.372 10.435 9.985 0.449
UPLMET_235 2018-09-29 23:30:00 235 46891.0 7.55 7.612 7.717 7.673 7.341 96.100 95.000 6.970 6.933 9.300 9.170 8.470 9.000 0.110 0.071 0.103 0.133     44.660 0.00 1 1 7.602 7.666 7.769 7.463 7.708 7.003 6.961 0.0000 7.496 7.564 7.670 7.295 7.615 6.940 6.897 0.0000 0.00 0.00                       129.50   10.404 9.997 0.406 10.490 9.972 0.525
UPLMET_235 2018-09-29 23:25:00 235 46891.0 7.63 7.709 7.806 7.742 7.496 95.600 94.100 6.980 6.859 9.300 9.170 8.470 9.000 0.110 0.071 0.103 0.133     44.670 0.00 1 1 7.694 7.755 7.838 7.596 7.767 7.016 6.905 0.3300 7.588 7.666 7.770 7.445 7.704 6.959 6.785 0.0280 279.90 0.00                       129.50   10.462 10.004 0.460 10.540 9.921 0.622
UPLMET_235 2018-09-29 23:20:00 235 46891.0 7.73 7.817 7.883 7.787 7.613 95.300 93.900 7.031 6.878 9.310 9.170 8.470 9.000 0.110 0.071 0.103 0.133     44.640 0.00 1 1 7.757 7.852 7.913 7.719 7.810 7.058 6.926 0.9890 7.694 7.760 7.836 7.504 7.751 7.009 6.839 0.4400 301.80 15.37                       129.60   10.528 10.039 0.495 10.572 9.934 0.645
UPLMET_235 2018-09-29 23:15:00 235 46891.0 7.67 7.840 7.894 7.772 7.657 95.900 94.100 7.068 6.882 9.310 9.170 8.470 9.000 0.110 0.071 0.103 0.133     44.630 0.00 1 1 7.731 7.868 7.927 7.714 7.793 7.105 6.912 2.0310 7.618 7.818 7.874 7.606 7.760 7.021 6.850 0.7470 229.30 28.26                       129.60   10.490 10.065 0.430 10.562 9.937 0.623
UPLMET_235 2018-09-29 23:10:00 235 46891.0 7.56 7.819 7.891 7.787 7.679 97.400 94.200 7.188 6.925 9.310 9.170 8.470 9.000 0.110 0.071 0.103 0.133     44.640 0.00 1 1 7.625 7.864 7.931 7.822 7.816 7.241 6.979 2.2900 7.449 7.798 7.875 7.618 7.763 7.111 6.878 0.9480 256.90 35.24                       129.60   10.413 10.148 0.271 10.572 9.966 0.613
UPLMET_235 2018-09-29 23:05:00 235 46891.0 7.40 7.625 7.772 7.713 7.690 98.400 95.300 7.165 7.018 9.320 9.170 8.470 9.000 0.110 0.071 0.103 0.133     44.610 0.00 1 1 7.439 7.766 7.888 7.777 7.753 7.192 7.076 2.0310 7.384 7.595 7.728 7.596 7.674 7.145 6.925 0.3700 273.20 37.73                       129.70   10.298 10.132 0.165 10.519 10.030 0.494
UPLMET_235 2018-09-29 23:00:00 235 46891.0 7.41 7.603 7.715 7.670 7.530 98.600 96.500 7.209 7.149 9.320 9.170 8.470 9.000 0.110 0.071 0.103 0.133     44.630 0.00 1 1 7.433 7.619 7.727 7.660 7.691 7.229 7.183 0.0800 7.397 7.591 7.705 7.437 7.655 7.178 7.075 0.0080 188.10 0.75                       129.70   10.306 10.163 0.144 10.488 10.121 0.367
UPLMET_235 2018-09-29 22:55:00 235 46891.0 7.40 7.609 7.717 7.653 7.539 98.800 96.800 7.225 7.177 9.330 9.170 8.470 9.000 0.110 0.071 0.103 0.133     44.640 0.00 1 1 7.437 7.635 7.749 7.601 7.688 7.258 7.199 0.9620 7.361 7.579 7.684 7.467 7.608 7.190 7.153 0.4410 215.90 17.81                       129.70   10.296 10.174 0.124 10.476 10.140 0.335
UPLMET_235 2018-09-29 22:50:00 235 46891.0 7.33 7.521 7.630 7.551 7.455 98.900 97.600 7.168 7.206 9.330 9.170 8.470 9.000 0.110 0.071 0.103 0.133     44.590 0.00 1 1 7.367 7.583 7.684 7.591 7.618 7.204 7.219 1.3540 7.288 7.454 7.577 7.353 7.499 7.123 7.182 0.4500 225.10 29.34                       129.80   10.246 10.134 0.113 10.403 10.161 0.250
UPLMET_235 2018-09-29 22:45:00 235 46891.0 7.26 7.433 7.564 7.483 7.326 98.800 97.900 7.093 7.184 9.330 9.170 8.470 9.000 0.110 0.071 0.103 0.133     44.560 0.00 1 1 7.295 7.449 7.574 7.346 7.506 7.134 7.213 0.9350 7.232 7.419 7.555 7.315 7.443 7.064 7.144 0.2710 238.00 3.97                       129.80   10.197 10.082 0.122 10.355 10.145 0.217
UPLMET_235 2018-09-29 22:40:00 235 46891.0 7.24 7.405 7.517 7.441 7.277 98.800 98.000 7.076 7.155 9.330 9.170 8.470 9.000 0.110 0.071 0.103 0.133     44.620 0.00 1 1 7.271 7.419 7.553 7.324 7.463 7.113 7.187 0.8910 7.225 7.392 7.491 7.227 7.403 7.060 7.097 0.5550 230.10 21.80                       129.90   10.184 10.070 0.122 10.325 10.125 0.207
UPLMET_235 2018-09-29 22:35:00 235 46891.0 7.21 7.365 7.468 7.423 7.171 98.800 97.600 7.041 7.068 9.340 9.170 8.470 9.000 0.110 0.071 0.103 0.133     44.670 0.00 1 1 7.225 7.396 7.497 7.266 7.463 7.063 7.109 0.8820 7.199 7.347 7.452 7.135 7.400 7.024 7.033 0.3530 224.20 6.44                       129.90   10.165 10.046 0.122 10.313 10.065 0.248
UPLMET_235 2018-09-29 22:30:00 235 46891.0 7.21 7.388 7.498 7.428 7.239 98.900 97.200 7.048 7.022 9.340 9.170 8.470 9.000 0.110 0.071 0.103 0.133     44.680 0.00 1 1 7.258 7.406 7.509 7.262 7.446 7.099 7.077 0.8020 7.188 7.374 7.483 7.207 7.400 7.024 6.973 0.4200 216.00 3.70                       129.90   10.163 10.051 0.112 10.316 10.033 0.289
UPLMET_235 2018-09-29 22:25:00 235 46891.0 7.20 7.377 7.465 7.376 7.204 98.900 97.500 7.043 7.008 9.340 9.170 8.470 9.000 0.110 0.071 0.103 0.133     44.630 0.00 1 1 7.212 7.385 7.485 7.221 7.413 7.061 7.043 1.2470 7.182 7.368 7.438 7.186 7.334 7.029 6.969 0.7840 228.00 5.32                       130.00   10.154 10.048 0.112 10.280 10.023 0.257
UPLMET_235 2018-09-29 22:20:00 235 46891.0 7.16 7.350 7.419 7.316 7.156 99.000 97.900 7.017 7.012 9.350 9.170 8.470 9.000 0.110 0.071 0.103 0.133     44.610 0.00 1 1 7.192 7.368 7.437 7.189 7.341 7.045 7.028 1.1230 7.142 7.327 7.404 7.138 7.284 6.991 6.989 0.7640 217.70 2.12                       130.00   10.131 10.030 0.101 10.237 10.026 0.215
UPLMET_235 2018-09-29 22:15:00 235 46891.0 7.11 7.300 7.372 7.275 7.116 98.900 98.200 6.954 7.017 9.350 9.170 8.470 9.000 0.110 0.071 0.103 0.133     44.570 0.00 1 1 7.135 7.327 7.403 7.145 7.294 6.987 7.036 1.1140 7.056 7.241 7.318 7.069 7.237 6.889 6.970 0.9190 215.50 0.14                       130.00   10.093 9.986 0.111 10.209 10.030 0.184
UPLMET_235 2018-09-29 22:10:00 235 46891.0 7.05 7.227 7.317 7.253 7.007 98.800 98.000 6.884 6.958 9.350 9.170 8.470 9.000 0.110 0.071 0.103 0.133     44.650 0.00 1 1 7.079 7.267 7.367 7.091 7.287 6.911 6.995 0.8370 7.033 7.200 7.289 6.972 7.221 6.860 6.924 0.4920 215.40 0.32                       130.10   10.056 9.938 0.121 10.193 9.989 0.204
UPLMET_235 2018-09-29 22:05:00 235 46891.0 7.07 7.271 7.370 7.278 7.091 98.800 98.000 6.906 6.989 9.360 9.170 8.470 9.000 0.110 0.071 0.103 0.133     44.650 0.00 1 1 7.099 7.288 7.379 7.121 7.293 6.933 7.006 1.4970 7.059 7.257 7.365 7.068 7.254 6.887 6.971 0.8140 206.30 11.00                       130.10   10.069 9.953 0.121 10.211 10.010 0.204
UPLMET_235 2018-09-29 22:00:00 235 46891.0 7.04 7.219 7.328 7.243 7.036 98.700 98.100 6.864 6.975 9.360 9.170 8.470 9.000 0.110 0.071 0.103 0.133     44.570 0.00 1 1 7.072 7.264 7.361 7.098 7.274 6.903 6.997 1.4430 7.022 7.207 7.313 7.013 7.221 6.833 6.937 0.9270 228.80 16.21                       130.20   10.048 9.925 0.131 10.186 10.001 0.194
UPLMET_235 2018-09-29 21:55:00 235 46891.0 7.05 7.225 7.338 7.257 7.045 98.700 98.100 6.874 6.983 9.360 9.170 8.470 9.000 0.110 0.071 0.103 0.133     44.700 0.00 1 1 7.078 7.237 7.347 7.064 7.280 6.902 7.006 1.3450 7.032 7.205 7.329 7.024 7.237 6.849 6.962 0.8540 245.20 14.75                       130.20   10.054 9.932 0.131 10.196 10.006 0.194
UPLMET_235 2018-09-29 21:50:00 235 46891.0 7.03 7.221 7.337 7.257 7.064 98.700 98.100 6.842 6.976 9.360 9.170 8.470 9.000 0.110 0.071 0.103 0.133     44.630 0.00 1 1 7.065 7.235 7.346 7.075 7.283 6.886 7.009 0.8290 7.002 7.201 7.316 7.046 7.230 6.814 6.947 0.5490 220.80 0.07                       130.20   10.037 9.910 0.130 10.196 10.001 0.194
UPLMET_235 2018-09-29 21:45:00 235 46891.0 6.98 7.158 7.269 7.196 6.978 98.500 98.000 6.772 6.906 9.370 9.170 8.470 9.000 0.110 0.071 0.103 0.133     44.630 0.00 1 1 7.009 7.204 7.314 7.040 7.243 6.817 6.963 1.5060 6.956 7.119 7.228 6.900 7.167 6.738 6.863 1.1540 227.20 5.10                       130.30   10.004 9.862 0.150 10.154 9.953 0.203
UPLMET_235 2018-09-29 21:40:00 235 46891.0 7.01 7.198 7.310 7.247 6.987 98.500 98.000 6.791 6.957 9.370 9.170 8.470 9.000 0.110 0.071 0.103 0.133     44.600 0.00 1 1 7.055 7.247 7.356 7.066 7.276 6.841 7.013 1.4610 6.962 7.140 7.237 6.909 7.193 6.738 6.874 0.9870 232.00 0.09                       130.30   10.023 9.875 0.150 10.189 9.988 0.204
UPLMET_235 2018-09-29 21:35:00 235 46891.0 7.04 7.194 7.303 7.238 7.022 98.400 98.300 6.809 6.999 9.370 9.170 8.470 9.000 0.110 0.071 0.103 0.133     44.660 0.00 1 1 7.055 7.221 7.329 7.066 7.266 6.834 7.024 1.3990 7.021 7.161 7.270 6.951 7.203 6.791 6.967 1.0210 225.30 2.26                       130.30   10.043 9.887 0.161 10.183 10.017 0.173
UPLMET_235 2018-09-29 21:30:00 235 46891.0 7.07 7.192 7.304 7.239 6.976 98.300 98.300 6.829 6.997 9.370 9.170 8.470 9.000 0.110 0.071 0.103 0.133     44.640 0.00 1 1 7.111 7.247 7.341 7.040 7.273 6.876 7.029 1.2830 7.031 7.162 7.265 6.920 7.210 6.788 6.972 0.9910 224.40 0.59                       130.40   10.066 9.901 0.171 10.184 10.016 0.173
UPLMET_235 2018-09-29 21:25:00 235 46891.0 7.11 7.249 7.335 7.244 7.046 98.300 98.200 6.866 6.979 9.370 9.170 8.470 9.000 0.110 0.071 0.103 0.133     44.620 0.00 1 1 7.124 7.257 7.347 7.059 7.266 6.882 7.018 1.0330 7.101 7.240 7.320 7.025 7.223 6.848 6.945 0.7580 229.30 0.59                       130.40   10.097 9.926 0.172 10.187 10.004 0.183
UPLMET_235 2018-09-29 21:20:00 235 46891.0 7.14 7.252 7.329 7.250 7.016 98.200 98.000 6.881 6.955 9.380 9.170 8.470 9.000 0.110 0.071 0.103 0.133     44.610 0.00 1 1 7.180 7.289 7.360 7.044 7.273 6.918 6.969 1.0510 7.108 7.232 7.319 6.982 7.220 6.847 6.925 0.8120 229.50 0.06                       130.50   10.117 9.936 0.182 10.191 9.987 0.204
UPLMET_235 2018-09-29 21:15:00 235 46891.0 7.18 7.312 7.379 7.289 7.076 98.100 97.800 6.916 6.969 9.380 9.170 8.470 9.000 0.110 0.071 0.103 0.133     44.640 0.00 1 1 7.207 7.320 7.390 7.087 7.313 6.936 6.986 1.0420 7.157 7.296 7.364 7.052 7.266 6.892 6.954 0.6320 229.30 0.03                       130.50   10.145 9.960 0.193 10.219 9.997 0.225
UPLMET_235 2018-09-29 21:10:00 235 46891.0 7.21 7.343 7.417 7.330 7.096 98.000 97.500 6.922 6.961 9.380 9.170 8.470 9.000 0.110 0.071 0.103 0.133     44.630 0.00 1 1 7.253 7.382 7.457 7.140 7.352 6.960 6.971 1.1490 7.184 7.317 7.389 7.078 7.293 6.904 6.949 0.3990 229.20 0.10                       130.60   10.163 9.964 0.203 10.247 9.991 0.256
UPLMET_235 2018-09-29 21:05:00 235 46891.0 7.27 7.401 7.466 7.365 7.154 97.900 97.300 6.967 6.965 9.380 9.170 8.470 9.000 0.110 0.071 0.103 0.133     44.620 0.00 1 1 7.296 7.414 7.472 7.169 7.395 7.003 6.987 1.4250 7.236 7.384 7.455 7.140 7.335 6.946 6.949 1.2060 231.60 3.50                       130.60   10.205 9.995 0.214 10.272 9.994 0.277
UPLMET_235 2018-09-29 21:00:00 235 46891.0 7.33 7.427 7.494 7.428 7.145 97.700 97.100 6.986 7.008 9.380 9.170 8.470 9.000 0.110 0.071 0.103 0.133     44.570 0.00 1 1 7.388 7.463 7.529 7.166 7.477 7.035 7.059 1.3010 7.286 7.401 7.471 7.137 7.385 6.956 6.959 0.9490 247.70 12.22                       130.60   10.245 10.008 0.236 10.316 10.023 0.299
UPLMET_235 2018-09-29 20:55:00 235 46891.0 7.46 7.538 7.591 7.541 7.226 97.600 97.200 7.108 7.126 9.380 9.170 8.470 9.000 0.110 0.071 0.103 0.133     44.670 0.00 1 1 7.520 7.603 7.665 7.272 7.620 7.183 7.206 0.9890 7.378 7.470 7.533 7.173 7.474 7.024 7.047 0.6660 269.70 0.02                       130.70   10.337 10.093 0.248 10.396 10.105 0.291
UPLMET_235 2018-09-29 20:50:00 235 46891.0 7.55 7.650 7.718 7.654 7.402 97.600 96.900 7.206 7.195 9.390 9.170 8.460 9.000 0.110 0.071 0.103 0.133     44.620 0.00 1 1 7.563 7.666 7.740 7.437 7.689 7.222 7.222 0.0000 7.524 7.614 7.671 7.286 7.623 7.189 7.167 0.0000 0.00 0.00                       130.70   10.403 10.161 0.250 10.477 10.153 0.325
UPLMET_235 2018-09-29 20:45:00 235 46891.0 7.59 7.695 7.774 7.723 7.442 97.500 96.600 7.227 7.220 9.390 9.170 8.460 9.000 0.110 0.071 0.103 0.133     44.640 0.00 1 1 7.616 7.716 7.806 7.490 7.768 7.255 7.275 0.5970 7.560 7.669 7.743 7.394 7.676 7.196 7.162 0.1840 270.10 0.62                       130.80   10.430 10.175 0.261 10.526 10.170 0.358
UPLMET_235 2018-09-29 20:40:00 235 46891.0 7.61 7.728 7.833 7.794 7.508 97.300 96.400 7.215 7.262 9.390 9.170 8.470 9.000 0.110 0.071 0.103 0.133     44.670 0.00 1 1 7.643 7.742 7.853 7.548 7.831 7.235 7.281 0.8820 7.590 7.714 7.808 7.474 7.751 7.190 7.236 0.3340 272.90 0.19                       130.80   10.448 10.167 0.282 10.577 10.200 0.381
UPLMET_235 2018-09-29 20:35:00 235 46891.0 7.63 7.764 7.875 7.855 7.534 96.700 95.400 7.150 7.176 9.390 9.170 8.460 9.000 0.110 0.071 0.103 0.133     44.660 0.00 1 1 7.649 7.794 7.910 7.569 7.903 7.198 7.227 0.9620 7.606 7.743 7.850 7.503 7.811 7.100 7.117 0.5560 263.00 16.00                       130.90   10.458 10.122 0.345 10.622 10.140 0.489
UPLMET_235 2018-09-29 20:30:00 235 46891.0 7.66 7.830 7.958 7.962 7.600 95.700 93.800 7.024 7.031 9.390 9.170 8.460 9.000 0.110 0.071 0.103 0.133     44.610 0.00 1 1 7.695 7.874 8.010 7.675 8.000 7.102 7.119 0.9270 7.646 7.790 7.912 7.546 7.920 6.938 6.927 0.5350 232.80 0.02                       130.90   10.485 10.034 0.451 10.699 10.039 0.663
UPLMET_235 2018-09-29 20:25:00 235 46891.0 7.69 7.907 8.010 7.977 7.782 94.600 92.300 6.890 6.809 9.390 9.170 8.460 9.010 0.110 0.071 0.103 0.133     44.600 0.00 1 1 7.741 7.934 8.040 7.844 8.020 6.951 6.928 0.6860 7.659 7.871 7.974 7.682 7.917 6.838 6.734 0.3230 232.80 0.00                       131.00   10.504 9.943 0.567 10.710 9.887 0.825
UPLMET_235 2018-09-29 20:20:00 235 46891.0 7.66 7.862 7.990 7.949 7.680 94.300 92.000 6.819 6.729 9.390 9.170 8.460 9.010 0.110 0.071 0.103 0.133     44.630 0.00 1 1 7.689 7.882 8.020 7.761 7.993 6.849 6.751 0.4010 7.639 7.842 7.965 7.618 7.900 6.776 6.701 0.1150 232.80 0.00                       131.00   10.483 9.894 0.598 10.690 9.833 0.855
UPLMET_235 2018-09-29 20:15:00 235 46891.0 7.64 7.811 7.985 7.991 7.710 94.100 91.500 6.762 6.705 9.390 9.170 8.460 9.010 0.110 0.071 0.103 0.133     44.580 0.00 1 1 7.656 7.876 8.020 7.762 8.030 6.787 6.728 0.4630 7.613 7.768 7.966 7.665 7.970 6.736 6.691 0.2690 235.60 0.96                       131.00   10.465 9.855 0.617 10.720 9.817 0.911
UPLMET_235 2018-09-29 20:10:00 235 46891.0 7.67 7.824 8.040 8.070 7.722 93.800 91.200 6.744 6.719 9.390 9.170 8.460 9.010 0.110 0.071 0.103 0.133     44.550 0.00 1 1 7.705 7.881 8.090 7.779 8.120 6.768 6.739 0.2490 7.645 7.775 7.989 7.679 8.020 6.703 6.698 0.0870 236.10 0.00                       131.10   10.491 9.843 0.650 10.778 9.826 0.948
UPLMET_235 2018-09-29 20:05:00 235 46891.0 7.74 7.958 8.150 8.180 7.833 93.200 90.500 6.718 6.720 9.390 9.170 8.460 9.000 0.110 0.071 0.103 0.133     44.680 0.00 1 1 7.784 8.030 8.210 7.924 8.220 6.737 6.744 0.2140 7.695 7.886 8.100 7.769 8.130 6.702 6.702 0.0130 164.60 4.48                       131.10   10.535 9.826 0.716 10.859 9.827 1.032
UPLMET_235 2018-09-29 20:00:00 235 46891.0 7.82 8.090 8.230 8.190 8.020 92.900 90.400 6.750 6.723 9.390 9.170 8.460 9.010 0.110 0.071 0.103 0.133     44.740 0.00 1 1 7.853 8.140 8.250 8.110 8.210 6.800 6.735 0.0000 7.781 8.040 8.200 7.925 8.150 6.713 6.704 0.0000 0.00 0.00                       131.20   10.597 9.847 0.752 10.867 9.829 1.043
UPLMET_235 2018-09-29 19:55:00 235 46891.0 7.78 8.030 8.170 8.130 8.030 93.200 90.800 6.755 6.727 9.390 9.170 8.460 9.010 0.110 0.071 0.103 0.133     44.590 0.00 1 1 7.817 8.070 8.200 8.070 8.170 6.777 6.742 0.1510 7.735 7.967 8.120 7.962 8.090 6.706 6.709 0.0150 151.20 0.00                       131.20   10.567 9.851 0.719 10.822 9.832 0.996
UPLMET_235 2018-09-29 19:50:00 235 46891.0 7.66 7.864 8.030 8.020 7.889 94.000 91.400 6.767 6.712 9.390 9.170 8.460 9.010 0.110 0.071 0.103 0.133     44.640 0.00 1 1 7.738 7.957 8.110 7.963 8.080 6.819 6.731 0.5790 7.602 7.770 7.965 7.782 7.982 6.708 6.685 0.3270 145.00 8.49                       131.30   10.483 9.859 0.629 10.742 9.822 0.924
UPLMET_235 2018-09-29 19:45:00 235 46891.0 7.63 7.800 7.983 8.040 7.696 93.900 91.200 6.719 6.701 9.390 9.170 8.460 9.010 0.110 0.071 0.103 0.133     44.580 0.00 1 1 7.651 7.846 8.020 7.895 8.110 6.741 6.713 0.8550 7.596 7.764 7.950 7.619 7.992 6.695 6.675 0.0990 199.30 35.97                       131.30   10.458 9.826 0.638 10.756 9.814 0.947
UPLMET_235 2018-09-29 19:40:00 235 46891.0 7.72 7.982 8.180 8.270 7.764 93.100 89.800 6.683 6.702 9.390 9.170 8.460 9.010 0.110 0.071 0.103 0.133     44.610 0.00 1 1 7.790 8.140 8.350 8.120 8.360 6.745 6.729 0.8370 7.628 7.850 8.020 7.584 8.110 6.638 6.671 0.2460 221.90 0.19                       131.40   10.521 9.802 0.726 10.926 9.815 1.114
UPLMET_235 2018-09-29 19:35:00 235 46891.0 7.76 8.110 8.290 8.310 8.040 93.400 89.600 6.758 6.709 9.390 9.170 8.460 9.010 0.110 0.071 0.103 0.133     44.630 0.00 1 1 7.797 8.170 8.350 8.150 8.350 6.830 6.737 0.9000 7.684 7.995 8.230 7.866 8.270 6.720 6.688 0.7090 224.40 4.95                       131.50   10.549 9.853 0.696 10.956 9.820 1.139
UPLMET_235 2018-09-29 19:30:00 235 46891.0 7.73 8.060 8.290 8.310 7.950 93.400 89.800 6.738 6.731 9.390 9.170 8.460 9.010 0.110 0.071 0.103 0.133     44.650 0.00 1 1 7.764 8.110 8.340 8.020 8.320 6.767 6.746 0.6770 7.687 7.995 8.230 7.852 8.280 6.708 6.717 0.4140 235.90 0.02                       131.50   10.530 9.839 0.695 10.956 9.834 1.117
UPLMET_235 2018-09-29 19:25:00 235 46891.0 7.66 8.060 8.270 8.230 8.130 94.200 90.300 6.789 6.740 9.380 9.170 8.460 9.010 0.110 0.071 0.103 0.133     44.710 0.00 1 1 7.757 8.200 8.380 8.300 8.340 6.838 6.755 0.7660 7.515 7.819 8.100 7.838 8.110 6.696 6.716 0.4100 236.40 0.17                       131.60   10.478 9.874 0.608 10.896 9.841 1.057
UPLMET_235 2018-09-29 19:20:00 235 46891.0 7.55 7.833 8.050 8.080 7.803 94.700 91.100 6.759 6.727 9.380 9.170 8.460 9.010 0.110 0.071 0.103 0.133     44.590 0.00 1 1 7.568 7.876 8.090 7.885 8.120 6.796 6.751 0.6410 7.512 7.783 8.000 7.655 8.050 6.690 6.706 0.2850 236.60 0.02                       131.60   10.399 9.853 0.551 10.786 9.832 0.960
UPLMET_235 2018-09-29 19:15:00 235 46891.0 7.55 7.838 8.080 8.140 7.761 94.900 90.900 6.785 6.744 9.380 9.170 8.460 9.010 0.110 0.071 0.103 0.133     44.630 0.00 1 1 7.568 7.896 8.150 7.864 8.190 6.827 6.770 0.4630 7.522 7.783 8.010 7.662 8.080 6.743 6.720 0.0840 236.60 0.00                       131.70   10.401 9.871 0.530 10.830 9.843 0.986
UPLMET_235 2018-09-29 19:10:00 235 46891.0 7.50 7.843 8.130 8.160 7.900 95.200 90.700 6.783 6.727 9.380 9.170 8.460 9.010 0.110 0.071 0.103 0.133     44.640 0.00 1 1 7.532 7.885 8.150 7.947 8.180 6.807 6.741 0.7750 7.442 7.780 8.050 7.865 8.090 6.750 6.707 0.5740 229.40 10.16                       131.70   10.366 9.870 0.498 10.844 9.832 1.009
UPLMET_235 2018-09-29 19:05:00 235 46891.0 7.39 7.641 7.912 7.984 7.620 95.300 91.500 6.692 6.695 9.380 9.170 8.460 9.010 0.110 0.071 0.103 0.133     44.690 0.00 1 1 7.459 7.774 8.030 7.871 8.070 6.789 6.726 0.7570 7.359 7.583 7.867 7.442 7.924 6.642 6.661 0.4620 214.10 0.43                       131.80   10.291 9.808 0.484 10.715 9.810 0.911
UPLMET_235 2018-09-29 19:00:00 235 46891.0 7.38 7.640 7.903 7.906 7.639 95.500 92.100 6.723 6.713 9.370 9.170 8.460 9.010 0.110 0.071 0.103 0.133     44.580 0.00 1 1 7.408 7.666 7.948 7.762 7.997 6.781 6.734 0.4010 7.358 7.604 7.858 7.504 7.838 6.640 6.688 0.0880 214.50 0.01                       131.90   10.284 9.829 0.463 10.659 9.822 0.842
UPLMET_235 2018-09-29 18:55:00 235 46891.0 7.27 7.546 7.763 7.768 7.526 96.000 92.700 6.674 6.665 9.370 9.170 8.460 9.010 0.110 0.071 0.103 0.133     44.680 0.00 1 1 7.355 7.631 7.854 7.690 7.857 6.755 6.725 1.1230 7.183 7.445 7.690 7.337 7.695 6.576 6.589 0.4560 204.40 11.68                       131.90   10.205 9.796 0.408 10.559 9.790 0.771
UPLMET_235 2018-09-29 18:50:00 235 46891.0 7.18 7.458 7.721 7.721 7.416 96.000 92.900 6.588 6.646 9.370 9.170 8.460 9.010 0.110 0.071 0.103 0.133     44.640 0.00 1 1 7.213 7.482 7.759 7.486 7.774 6.616 6.691 0.8200 7.133 7.426 7.679 7.343 7.675 6.528 6.608 0.3780 271.30 0.02                       132.00   10.140 9.738 0.406 10.525 9.777 0.747
UPLMET_235 2018-09-29 18:45:00 235 46891.0 7.10 7.401 7.616 7.586 7.474 96.300 93.600 6.567 6.631 9.370 9.170 8.460 9.010 0.110 0.071 0.103 0.133     44.630 0.00 1 1 7.159 7.495 7.710 7.555 7.681 6.628 6.669 0.6410 7.004 7.159 7.390 7.288 7.440 6.451 6.547 0.3410 271.80 1.07                       132.00   10.090 9.724 0.373 10.428 9.767 0.667
UPLMET_235 2018-09-29 18:40:00 235 46891.0 6.96 7.079 7.304 7.409 7.161 96.000 93.600 6.363 6.451 9.370 9.170 8.460 9.010 0.110 0.071 0.103 0.133     44.670 0.00 1 1 6.994 7.127 7.367 7.249 7.420 6.429 6.518 0.4720 6.921 7.056 7.280 7.047 7.394 6.289 6.420 0.1060 274.40 0.01                       132.10   9.988 9.588 0.400 10.303 9.647 0.659
UPLMET_235 2018-09-29 18:35:00 235 46891.0 6.95 7.118 7.376 7.428 6.995 96.000 93.500 6.366 6.460 9.360 9.170 8.460 9.010 0.110 0.071 0.103 0.133     44.690 0.00 1 1 6.986 7.203 7.465 7.131 7.452 6.475 6.515 0.2580 6.927 7.062 7.313 6.876 7.413 6.306 6.425 0.0160 274.40 0.00                       132.20   9.986 9.590 0.399 10.316 9.653 0.671
UPLMET_235 2018-09-29 18:30:00 235 46891.0 6.94 7.142 7.423 7.385 7.200 96.700 94.000 6.450 6.482 9.360 9.170 8.460 9.010 0.110 0.071 0.103 0.133     44.650 0.00 1 1 7.003 7.234 7.483 7.263 7.442 6.500 6.521 0.9090 6.886 7.049 7.355 7.124 7.322 6.415 6.423 0.6100 275.40 0.87                       132.30   9.974 9.646 0.329 10.286 9.667 0.617
UPLMET_235 2018-09-29 18:25:00 235 46891.0 6.84 7.007 7.315 7.286 7.145 96.900 94.100 6.384 6.413 9.360 9.170 8.460 9.010 0.110 0.071 0.103 0.133     44.640 0.00 1 1 6.906 7.046 7.362 7.211 7.339 6.445 6.443 0.9980 6.777 6.975 7.248 7.051 7.233 6.325 6.361 0.6660 267.40 14.19                       132.30   9.907 9.602 0.307 10.216 9.621 0.603
UPLMET_235 2018-09-29 18:20:00 235 46891.0 6.69 6.906 7.199 7.222 6.989 96.800 94.000 6.232 6.320 9.360 9.170 8.460 9.010 0.110 0.071 0.103 0.133     44.580 0.00 1 1 6.780 6.977 7.244 7.058 7.246 6.334 6.362 0.4370 6.608 6.853 7.143 6.867 7.179 6.113 6.250 0.1480 238.60 2.82                       132.40   9.808 9.502 0.314 10.172 9.560 0.610
UPLMET_235 2018-09-29 18:15:00 235 46891.0 6.57 6.849 7.147 7.225 6.871 96.200 93.600 6.014 6.262 9.350 9.170 8.460 9.010 0.110 0.071 0.103 0.133     44.650 0.00 1 1 6.618 6.873 7.185 6.984 7.258 6.114 6.305 0.5970 6.561 6.834 7.091 6.768 7.179 5.953 6.227 0.2680 224.10 1.09                       132.50   9.729 9.360 0.370 10.174 9.522 0.651
UPLMET_235 2018-09-29 18:10:00 235 46891.0 6.62 6.876 7.052 7.141 6.847 96.100 93.900 6.055 6.233 9.350 9.170 8.460 9.010 0.110 0.071 0.103 0.133     44.600 0.00 1 1 6.663 6.934 7.139 6.961 7.205 6.125 6.304 0.8910 6.578 6.810 6.952 6.734 7.059 5.969 6.145 0.6660 218.30 5.40                       132.60   9.762 9.386 0.381 10.115 9.502 0.617
UPLMET_235 2018-09-29 18:05:00 235 46891.0 6.64 6.817 6.988 7.187 6.608 95.200 92.800 5.933 6.099 9.350 9.170 8.460 9.010 0.110 0.071 0.103 0.133     44.650 0.00 1 1 6.695 6.909 7.135 6.720 7.349 6.025 6.165 0.3030 6.600 6.782 6.939 6.556 7.079 5.869 6.055 0.0310 212.00 0.01                       132.60   9.772 9.307 0.469 10.147 9.415 0.731
UPLMET_235 2018-09-29 18:00:00 235 46891.0 6.87 7.124 7.322 7.446 6.970 95.000 92.600 6.128 6.334 9.350 9.180 8.460 9.010 0.110 0.071 0.103 0.133     44.620 0.00 1 1 6.949 7.190 7.367 7.090 7.518 6.190 6.369 0.7390 6.732 6.936 7.166 6.662 7.376 5.942 6.230 0.4460 212.00 0.00                       132.70   9.927 9.434 0.496 10.329 9.569 0.764
UPLMET_235 2018-09-29 17:55:00 235 46891.0 7.05 7.304 7.512 7.656 7.129 94.300 91.900 6.202 6.424 9.340 9.180 8.460 9.010 0.110 0.071 0.103 0.133     44.760 0.00 1 1 7.203 7.494 7.696 7.495 7.742 6.394 6.522 0.7570 6.966 7.196 7.374 6.996 7.521 6.054 6.354 0.3210 212.00 0.09                       132.80   10.056 9.482 0.573 10.478 9.629 0.849
UPLMET_235 2018-09-29 17:50:00 235 46891.0 7.22 7.472 7.639 7.678 7.359 94.100 92.400 6.348 6.527 9.340 9.180 8.460 9.010 0.110 0.071 0.103 0.133     44.660 0.00 1 1 7.295 7.509 7.669 7.520 7.722 6.425 6.562 0.9620 7.186 7.437 7.606 7.191 7.645 6.288 6.447 0.7110 211.40 0.60                       132.90   10.172 9.578 0.600 10.494 9.697 0.798
UPLMET_235 2018-09-29 17:45:00 235 46891.0 7.44 7.607 7.764 7.836 7.372 93.300 91.800 6.440 6.589 9.340 9.180 8.460 9.010 0.110 0.071 0.103 0.133     44.750 0.00 1 1 7.569 7.685 7.856 7.437 7.965 6.496 6.661 0.6680 7.312 7.485 7.656 7.211 7.688 6.355 6.447 0.5160 212.30 0.03                       133.00   10.325 9.639 0.692 10.608 9.739 0.870
UPLMET_235 2018-09-29 17:40:00 235 46891.0 7.77 7.868 8.000 8.070 7.610 92.200 91.400 6.588 6.749 9.340 9.180 8.460 9.010 0.110 0.071 0.103 0.133     44.650 0.00 1 1 7.932 8.020 8.130 7.739 8.160 6.723 6.816 0.7390 7.566 7.698 7.872 7.456 7.992 6.422 6.698 0.3240 212.30 0.00                       133.10   10.559 9.738 0.824 10.778 9.847 0.927
UPLMET_235 2018-09-29 17:35:00 235 46891.0 8.06 8.090 8.200 8.190 7.838 91.400 91.100 6.754 6.831 9.330 9.180 8.460 9.010 0.110 0.071 0.103 0.133     44.720 0.00 1 1 8.230 8.160 8.260 7.886 8.260 6.830 6.859 0.9000 7.929 8.030 8.140 7.758 8.150 6.704 6.796 0.6920 204.60 11.07                       133.20   10.771 9.850 0.926 10.867 9.902 0.967
UPLMET_235 2018-09-29 17:30:00 235 46891.0 8.43 8.270 8.340 8.360 7.931 89.500 90.100 6.802 6.845 9.330 9.180 8.460 9.010 0.110 0.071 0.103 0.133     44.700 0.00 1 1 8.640 8.400 8.440 8.030 8.470 6.859 6.898 0.5520 8.230 8.170 8.260 7.863 8.260 6.759 6.793 0.1480 66.99 50.14                       133.40   11.045 9.883 1.160 10.993 9.912 1.088
UPLMET_235 2018-09-29 17:25:00 235 46891.0 8.74 8.510 8.540 8.540 8.140 88.000 89.300 6.876 6.887 9.330 9.180 8.460 9.010 0.110 0.071 0.103 0.133     44.710 0.00 1 1 8.830 8.610 8.630 8.230 8.610 6.926 6.910 0.3300 8.660 8.410 8.450 8.040 8.470 6.825 6.871 0.0310 38.25 0.00                       133.50   11.280 9.933 1.354 11.128 9.941 1.191
UPLMET_235 2018-09-29 17:20:00 235 46891.0 8.90 8.730 8.730 8.690 8.320 87.700 88.600 6.971 6.915 9.330 9.180 8.460 9.010 0.110 0.071 0.103 0.133     44.640 0.00 1 1 8.960 8.810 8.800 8.430 8.740 7.005 6.932 0.4810 8.830 8.620 8.630 8.200 8.610 6.910 6.900 0.0900 38.25 0.01                       133.60   11.402 9.998 1.403 11.242 9.960 1.282
UPLMET_235 2018-09-29 17:15:00 235 46891.0 8.96 8.860 8.850 8.780 8.450 87.400 88.100 6.985 6.926 9.330 9.180 8.460 9.010 0.110 0.071 0.103 0.133     44.790 0.00 1 1 8.980 8.910 8.900 8.480 8.830 7.006 6.948 0.0000 8.930 8.810 8.800 8.430 8.750 6.960 6.910 0.0000 0.00 0.00                       133.70   11.449 10.008 1.443 11.310 9.967 1.346
UPLMET_235 2018-09-29 17:10:00 235 46891.0 9.03 8.980 8.980 8.890 8.520 87.100 87.600 7.009 6.950 9.320 9.180 8.460 9.010 0.110 0.071 0.103 0.133     44.650 0.00 1 1 9.080 9.050 9.060 8.600 8.950 7.053 6.997 0.9890 8.980 8.920 8.910 8.480 8.840 6.972 6.917 0.3090 36.92 4.09                       133.90   11.503 10.024 1.484 11.395 9.984 1.413
UPLMET_235 2018-09-29 17:05:00 235 46891.0 9.09 9.080 9.080 8.950 8.660 86.700 87.200 7.005 6.945 9.320 9.180 8.460 9.010 0.110 0.071 0.103 0.133     44.680 0.00 1 1 9.140 9.120 9.110 8.680 8.980 7.069 6.996 1.1760 9.060 9.060 9.060 8.610 8.930 6.960 6.887 0.2680 25.53 14.42                       134.00   11.550 10.021 1.536 11.441 9.980 1.464
UPLMET_235 2018-09-29 17:00:00 235 46891.0 9.19 9.190 9.170 9.020 8.750 86.100 86.800 6.992 6.934 9.320 9.180 8.460 9.010 0.110 0.071 0.103 0.133     44.720 0.00 1 1 9.230 9.230 9.190 8.800 9.040 7.082 7.024 0.7390 9.130 9.120 9.110 8.670 8.970 6.946 6.887 0.3020 42.13 24.76                       134.20   11.628 10.012 1.616 11.495 9.973 1.517
UPLMET_235 2018-09-29 16:55:00 235 46891.0 9.25 9.260 9.210 9.040 8.790 85.100 85.600 6.894 6.768 9.320 9.180 8.460 9.010 0.110 0.071 0.103 0.133     44.750 0.00 1 1 9.310 9.300 9.240 8.820 9.070 6.958 6.862 0.0000 9.220 9.230 9.190 8.770 9.020 6.837 6.697 0.0000 0.00 0.00                       134.30   11.675 9.945 1.740 11.511 9.860 1.658
UPLMET_235 2018-09-29 16:50:00 235 46891.0 9.40 9.380 9.320 9.150 8.820 84.500 85.300 6.933 6.824 9.320 9.180 8.460 9.010 0.110 0.071 0.103 0.133     44.680 0.00 1 1 9.490 9.470 9.390 8.890 9.210 7.043 6.907 0.6150 9.300 9.300 9.240 8.780 9.060 6.862 6.720 0.3140 84.10 1.33                       134.60   11.794 9.972 1.828 11.597 9.898 1.705
UPLMET_235 2018-09-29 16:45:00 235 46891.0 9.61 9.580 9.500 9.330 8.920 83.200 84.200 6.911 6.810 9.310 9.190 8.460 9.010 0.110 0.071 0.103 0.133     44.700 0.00 1 1 9.720 9.720 9.620 9.070 9.430 7.166 6.986 0.4900 9.490 9.470 9.390 8.820 9.220 6.805 6.719 0.2230 78.46 8.15                       134.90   11.962 9.957 2.010 11.738 9.888 1.855
UPLMET_235 2018-09-29 16:40:00 235 46891.0 9.77 9.810 9.700 9.460 9.080 82.600 83.800 6.965 6.855 9.310 9.190 8.460 9.010 0.110 0.071 0.103 0.133     44.680 0.00 1 1 9.830 9.900 9.770 9.180 9.480 7.085 6.897 0.3210 9.720 9.720 9.620 9.000 9.420 6.872 6.789 0.0590 65.06 0.88                       135.40   12.091 9.994 2.104 11.841 9.919 1.918
UPLMET_235 2018-09-29 16:35:00 235 46891.0 9.75 9.880 9.760 9.440 9.250 83.300 84.200 7.068 6.913 9.310 9.190 8.460 9.010 0.110 0.071 0.103 0.133     44.660 0.00 1 1 9.820 9.940 9.810 9.360 9.500 7.163 7.019 0.4990 9.690 9.830 9.700 9.160 9.370 6.969 6.810 0.0980 318.80 33.42                       136.40   12.075 10.065 2.016 11.826 9.958 1.868
UPLMET_235 2018-09-29 16:30:00 235 46891.0 9.60 9.700 9.600 9.330 9.010 82.900 83.900 6.853 6.755 9.310 9.190 8.460 9.010 0.110 0.071 0.103 0.133     44.680 0.00 1 1 9.670 9.810 9.690 9.170 9.370 6.986 6.852 1.1490 9.550 9.600 9.520 8.860 9.290 6.743 6.648 0.3240 339.80 45.49                       137.20   11.953 9.917 2.044 11.738 9.851 1.890
UPLMET_235 2018-09-29 16:25:00 235 46891.0 9.54 9.580 9.500 9.250 8.890 83.200 84.100 6.835 6.715 9.300 9.190 8.460 9.010 0.110 0.071 0.103 0.133     44.680 0.00 1 1 9.600 9.690 9.590 9.070 9.330 6.931 6.789 1.3630 9.480 9.480 9.440 8.730 9.190 6.734 6.665 0.3870 356.50 56.00                       137.80   11.905 9.905 2.000 11.675 9.824 1.856
UPLMET_235 2018-09-29 16:20:00 235 46891.0 9.59 9.680 9.590 9.300 8.940 83.200 84.200 6.882 6.785 9.300 9.190 8.460 9.010 0.110 0.071 0.103 0.133     44.820 0.00 1 1 9.610 9.740 9.640 9.160 9.340 7.232 7.033 1.4970 9.560 9.640 9.550 8.800 9.270 6.655 6.613 0.7640 26.32 37.17                       137.40   11.945 9.937 2.007 11.715 9.871 1.851
UPLMET_235 2018-09-29 16:15:00 235 46891.0 9.43 9.570 9.470 9.170 8.920 84.100 85.100 6.887 6.809 9.300 9.190 8.450 9.010 0.110 0.071 0.103 0.133     44.610 0.00 1 1 9.560 9.690 9.600 9.160 9.300 7.194 7.100 0.7040 9.330 9.450 9.350 8.700 9.060 6.669 6.609 0.1860 54.62 6.45                       136.80   11.818 9.941 1.879 11.612 9.887 1.730
UPLMET_235 2018-09-29 16:10:00 235 46891.0 9.23 9.330 9.240 8.960 8.750 84.100 84.900 6.696 6.571 9.300 9.190 8.450 9.010 0.110 0.071 0.103 0.133     44.570 0.00 1 1 9.330 9.430 9.340 8.830 9.050 6.804 6.673 1.1310 9.140 9.210 9.120 8.600 8.850 6.558 6.428 0.3760 51.29 47.98                       137.20   11.659 9.811 1.854 11.449 9.727 1.729
UPLMET_235 2018-09-29 16:05:00 235 46891.0 9.07 9.160 9.080 8.810 8.630 85.600 86.200 6.781 6.630 9.300 9.190 8.450 9.010 0.110 0.071 0.103 0.133     44.690 0.00 1 1 9.130 9.230 9.120 8.710 8.860 7.067 6.851 2.0220 8.980 9.080 9.010 8.570 8.750 6.499 6.418 0.8010 26.72 73.96                       136.80   11.534 9.868 1.661 11.333 9.766 1.564
UPLMET_235 2018-09-29 16:00:00 235 46891.0 8.85 8.940 8.880 8.650 8.440 86.500 87.100 6.729 6.638 9.300 9.190 8.450 9.010 0.110 0.071 0.103 0.133     44.710 0.00 1 1 8.960 9.070 9.000 8.590 8.740 6.833 6.720 1.1940 8.760 8.840 8.780 8.320 8.570 6.596 6.489 0.2030 41.16 8.87                       135.30   11.364 9.833 1.534 11.211 9.772 1.446
UPLMET_235 2018-09-29 15:55:00 235 46891.0 8.80 8.860 8.800 8.600 8.380 87.600 88.300 6.864 6.788 9.300 9.200 8.450 9.010 0.110 0.071 0.103 0.133     44.690 0.00 1 1 8.840 8.900 8.830 8.470 8.630 7.114 7.029 1.6130 8.740 8.820 8.770 8.290 8.560 6.678 6.605 0.7640 53.60 53.51                       134.80   11.326 9.925 1.404 11.173 9.873 1.307
UPLMET_235 2018-09-29 15:50:00 235 46891.0 8.92 8.930 8.860 8.690 8.370 87.600 88.600 6.978 6.911 9.290 9.200 8.450 9.010 0.110 0.071 0.103 0.133     44.630 0.00 1 1 8.980 8.980 8.900 8.470 8.750 7.143 7.044 2.1380 8.840 8.890 8.820 8.310 8.640 6.912 6.843 1.3350 44.05 16.50                       135.00   11.418 10.003 1.416 11.242 9.957 1.282
UPLMET_235 2018-09-29 15:45:00 235 46891.0 9.09 9.120 9.030 8.830 8.440 86.900 87.800 7.035 6.934 9.290 9.200 8.450 9.010 0.110 0.071 0.103 0.133     44.640 0.00 1 1 9.190 9.240 9.130 8.530 8.930 7.173 7.039 2.1470 9.000 8.990 8.910 8.340 8.770 6.935 6.850 0.9730 54.22 21.16                       135.10   11.550 10.042 1.513 11.349 9.973 1.385
UPLMET_235 2018-09-29 15:40:00 235 46891.0 9.27 9.340 9.240 8.980 8.610 86.900 88.000 7.211 7.104 9.290 9.200 8.450 9.010 0.110 0.071 0.103 0.133     44.670 0.00 1 1 9.320 9.400 9.310 8.720 9.060 7.329 7.194 1.5410 9.210 9.260 9.150 8.530 8.930 7.058 6.966 0.6320 70.84 25.02                       135.60   11.691 10.164 1.532 11.464 10.090 1.376
UPLMET_235 2018-09-29 15:35:00 235 46891.0 9.29 9.400 9.310 9.020 8.810 87.500 88.400 7.334 7.220 9.290 9.200 8.450 9.010 0.110 0.071 0.103 0.133     44.680 0.00 1 1 9.340 9.450 9.340 8.950 9.070 7.464 7.329 1.3990 9.190 9.300 9.200 8.670 8.930 7.197 7.119 0.5140 61.27 52.19                       135.90   11.707 10.250 1.463 11.495 10.170 1.333
UPLMET_235 2018-09-29 15:30:00 235 46891.0 9.20 9.220 9.130 8.900 8.610 87.200 88.400 7.189 7.104 9.290 9.200 8.450 9.010 0.110 0.071 0.103 0.133     44.710 0.00 1 1 9.280 9.300 9.220 8.790 8.950 7.435 7.248 2.1110 9.150 9.170 9.070 8.480 8.870 7.043 6.978 0.7800 59.39 19.54                       136.20   11.636 10.149 1.489 11.402 10.090 1.323
UPLMET_235 2018-09-29 15:25:00 235 46891.0 9.30 9.360 9.240 8.960 8.780 87.500 89.000 7.345 7.243 9.290 9.200 8.450 9.010 0.110 0.071 0.103 0.133     44.700 0.00 1 1 9.340 9.410 9.290 8.950 8.990 7.542 7.372 2.2360 9.250 9.290 9.130 8.670 8.860 7.201 7.130 0.9090 54.55 56.35                       136.50   11.715 10.258 1.464 11.449 10.186 1.259
UPLMET_235 2018-09-29 15:20:00 235 46891.0 9.26 9.290 9.150 8.870 8.610 87.700 89.000 7.332 7.157 9.290 9.200 8.450 9.010 0.110 0.071 0.103 0.133     44.700 0.00 1 1 9.290 9.330 9.210 8.700 8.920 7.421 7.211 1.8440 9.230 9.240 9.100 8.510 8.830 7.269 7.073 1.1240 60.17 24.99                       136.90   11.683 10.249 1.437 11.379 10.126 1.252
UPLMET_235 2018-09-29 15:15:00 235 46891.0 9.20 9.260 9.130 8.870 8.570 87.900 89.100 7.308 7.188 9.280 9.210 8.450 9.010 0.110 0.071 0.103 0.133     44.710 0.00 1 1 9.230 9.320 9.190 8.750 8.890 7.396 7.252 1.7820 9.170 9.210 9.090 8.410 8.850 7.205 7.125 0.8230 75.12 36.34                       136.30   11.636 10.232 1.408 11.379 10.148 1.240
UPLMET_235 2018-09-29 15:10:00 235 46891.0 9.17 9.270 9.160 8.890 8.620 88.400 89.300 7.355 7.231 9.280 9.210 8.450 9.010 0.110 0.071 0.103 0.133     44.720 0.00 1 1 9.240 9.330 9.200 8.770 8.920 7.476 7.313 0.9270 9.130 9.220 9.130 8.480 8.870 7.271 7.136 0.4720 38.77 17.26                       136.00   11.612 10.265 1.347 11.395 10.178 1.219
UPLMET_235 2018-09-29 15:05:00 235 46891.0 9.14 9.240 9.130 8.830 8.500 88.200 89.200 7.290 7.159 9.280 9.210 8.450 9.010 0.110 0.071 0.103 0.133     44.720 0.00 1 1 9.180 9.300 9.190 8.710 8.870 7.423 7.265 0.9090 9.100 9.200 9.100 8.370 8.810 7.196 7.086 0.2190 80.50 7.21                       136.60   11.589 10.219 1.367 11.349 10.128 1.226
UPLMET_235 2018-09-29 15:00:00 235 46891.0 9.01 9.090 8.990 8.730 8.470 88.700 89.800 7.261 7.148 9.280 9.210 8.450 9.010 0.110 0.071 0.103 0.133     44.710 0.00 1 1 9.120 9.240 9.120 8.590 8.820 7.376 7.224 0.5260 8.930 8.930 8.840 8.240 8.620 7.170 7.017 0.1730 84.40 38.37                       137.00   11.488 10.199 1.298 11.272 10.120 1.150
UPLMET_235 2018-09-29 14:55:00 235 46891.0 9.02 9.010 8.920 8.690 8.290 88.300 89.500 7.203 7.064 9.280 9.210 8.450 9.010 0.110 0.071 0.103 0.133     44.700 0.00 1 1 9.080 9.110 9.020 8.440 8.760 7.279 7.157 1.1050 8.940 8.940 8.840 8.210 8.620 7.132 6.995 0.2700 91.20 25.22                       136.10   11.495 10.158 1.345 11.242 10.062 1.180
UPLMET_235 2018-09-29 14:50:00 235 46891.0 9.06 9.130 9.050 8.790 8.510 88.700 89.500 7.297 7.171 9.280 9.210 8.450 9.010 0.110 0.071 0.103 0.133     44.700 0.00 1 1 9.090 9.200 9.110 8.680 8.830 7.400 7.245 0.8110 9.030 9.090 8.990 8.350 8.740 7.211 7.102 0.3590 60.52 27.22                       135.60   11.526 10.224 1.302 11.318 10.136 1.188
UPLMET_235 2018-09-29 14:45:00 235 46891.0 9.00 9.080 8.980 8.750 8.430 88.800 89.800 7.256 7.172 9.280 9.220 8.450 9.010 0.110 0.071 0.103 0.133     44.710 0.00 1 1 9.030 9.160 9.060 8.600 8.800 7.368 7.225 0.8910 8.970 9.020 8.890 8.300 8.690 7.154 7.123 0.2730 16.89 48.53                       136.40   11.480 10.195 1.286 11.287 10.137 1.151
UPLMET_235 2018-09-29 14:40:00 235 46891.0 9.02 9.110 9.000 8.770 8.380 88.400 89.400 7.223 7.120 9.280 9.220 8.450 9.010 0.110 0.071 0.103 0.133     44.770 0.00 1 1 9.090 9.240 9.140 8.650 8.840 7.319 7.252 1.1760 8.960 9.010 8.880 8.210 8.690 7.132 7.053 0.5100 67.22 13.92                       136.20   11.495 10.172 1.333 11.303 10.101 1.198
UPLMET_235 2018-09-29 14:35:00 235 46891.0 8.98 9.120 9.010 8.740 8.430 88.900 89.900 7.259 7.181 9.280 9.220 8.450 9.010 0.110 0.071 0.103 0.133     44.710 0.00 1 1 9.050 9.200 9.090 8.570 8.820 7.328 7.239 0.6770 8.900 9.010 8.900 8.270 8.640 7.216 7.116 0.0980 68.77 0.83                       136.50   11.464 10.198 1.273 11.280 10.143 1.139
UPLMET_235 2018-09-29 14:30:00 235 46891.0 8.86 8.950 8.860 8.600 8.280 89.300 90.100 7.203 7.077 9.280 9.220 8.450 9.010 0.110 0.071 0.103 0.133     44.710 0.00 1 1 8.890 9.000 8.890 8.310 8.620 7.233 7.106 0.7660 8.820 8.910 8.840 8.250 8.570 7.170 7.034 0.2490 79.83 5.82                       136.10   11.372 10.158 1.217 11.173 10.071 1.106
UPLMET_235 2018-09-29 14:25:00 235 46891.0 8.84 8.940 8.850 8.610 8.270 89.100 89.900 7.153 7.044 9.280 9.220 8.450 9.010 0.110 0.071 0.103 0.133     44.740 0.00 1 1 8.870 9.010 8.910 8.360 8.670 7.278 7.155 0.1870 8.810 8.900 8.820 8.160 8.570 7.038 6.962 0.0090 310.50 0.00                       135.70   11.356 10.124 1.238 11.181 10.048 1.129
UPLMET_235 2018-09-29 14:20:00 235 46891.0 8.72 8.890 8.830 8.550 8.490 90.400 91.000 7.253 7.163 9.280 9.220 8.450 9.010 0.110 0.071 0.103 0.133     44.710 0.00 1 1 8.810 8.970 8.890 8.640 8.650 7.386 7.267 0.6950 8.630 8.780 8.720 8.370 8.430 7.138 7.079 0.1930 335.50 33.03                       135.30   11.264 10.193 1.081 11.135 10.131 1.002
UPLMET_235 2018-09-29 14:15:00 235 46891.0 8.54 8.640 8.610 8.330 8.200 90.600 91.300 7.094 7.013 9.280 9.230 8.450 9.010 0.110 0.071 0.103 0.133     44.700 0.00 1 1 8.630 8.760 8.700 8.400 8.420 7.224 7.115 0.4900 8.500 8.590 8.560 8.080 8.280 7.011 6.942 0.0950 224.40 39.26                       135.20   11.128 10.083 1.046 10.970 10.027 0.954
UPLMET_235 2018-09-29 14:10:00 235 46891.0 8.48 8.540 8.520 8.270 8.010 90.700 91.500 7.048 6.974 9.280 9.230 8.450 9.010 0.110 0.071 0.103 0.133     44.700 0.00 1 1 8.520 8.590 8.560 8.110 8.280 7.115 7.003 1.0690 8.450 8.520 8.490 7.921 8.250 6.997 6.945 0.2720 85.00 45.18                       135.30   11.083 10.051 1.031 10.926 10.000 0.929
UPLMET_235 2018-09-29 14:05:00 235 46891.0 8.54 8.570 8.480 8.230 7.965 90.300 91.700 7.050 6.974 9.280 9.230 8.450 9.010 0.110 0.071 0.103 0.133     44.700 0.00 1 1 8.570 8.590 8.520 8.040 8.290 7.122 7.007 0.3210 8.510 8.540 8.440 7.891 8.180 7.013 6.937 0.0310 144.00 0.00                       135.70   11.128 10.052 1.079 10.896 10.000 0.904
UPLMET_235 2018-09-29 14:00:00 235 46891.0 8.59 8.580 8.470 8.190 7.944 90.800 92.300 7.185 7.024 9.280 9.230 8.450 9.010 0.110 0.071 0.103 0.133     44.700 0.00 1 1 8.620 8.620 8.500 8.030 8.210 7.298 7.113 1.0510 8.550 8.550 8.430 7.891 8.160 7.070 6.963 0.3650 174.80 17.93                       136.00   11.166 10.146 1.027 10.867 10.034 0.837
UPLMET_235 2018-09-29 13:55:00 235 46891.0 8.55 8.650 8.500 8.200 8.040 91.700 93.000 7.293 7.150 9.280 9.230 8.450 9.010 0.110 0.071 0.103 0.133     44.700 0.00 1 1 8.610 8.680 8.530 8.130 8.220 7.338 7.181 1.2030 8.480 8.600 8.460 7.883 8.170 7.247 7.107 0.4390 179.60 24.96                       136.10   11.135 10.221 0.924 10.874 10.122 0.761
UPLMET_235 2018-09-29 13:50:00 235 46891.0 8.42 8.550 8.410 8.120 7.979 92.300 93.400 7.256 7.129 9.280 9.240 8.450 9.010 0.110 0.071 0.103 0.133     44.740 0.00 1 1 8.480 8.620 8.460 8.120 8.160 7.336 7.177 0.8910 8.360 8.490 8.350 7.845 8.080 7.193 7.091 0.3830 171.50 18.05                       136.20   11.038 10.195 0.850 10.815 10.107 0.714
UPLMET_235 2018-09-29 13:45:00 235 46891.0 8.32 8.450 8.330 8.040 7.860 92.900 93.900 7.247 7.118 9.280 9.240 8.450 9.010 0.110 0.071 0.103 0.133     44.720 0.00 1 1 8.360 8.490 8.360 7.939 8.080 7.323 7.213 0.8910 8.260 8.410 8.300 7.730 8.010 7.207 7.065 0.4070 203.50 26.81                       136.50   10.963 10.189 0.778 10.756 10.099 0.656
UPLMET_235 2018-09-29 13:40:00 235 46891.0 8.29 8.350 8.270 7.992 7.720 92.700 93.900 7.196 7.075 9.280 9.240 8.450 9.010 0.110 0.071 0.103 0.133     44.720 0.00 1 1 8.450 8.500 8.370 7.889 8.090 7.298 7.185 1.3540 8.210 8.250 8.190 7.581 7.933 7.118 7.007 0.6190 176.40 16.18                       136.70   10.941 10.154 0.799 10.721 10.070 0.654
UPLMET_235 2018-09-29 13:35:00 235 46891.0 8.52 8.570 8.450 8.170 7.828 91.800 92.700 7.265 7.064 9.280 9.240 8.450 9.010 0.110 0.071 0.103 0.133     44.700 0.00 1 1 8.600 8.670 8.570 7.979 8.250 7.339 7.141 0.8370 8.430 8.450 8.370 7.691 8.090 7.162 7.033 0.4840 181.30 13.55                       136.50   11.113 10.202 0.911 10.852 10.062 0.792
UPLMET_235 2018-09-29 13:30:00 235 46891.0 8.51 8.620 8.590 8.350 7.909 91.600 91.800 7.223 7.114 9.280 9.250 8.450 9.010 0.110 0.071 0.103 0.133     44.690 0.00 1 1 8.580 8.690 8.640 7.966 8.400 7.290 7.165 0.9710 8.460 8.540 8.540 7.835 8.270 7.113 7.048 0.3410 210.20 72.34                       136.70   11.105 10.172 0.933 10.985 10.097 0.901
UPLMET_235 2018-09-29 13:25:00 235 46891.0 8.56 8.660 8.610 8.410 7.888 90.200 90.800 7.058 6.999 9.280 9.250 8.440 9.010 0.110 0.071 0.103 0.133     44.750 0.00 1 1 8.620 8.770 8.680 8.050 8.470 7.160 7.090 0.4540 8.470 8.540 8.520 7.737 8.350 6.949 6.880 0.1500 296.10 5.06                       136.50   11.143 10.058 1.092 11.030 10.017 1.015
UPLMET_235 2018-09-29 13:20:00 235 46891.0 8.63 8.740 8.670 8.390 7.903 89.000 90.100 6.923 6.873 9.280 9.250 8.440 9.010 0.110 0.071 0.103 0.133     44.720 0.00 1 1 8.660 8.770 8.720 8.090 8.420 7.003 6.960 0.3470 8.580 8.710 8.630 7.784 8.370 6.835 6.799 0.0710 342.70 16.50                       136.60   11.196 9.965 1.232 11.015 9.931 1.091
UPLMET_235 2018-09-29 13:15:00 235 46891.0 8.55 8.690 8.620 8.280 8.090 90.300 91.300 7.067 6.963 9.280 9.250 8.440 9.010 0.110 0.071 0.103 0.133     44.700 0.00 1 1 8.670 8.800 8.730 8.300 8.380 7.167 6.995 0.4450 8.440 8.560 8.470 7.903 8.180 6.988 6.908 0.0750 17.77 17.79                       136.70   11.135 10.064 1.080 10.933 9.993 0.951
UPLMET_235 2018-09-29 13:10:00 235 46891.0 8.44 8.540 8.430 8.180 7.714 90.300 91.400 6.960 6.870 9.280 9.250 8.440 9.010 0.110 0.071 0.103 0.133     44.690 0.00 1 1 8.470 8.590 8.460 7.906 8.200 7.068 6.935 0.7750 8.420 8.490 8.390 7.602 8.150 6.857 6.805 0.1100 294.90 10.68                       136.80   11.053 9.990 1.072 10.859 9.929 0.934
UPLMET_235 2018-09-29 13:05:00 235 46891.0 8.34 8.510 8.380 8.090 7.857 91.200 92.200 7.000 6.908 9.280 9.260 8.440 9.010 0.110 0.071 0.103 0.133     44.690 0.00 1 1 8.420 8.600 8.440 7.939 8.160 7.049 6.964 1.1760 8.300 8.470 8.350 7.741 8.040 6.934 6.874 0.4700 274.10 8.61                       136.90   10.978 10.018 0.966 10.793 9.955 0.842
UPLMET_235 2018-09-29 13:00:00 235 46891.0 8.24 8.410 8.280 7.970 7.751 91.800 93.000 6.990 6.913 9.280 9.260 8.440 9.010 0.110 0.071 0.103 0.133     44.740 0.00 1 1 8.300 8.480 8.350 7.912 8.040 7.094 6.982 0.8020 8.200 8.320 8.190 7.547 7.890 6.882 6.830 0.1920 348.60 25.55                       136.90   10.904 10.011 0.894 10.705 9.958 0.749
UPLMET_235 2018-09-29 12:55:00 235 46891.0 8.17 8.310 8.140 7.823 7.505 92.000 93.400 6.951 6.826 9.280 9.260 8.440 9.010 0.110 0.071 0.103 0.133     44.740 0.00 1 1 8.240 8.370 8.220 7.600 7.900 7.006 6.886 0.5880 8.070 8.260 8.080 7.403 7.768 6.915 6.777 0.0990 77.38 9.60                       137.00   10.852 9.984 0.868 10.598 9.899 0.699
UPLMET_235 2018-09-29 12:50:00 235 46891.0 8.00 8.120 7.992 7.735 7.358 92.600 93.400 6.875 6.747 9.280 9.260 8.440 9.010 0.110 0.071 0.103 0.133     44.690 0.00 1 1 8.080 8.240 8.070 7.526 7.765 6.968 6.790 0.9090 7.943 8.050 7.939 7.218 7.689 6.790 6.679 0.2040 66.71 8.30                       137.10   10.726 9.932 0.794 10.535 9.845 0.695
UPLMET_235 2018-09-29 12:45:00 235 46891.0 7.93 8.070 7.977 7.691 7.379 92.900 94.000 6.860 6.787 9.290 9.270 8.440 9.010 0.111 0.071 0.103 0.133     44.730 0.00 1 1 7.990 8.130 8.040 7.561 7.748 6.932 6.852 0.7390 7.841 8.010 7.918 7.205 7.607 6.753 6.668 0.3800 78.07 4.44                       136.90   10.675 9.922 0.758 10.503 9.872 0.630
UPLMET_235 2018-09-29 12:40:00 235 46891.0 7.72 7.847 7.803 7.496 7.247 94.100 95.200 6.829 6.779 9.290 9.270 8.440 9.010 0.111 0.071 0.103 0.133     44.730 0.00 1 1 7.818 7.998 7.925 7.417 7.607 6.919 6.847 0.4900 7.647 7.731 7.705 7.044 7.419 6.741 6.695 0.0690 69.08 0.92                       136.00   10.521 9.901 0.621 10.364 9.867 0.497
UPLMET_235 2018-09-29 12:35:00 235 46891.0 7.67 7.762 7.671 7.419 7.000 94.100 95.100 6.783 6.694 9.290 9.270 8.440 9.010 0.111 0.071 0.103 0.133     44.700 0.00 1 1 7.687 7.800 7.697 7.067 7.429 6.825 6.728 0.5170 7.650 7.726 7.654 6.937 7.406 6.743 6.673 0.1570 55.96 9.72                       135.50   10.490 9.870 0.619 10.310 9.809 0.505
UPLMET_235 2018-09-29 12:30:00 235 46891.0 7.62 7.726 7.629 7.400 7.041 94.500 95.600 6.802 6.749 9.290 9.270 8.440 9.010 0.111 0.071 0.103 0.133     44.720 0.00 1 1 7.664 7.797 7.672 7.168 7.422 6.871 6.798 0.9800 7.584 7.666 7.584 6.930 7.373 6.754 6.712 0.4160 53.71 21.60                       135.30   10.450 9.883 0.575 10.296 9.847 0.453
UPLMET_235 2018-09-29 12:25:00 235 46891.0 7.59 7.636 7.548 7.343 6.937 94.700 95.800 6.795 6.727 9.290 9.280 8.440 9.010 0.111 0.071 0.103 0.133     44.680 0.00 1 1 7.621 7.708 7.588 7.142 7.386 6.841 6.782 0.9350 7.568 7.608 7.512 6.852 7.320 6.747 6.686 0.3570 55.73 8.66                       135.20   10.430 9.878 0.553 10.256 9.832 0.431
UPLMET_235 2018-09-29 12:20:00 235 46891.0 7.64 7.717 7.619 7.389 6.973 94.600 95.800 6.829 6.776 9.290 9.280 8.440 9.010 0.111 0.071 0.103 0.133     44.790 0.00 1 1 7.673 7.785 7.657 7.129 7.406 6.910 6.824 0.6680 7.607 7.650 7.582 6.894 7.366 6.788 6.740 0.4330 63.42 12.07                       135.10   10.465 9.901 0.565 10.289 9.865 0.432
UPLMET_235 2018-09-29 12:15:00 235 46891.0 7.66 7.740 7.629 7.401 7.018 94.700 96.100 6.861 6.833 9.300 9.280 8.440 9.010 0.111 0.071 0.103 0.133     44.700 0.00 1 1 7.679 7.773 7.661 7.170 7.435 6.930 6.899 0.8370 7.630 7.698 7.581 6.883 7.362 6.795 6.749 0.2500 57.76 17.24                       135.10   10.480 9.923 0.555 10.297 9.904 0.402
UPLMET_235 2018-09-29 12:10:00 235 46891.0 7.61 7.712 7.601 7.338 7.102 95.400 96.800 6.925 6.866 9.300 9.290 8.440 9.010 0.111 0.071 0.103 0.133     44.710 0.00 1 1 7.643 7.742 7.622 7.223 7.372 6.980 6.912 0.8550 7.557 7.651 7.538 7.030 7.286 6.883 6.818 0.4080 96.50 21.74                       135.20   10.445 9.966 0.480 10.253 9.926 0.328
UPLMET_235 2018-09-29 12:05:00 235 46891.0 7.54 7.591 7.505 7.277 6.913 95.400 96.700 6.859 6.798 9.300 9.290 8.440 9.010 0.111 0.071 0.103 0.133     44.700 0.00 1 1 7.567 7.642 7.529 7.027 7.302 6.921 6.849 1.2740 7.524 7.543 7.483 6.770 7.259 6.805 6.728 0.4900 106.30 14.30                       135.40   10.398 9.921 0.478 10.210 9.880 0.337
UPLMET_235 2018-09-29 12:00:00 235 46891.0 7.58 7.664 7.578 7.346 6.934 95.500 96.900 6.907 6.885 9.300 9.290 8.440 9.010 0.111 0.071 0.103 0.133     44.720 0.00 1 1 7.596 7.702 7.594 7.050 7.368 6.955 6.919 1.3990 7.550 7.600 7.523 6.810 7.292 6.867 6.777 0.2780 80.10 11.67                       135.20   10.423 9.954 0.469 10.258 9.939 0.318
UPLMET_235 2018-09-29 11:55:00 235 46891.0 7.58 7.722 7.605 7.354 7.074 95.600 97.200 6.935 6.944 9.310 9.290 8.440 9.010 0.111 0.071 0.103 0.133     44.700 0.00 1 1 7.626 7.763 7.647 7.227 7.398 6.993 6.994 1.2740 7.543 7.669 7.567 6.990 7.331 6.879 6.879 0.2900 86.40 24.83                       135.00   10.425 9.973 0.459 10.264 9.980 0.287
UPLMET_235 2018-09-29 11:50:00 235 46891.0 7.49 7.663 7.547 7.259 7.032 96.100 97.600 6.913 6.907 9.310 9.300 8.440 9.010 0.111 0.071 0.103 0.133     44.720 0.00 1 1 7.572 7.749 7.635 7.250 7.315 6.980 6.961 0.9890 7.433 7.604 7.504 6.942 7.225 6.864 6.873 0.2440 16.28 22.56                       135.00   10.361 9.958 0.404 10.198 9.954 0.245
UPLMET_235 2018-09-29 11:45:00 235 46891.0 7.40 7.541 7.434 7.184 6.878 95.900 97.500 6.797 6.826 9.310 9.300 8.440 9.010 0.111 0.071 0.103 0.133     44.770 0.00 1 1 7.442 7.599 7.500 7.058 7.222 6.870 6.891 1.0250 7.367 7.496 7.399 6.732 7.165 6.739 6.786 0.3160 29.86 13.05                       135.20   10.299 9.879 0.422 10.145 9.899 0.254
UPLMET_235 2018-09-29 11:40:00 235 46891.0 7.42 7.536 7.430 7.182 6.798 95.800 97.700 6.801 6.850 9.320 9.300 8.440 9.010 0.111 0.071 0.103 0.133     44.720 0.00 1 1 7.445 7.585 7.479 6.889 7.204 6.885 6.916 1.0780 7.379 7.495 7.384 6.708 7.155 6.737 6.790 0.3690 56.58 29.06                       135.20   10.308 9.882 0.433 10.144 9.915 0.233
UPLMET_235 2018-09-29 11:35:00 235 46891.0 7.42 7.536 7.425 7.144 6.862 96.300 98.200 6.880 6.883 9.320 9.310 8.440 9.010 0.111 0.071 0.103 0.133     44.710 0.00 1 1 7.441 7.588 7.481 6.980 7.177 6.921 6.910 0.8820 7.389 7.483 7.376 6.793 7.117 6.819 6.852 0.3410 69.17 9.29                       135.40   10.308 9.936 0.381 10.117 9.938 0.182
UPLMET_235 2018-09-29 11:30:00 235 46891.0 7.36 7.473 7.362 7.107 6.836 96.800 98.400 6.891 6.879 9.320 9.310 8.440 9.010 0.111 0.071 0.103 0.133     44.760 0.00 1 1 7.411 7.530 7.420 6.940 7.143 6.924 6.924 1.0960 7.309 7.420 7.298 6.742 7.058 6.851 6.823 0.3980 48.75 10.34                       135.60   10.265 9.943 0.328 10.092 9.935 0.161
UPLMET_235 2018-09-29 11:25:00 235 46891.0 7.33 7.410 7.316 7.087 6.741 96.700 98.500 6.844 6.866 9.330 9.310 8.440 9.010 0.111 0.071 0.103 0.133     44.700 0.00 1 1 7.368 7.462 7.373 6.800 7.120 6.927 6.932 1.2210 7.295 7.357 7.262 6.671 7.048 6.788 6.804 0.8840 59.96 7.85                       135.60   10.249 9.911 0.338 10.078 9.926 0.151
UPLMET_235 2018-09-29 11:20:00 235 46891.0 7.32 7.408 7.315 7.063 6.773 97.100 98.700 6.898 6.875 9.330 9.320 8.440 9.010 0.111 0.071 0.103 0.133     44.760 0.00 1 1 7.344 7.447 7.362 6.873 7.106 6.954 6.922 0.5880 7.278 7.356 7.259 6.671 7.000 6.854 6.792 0.0890 339.90 14.16                       135.50   10.237 9.948 0.297 10.061 9.932 0.131
UPLMET_235 2018-09-29 11:15:00 235 46891.0 7.29 7.358 7.245 7.030 6.686 97.000 98.500 6.844 6.809 9.340 9.320 8.440 9.010 0.111 0.071 0.103 0.133     44.730 0.00 1 1 7.310 7.389 7.270 6.759 7.056 6.862 6.840 0.9800 7.264 7.315 7.221 6.556 6.983 6.807 6.769 0.5100 45.11 30.80                       135.50   10.219 9.911 0.307 10.039 9.887 0.151
UPLMET_235 2018-09-29 11:10:00 235 46891.0 7.28 7.360 7.266 7.042 6.751 96.900 98.300 6.830 6.801 9.340 9.320 8.440 9.010 0.111 0.071 0.103 0.133     44.680 0.00 1 1 7.307 7.401 7.305 6.896 7.085 6.876 6.868 1.0160 7.234 7.302 7.221 6.652 6.996 6.746 6.713 0.3240 72.46 25.90                       135.50   10.212 9.902 0.317 10.047 9.882 0.171
UPLMET_235 2018-09-29 11:05:00 235 46891.0 7.37 7.430 7.338 7.103 6.751 96.600 98.200 6.865 6.851 9.340 9.320 8.440 9.020 0.111 0.071 0.103 0.133     44.660 0.00 1 1 7.409 7.524 7.419 6.851 7.167 6.942 6.939 1.0250 7.277 7.331 7.237 6.593 7.002 6.772 6.719 0.3360 92.00 29.09                       135.50   10.274 9.925 0.349 10.089 9.916 0.182
UPLMET_235 2018-09-29 11:00:00 235 46891.0 7.37 7.453 7.353 7.098 6.794 96.900 98.300 6.910 6.860 9.350 9.330 8.430 9.010 0.111 0.071 0.103 0.133     44.720 0.00 1 1 7.418 7.505 7.391 6.908 7.134 6.967 6.904 1.0160 7.331 7.409 7.319 6.726 7.064 6.866 6.817 0.3750 59.71 40.58                       135.50   10.273 9.956 0.318 10.086 9.922 0.171
UPLMET_235 2018-09-29 10:55:00 235 46891.0 7.30 7.384 7.302 7.075 6.775 96.900 98.300 6.846 6.837 9.350 9.330 8.430 9.020 0.111 0.071 0.103 0.133     44.750 0.00 1 1 7.347 7.421 7.339 6.956 7.110 6.896 6.881 0.8910 7.265 7.325 7.242 6.677 7.024 6.785 6.774 0.3920 95.30 40.76                       135.50   10.228 9.913 0.317 10.070 9.906 0.171
UPLMET_235 2018-09-29 10:50:00 235 46891.0 7.29 7.354 7.280 7.064 6.792 96.700 98.100 6.799 6.786 9.360 9.330 8.430 9.020 0.111 0.071 0.103 0.133     44.710 0.00 1 1 7.327 7.410 7.316 6.860 7.119 6.877 6.886 1.2740 7.254 7.281 7.241 6.620 7.000 6.690 6.657 0.2870 77.89 19.25                       135.60   10.219 9.881 0.337 10.062 9.872 0.191
UPLMET_235 2018-09-29 10:45:00 235 46891.0 7.37 7.462 7.383 7.132 6.905 96.600 98.100 6.863 6.863 9.360 9.340 8.430 9.020 0.111 0.071 0.103 0.133     44.760 0.00 1 1 7.402 7.526 7.433 6.995 7.178 6.899 6.912 1.4700 7.310 7.297 7.260 6.652 7.056 6.720 6.730 0.4840 232.90 87.00                       135.50   10.275 9.924 0.349 10.109 9.924 0.192
UPLMET_235 2018-09-29 10:40:00 235 46891.0 7.28 7.350 7.269 7.033 6.850 96.500 97.900 6.770 6.726 9.370 9.340 8.430 9.020 0.111 0.071 0.103 0.133     44.740 0.00 1 1 7.345 7.451 7.373 7.023 7.108 6.880 6.860 1.6480 7.236 7.283 7.189 6.708 6.965 6.707 6.625 0.4300 131.20 42.18                       135.60   10.210 9.861 0.357 10.041 9.831 0.211
UPLMET_235 2018-09-29 10:35:00 235 46891.0 7.34 7.368 7.298 7.121 6.799 95.800 97.300 6.723 6.723 9.380 9.340 8.430 9.020 0.111 0.071 0.103 0.133     44.700 0.00 1 1 7.433 7.454 7.370 6.901 7.179 6.798 6.778 2.0220 7.275 7.315 7.257 6.699 7.071 6.662 6.675 1.2380 67.33 79.68                       135.70   10.253 9.829 0.431 10.102 9.829 0.273
UPLMET_235 2018-09-29 10:30:00 235 46891.0 7.46 7.517 7.416 7.226 6.946 95.200 96.600 6.756 6.720 9.380 9.340 8.430 9.020 0.111 0.071 0.103 0.133     44.730 0.00 1 1 7.529 7.633 7.525 7.153 7.297 6.807 6.795 1.6750 7.420 7.456 7.367 6.828 7.176 6.710 6.666 0.6190 345.00 69.24                       135.90   10.342 9.851 0.496 10.174 9.827 0.346
UPLMET_235 2018-09-29 10:25:00 235 46891.0 7.53 7.559 7.473 7.286 7.000 94.800 95.900 6.758 6.678 9.390 9.350 8.430 9.020 0.111 0.071 0.103 0.133     44.700 0.00 1 1 7.594 7.615 7.536 7.140 7.317 6.830 6.754 2.2450 7.489 7.509 7.422 6.916 7.251 6.720 6.628 0.9420 2.31 64.40                       136.00   10.387 9.853 0.540 10.216 9.799 0.419
UPLMET_235 2018-09-29 10:20:00 235 46891.0 7.66 7.649 7.571 7.355 7.079 93.900 95.200 6.749 6.643 9.400 9.350 8.430 9.020 0.111 0.071 0.103 0.133     44.710 0.00 1 1 7.723 7.730 7.655 7.262 7.406 6.824 6.709 2.1920 7.594 7.552 7.489 6.991 7.310 6.688 6.584 1.3860 58.46 32.89                       136.30   10.480 9.847 0.639 10.265 9.775 0.493
UPLMET_235 2018-09-29 10:15:00 235 46891.0 7.85 7.788 7.703 7.536 7.090 92.600 93.900 6.732 6.618 9.400 9.350 8.430 9.020 0.111 0.071 0.103 0.133     44.690 0.00 1 1 8.030 7.945 7.839 7.249 7.666 6.780 6.671 2.4500 7.723 7.652 7.562 6.946 7.402 6.685 6.574 1.5110 34.85 34.02                       136.70   10.621 9.835 0.786 10.393 9.758 0.634
UPLMET_235 2018-09-29 10:10:00 235 46891.0 8.13 8.140 8.040 7.847 7.403 91.200 92.300 6.798 6.684 9.410 9.360 8.430 9.020 0.111 0.071 0.103 0.133     44.730 0.00 1 1 8.200 8.230 8.180 7.665 7.966 6.881 6.736 2.4500 8.050 7.992 7.899 7.161 7.702 6.737 6.623 0.7620 31.65 52.29                       137.20   10.822 9.880 0.952 10.616 9.803 0.817
UPLMET_235 2018-09-29 10:05:00 235 46891.0 8.09 8.190 8.130 7.847 7.718 91.400 92.300 6.791 6.688 9.420 9.360 8.430 9.020 0.111 0.071 0.103 0.133     44.700 0.00 1 1 8.220 8.340 8.250 8.020 7.976 6.889 6.751 1.9240 7.970 8.030 7.985 7.516 7.722 6.734 6.635 1.2220 35.83 53.11                       137.60   10.793 9.875 0.928 10.616 9.805 0.817
UPLMET_235 2018-09-29 10:00:00 235 46891.0 8.11 8.120 8.090 7.858 7.502 90.600 91.600 6.671 6.589 9.420 9.360 8.430 9.020 0.111 0.071 0.103 0.133     44.720 0.00 1 1 8.200 8.290 8.250 7.763 7.970 6.760 6.678 2.4320 7.960 7.938 7.911 7.317 7.686 6.615 6.489 0.7030 3.28 64.61                       138.10   10.808 9.794 1.016 10.624 9.739 0.892
UPLMET_235 2018-09-29 09:55:00 235 46891.0 8.32 8.290 8.200 8.000 7.607 89.100 90.600 6.642 6.565 9.430 9.370 8.430 9.020 0.111 0.071 0.103 0.133     44.740 0.00 1 1 8.470 8.440 8.300 7.853 8.100 6.683 6.611 2.2540 8.180 8.180 8.130 7.460 7.907 6.600 6.510 1.2830 24.29 45.06                       139.00   10.963 9.774 1.195 10.727 9.723 1.008
UPLMET_235 2018-09-29 09:50:00 235 46891.0 8.46 8.450 8.330 8.140 7.731 88.400 89.700 6.669 6.549 9.440 9.370 8.430 9.020 0.111 0.071 0.103 0.133     44.680 0.00 1 1 8.510 8.600 8.480 7.912 8.260 6.763 6.617 2.8420 8.390 8.330 8.220 7.559 8.060 6.589 6.452 1.2520 39.51 36.41                       139.90   11.068 9.793 1.284 10.830 9.712 1.115
UPLMET_235 2018-09-29 09:45:00 235 46891.0 8.70 8.720 8.590 8.380 7.704 87.400 88.800 6.730 6.646 9.450 9.380 8.430 9.020 0.111 0.071 0.103 0.133     44.760 0.00 1 1 8.920 8.920 8.740 7.978 8.520 6.824 6.737 1.7910 8.500 8.520 8.470 7.540 8.250 6.579 6.554 0.7670 349.00 32.55                       140.60   11.249 9.834 1.417 11.008 9.777 1.233
UPLMET_235 2018-09-29 09:40:00 235 46891.0 9.04 9.020 8.860 8.570 8.060 85.500 87.400 6.749 6.599 9.450 9.380 8.430 9.020 0.111 0.071 0.103 0.133     44.700 0.00 1 1 9.300 9.250 9.010 8.320 8.740 6.876 6.731 2.2090 8.920 8.940 8.760 7.850 8.490 6.636 6.467 0.9300 41.13 67.26                       141.00   11.511 9.847 1.669 11.151 9.745 1.405
UPLMET_235 2018-09-29 09:35:00 235 46891.0 9.39 9.370 9.110 8.840 8.260 83.500 85.700 6.747 6.595 9.460 9.380 8.430 9.020 0.111 0.071 0.103 0.133     44.750 0.00 1 1 9.560 9.440 9.180 8.390 8.930 6.847 6.703 1.7280 9.270 9.280 9.020 8.120 8.790 6.648 6.507 0.5010 87.00 62.39                       141.20   11.786 9.845 1.945 11.356 9.743 1.624
UPLMET_235 2018-09-29 09:30:00 235 46891.0 9.72 9.740 9.480 9.180 8.370 81.800 83.800 6.773 6.587 9.470 9.380 8.430 9.020 0.111 0.071 0.103 0.133     44.780 0.00 1 1 9.770 9.880 9.640 8.530 9.250 6.931 6.695 0.8820 9.580 9.440 9.200 8.090 8.960 6.641 6.484 0.4000 79.06 55.69                       142.30   12.050 9.863 2.193 11.620 9.737 1.882
UPLMET_235 2018-09-29 09:25:00 235 46891.0 9.70 9.720 9.610 9.190 8.370 81.800 84.000 6.743 6.636 9.480 9.390 8.430 9.020 0.111 0.071 0.103 0.133     44.680 0.00 1 1 9.780 9.800 9.690 8.500 9.260 6.893 6.701 0.7840 9.570 9.670 9.550 8.210 9.100 6.636 6.516 0.2570 16.52 64.67                       144.30   12.034 9.843 2.190 11.628 9.770 1.860
UPLMET_235 2018-09-29 09:20:00 235 46891.0 9.68 9.720 9.670 9.300 8.390 81.500 83.500 6.677 6.650 9.480 9.390 8.430 9.020 0.111 0.071 0.103 0.133     44.770 0.00 1 1 9.940 10.000 9.970 8.720 9.530 6.869 6.819 2.2450 9.570 9.580 9.500 8.110 9.120 6.542 6.554 0.9600 351.60 16.55                       144.50   12.018 9.798 2.223 11.715 9.780 1.933
UPLMET_235 2018-09-29 09:15:00 235 46891.0 10.03 9.980 9.950 9.620 8.610 79.480 81.600 6.650 6.638 9.490 9.390 8.430 9.020 0.111 0.071 0.103 0.133     44.740 0.00 1 1 10.330 10.210 10.170 9.080 9.800 6.958 6.801 2.4950 9.780 9.710 9.740 8.170 9.500 6.469 6.523 1.1880 344.20 32.70                       146.60   12.303 9.780 2.525 11.970 9.772 2.202
UPLMET_235 2018-09-29 09:10:00 235 46891.0 10.21 10.270 10.210 9.660 8.760 78.970 81.100 6.736 6.591 9.500 9.400 8.430 9.020 0.111 0.071 0.103 0.133     44.750 0.00 1 1 10.370 10.460 10.360 8.930 9.790 6.903 6.694 1.1310 10.090 10.170 10.070 8.570 9.480 6.524 6.493 0.4280 333.10 49.46                       146.40   12.453 9.838 2.619 12.002 9.740 2.268
UPLMET_235 2018-09-29 09:05:00 235 46891.0 10.03 10.090 10.050 9.580 8.540 78.400 80.500 6.451 6.394 9.510 9.400 8.430 9.020 0.111 0.071 0.103 0.133     44.740 0.00 1 1 10.090 10.220 10.190 8.950 9.680 6.673 6.672 1.9420 9.930 9.950 9.940 8.280 9.480 6.206 6.254 0.5230 322.30 55.69                       145.90   12.303 9.647 2.658 11.937 9.609 2.328
UPLMET_235 2018-09-29 09:00:00 235 46891.0 10.07 10.050 10.010 9.590 8.400 78.680 81.300 6.539 6.543 9.520 9.400 8.430 9.020 0.111 0.071 0.103 0.133     44.790 0.00 1 1 10.420 10.200 10.310 8.710 9.930 6.741 6.633 1.7730 9.960 9.950 9.880 8.130 9.450 6.386 6.446 0.6160 23.05 36.47                       145.10   12.336 9.705 2.630 11.945 9.708 2.234
UPLMET_235 2018-09-29 08:55:00 235 46891.0 10.72 10.670 10.620 9.970 8.780 76.010 79.680 6.676 6.631 9.530 9.410 8.430 9.020 0.111 0.071 0.103 0.133     44.770 0.00 1 1 10.790 10.740 10.740 9.150 10.000 6.927 6.737 1.4970 10.480 10.320 10.380 8.440 9.930 6.353 6.475 0.5360 342.00 31.15                       145.30   12.884 9.797 3.091 12.254 9.767 2.490
UPLMET_235 2018-09-29 08:50:00 235 46891.0 10.58 10.630 10.480 9.900 8.550 76.690 79.490 6.673 6.525 9.530 9.410 8.430 9.020 0.111 0.071 0.103 0.133     44.770 0.00 1 1 10.710 10.730 10.550 8.820 9.960 6.875 6.662 0.9440 10.490 10.520 10.370 8.280 9.800 6.509 6.383 0.3400 6.53 41.52                       144.90   12.764 9.795 2.975 12.197 9.696 2.502
UPLMET_235 2018-09-29 08:45:00 235 46891.0 10.33 10.350 9.970 9.580 8.540 77.720 80.600 6.618 6.426 9.540 9.410 8.430 9.020 0.111 0.071 0.103 0.133     44.720 0.00 1 1 10.470 10.580 10.350 8.830 9.840 6.811 6.626 0.9800 10.150 9.990 9.600 8.170 9.330 6.482 6.281 0.1450 343.40 27.19                       144.30   12.553 9.758 2.797 11.937 9.630 2.316
UPLMET_235 2018-09-29 08:40:00 235 46891.0 10.13 10.220 9.820 9.490 8.150 77.580 79.890 6.398 6.203 9.550 9.410 8.430 9.020 0.111 0.071 0.103 0.133     44.750 0.00 1 1 10.190 10.400 10.020 8.260 9.560 6.637 6.297 1.2740 10.000 9.970 9.580 8.080 9.350 6.224 6.118 0.6680 53.21 7.66                       143.40   12.386 9.611 2.777 11.865 9.483 2.386
UPLMET_235 2018-09-29 08:35:00 235 46891.0 9.99 10.140 9.790 9.420 8.090 77.360 79.760 6.219 6.107 9.560 9.420 8.430 9.020 0.111 0.071 0.103 0.133     44.760 0.00 1 1 10.030 10.220 9.860 8.290 9.560 6.417 6.227 1.6040 9.930 10.050 9.690 7.929 9.360 6.144 5.985 0.8560 69.11 10.20                       142.30   12.271 9.493 2.778 11.810 9.420 2.390
UPLMET_235 2018-09-29 08:30:00 235 46891.0 9.66 9.930 9.780 9.410 8.230 79.350 80.000 6.271 6.144 9.570 9.420 8.420 9.020 0.111 0.071 0.103 0.133     44.750 0.00 1 1 9.990 10.190 9.970 8.450 9.590 6.462 6.332 1.7190 9.270 9.600 9.530 8.060 9.160 6.129 6.029 0.3420 18.24 44.28                       141.10   12.002 9.527 2.478 11.802 9.444 2.360
UPLMET_235 2018-09-29 08:25:00 235 46891.0 8.89 9.190 9.170 8.870 7.973 82.800 82.300 6.120 6.020 9.580 9.420 8.420 9.020 0.111 0.071 0.103 0.133     44.750 0.00 1 1 9.220 9.580 9.510 8.330 9.140 6.308 6.107 0.8020 8.580 8.820 8.820 7.665 8.620 6.019 5.944 0.2960 85.30 25.15                       139.80   11.395 9.429 1.960 11.379 9.364 2.014
UPLMET_235 2018-09-29 08:20:00 235 46891.0 8.33 8.480 8.440 8.380 7.466 85.200 84.600 6.001 5.940 9.590 9.430 8.420 9.020 0.111 0.071 0.103 0.133     44.750 0.00 1 1 8.540 8.780 8.770 7.679 8.600 6.095 6.020 0.8020 8.240 8.350 8.270 7.275 8.230 5.932 5.865 0.5350 69.52 10.15                       138.70   10.970 9.351 1.624 11.008 9.312 1.695
UPLMET_235 2018-09-29 08:15:00 235 46891.0 8.23 8.450 8.490 8.270 7.308 85.400 85.000 5.941 5.902 9.590 9.430 8.420 9.020 0.111 0.071 0.103 0.133     44.750 0.00 1 1 8.280 8.500 8.680 7.360 8.320 5.982 5.938 0.9270 8.120 8.370 8.290 7.235 8.210 5.890 5.872 0.6540 58.88 8.64                       137.60   10.896 9.312 1.591 10.926 9.287 1.639
UPLMET_235 2018-09-29 08:10:00 235 46891.0 7.93 8.180 8.470 8.130 7.381 87.200 85.800 5.934 5.904 9.600 9.430 8.420 9.020 0.111 0.071 0.103 0.133     44.750 0.00 1 1 8.130 8.420 8.760 7.505 8.370 6.024 6.038 0.8290 7.807 7.905 8.140 7.233 7.906 5.815 5.757 0.3250 102.70 38.51                       136.60   10.676 9.308 1.367 10.822 9.289 1.537
UPLMET_235 2018-09-29 08:05:00 235 46891.0 7.80 7.786 7.770 7.721 7.070 87.800 88.300 5.905 5.912 9.610 9.440 8.420 9.020 0.111 0.071 0.103 0.133     44.750 0.00 1 1 7.850 7.897 8.110 7.253 7.893 5.958 6.024 0.7310 7.760 7.732 7.638 6.938 7.569 5.874 5.828 0.2210 78.25 14.34                       135.30   10.580 9.289 1.291 10.525 9.294 1.231
UPLMET_235 2018-09-29 08:00:00 235 46891.0 7.94 7.984 7.842 7.732 7.109 87.200 87.900 5.957 5.857 9.620 9.440 8.420 9.020 0.111 0.071 0.103 0.133     44.730 0.00 1 1 8.000 8.100 7.963 7.232 7.780 6.013 5.882 1.2740 7.866 7.819 7.680 6.987 7.638 5.884 5.824 0.5500 340.40 25.78                       134.10   10.683 9.323 1.367 10.533 9.258 1.274
UPLMET_235 2018-09-29 07:55:00 235 46891.0 7.93 8.060 7.892 7.653 7.242 87.300 88.400 5.953 5.864 9.630 9.440 8.420 9.020 0.111 0.071 0.103 0.133     44.730 0.00 1 1 7.984 8.140 7.959 7.434 7.743 6.054 5.918 0.6860 7.849 7.952 7.775 7.077 7.578 5.884 5.820 0.1270 77.87 48.28                       133.20   10.673 9.320 1.355 10.476 9.263 1.215
UPLMET_235 2018-09-29 07:50:00 235 46891.0 7.83 7.918 7.754 7.597 7.123 87.900 88.500 5.953 5.820 9.640 9.440 8.420 9.020 0.111 0.071 0.103 0.133     44.670 0.00 1 1 7.866 7.966 7.840 7.272 7.693 6.036 5.892 1.5860 7.802 7.880 7.640 6.928 7.542 5.876 5.741 0.8110 331.80 15.98                       132.80   10.606 9.320 1.283 10.436 9.235 1.200
UPLMET_235 2018-09-29 07:45:00 235 46891.0 7.77 7.879 7.856 7.696 7.168 87.500 87.500 5.837 5.759 9.650 9.450 8.420 9.020 0.111 0.071 0.103 0.133     44.740 0.00 1 1 7.849 7.967 7.940 7.368 7.733 5.978 5.876 1.5680 7.680 7.787 7.790 7.040 7.657 5.661 5.648 0.5980 340.10 31.08                       132.00   10.560 9.246 1.320 10.507 9.196 1.313
UPLMET_235 2018-09-29 07:40:00 235 46891.0 7.64 7.761 7.790 7.679 7.115 87.600 87.000 5.728 5.667 9.660 9.450 8.420 9.020 0.111 0.071 0.103 0.133     44.710 0.00 1 1 7.716 7.821 7.873 7.213 7.700 5.809 5.749 1.1580 7.594 7.700 7.730 7.017 7.660 5.605 5.594 0.6110 341.20 24.98                       131.20   10.470 9.176 1.298 10.495 9.137 1.364
UPLMET_235 2018-09-29 07:35:00 235 46891.0 7.57 7.678 7.700 7.606 7.053 87.700 87.200 5.675 5.623 9.670 9.450 8.420 9.020 0.111 0.071 0.103 0.133     44.710 0.00 1 1 7.630 7.760 7.753 7.090 7.660 5.703 5.650 0.6950 7.517 7.605 7.639 7.031 7.570 5.621 5.592 0.1210 95.40 34.02                       130.60   10.420 9.142 1.282 10.443 9.109 1.337
UPLMET_235 2018-09-29 07:30:00 235 46891.0 7.49 7.561 7.571 7.502 6.982 87.900 87.600 5.624 5.586 9.680 9.460 8.420 9.020 0.111 0.071 0.103 0.133     44.750 0.00 1 1 7.517 7.600 7.630 7.092 7.564 5.660 5.630 0.5260 7.477 7.537 7.542 6.933 7.467 5.582 5.543 0.1760 67.13 35.41                       129.90   10.364 9.110 1.254 10.369 9.086 1.286
UPLMET_235 2018-09-29 07:25:00 235 46891.0 7.46 7.526 7.522 7.514 6.902 87.600 87.300 5.544 5.552 9.690 9.460 8.420 9.020 0.111 0.071 0.103 0.133     44.770 0.00 1 1 7.540 7.564 7.579 6.956 7.596 5.598 5.586 1.1760 7.424 7.486 7.484 6.849 7.454 5.458 5.515 0.2810 333.60 22.51                       129.30   10.339 9.059 1.282 10.377 9.064 1.318
UPLMET_235 2018-09-29 07:20:00 235 46891.0 7.71 7.698 7.828 7.708 7.118 85.500 85.300 5.440 5.407 9.700 9.460 8.420 9.020 0.111 0.071 0.103 0.133     44.730 0.00 1 1 7.790 7.772 7.952 7.228 7.750 5.576 5.545 1.4700 7.566 7.561 7.595 6.900 7.626 5.345 5.261 0.4100 16.35 38.46                       128.80   10.519 8.994 1.525 10.516 8.974 1.546
UPLMET_235 2018-09-29 07:15:00 235 46891.0 7.91 7.864 8.040 7.899 7.309 83.600 83.500 5.311 5.278 9.710 9.460 8.420 9.020 0.111 0.071 0.103 0.133     44.800 0.00 1 1 7.984 7.936 8.070 7.393 7.994 5.377 5.316 0.8820 7.797 7.773 7.958 7.215 7.760 5.228 5.218 0.6660 77.48 16.09                       128.50   10.661 8.914 1.748 10.653 8.893 1.758
UPLMET_235 2018-09-29 07:10:00 235 46891.0 7.99 7.985 7.994 7.976 7.439 82.400 82.600 5.177 5.206 9.720 9.470 8.420 9.020 0.111 0.071 0.103 0.133     44.790 0.00 1 1 8.010 8.020 8.050 7.503 8.040 5.256 5.247 0.6860 7.964 7.935 7.935 7.390 7.888 5.133 5.163 0.3360 74.42 0.55                       128.20   10.718 8.831 1.886 10.709 8.849 1.863
UPLMET_235 2018-09-29 07:05:00 235 46891.0 8.06 8.010 7.977 7.894 7.403 82.000 82.700 5.191 5.142 9.730 9.470 8.420 9.020 0.111 0.071 0.103 0.133     44.780 0.00 1 1 8.170 8.030 8.050 7.485 7.967 5.206 5.163 0.5790 7.987 7.994 7.936 7.364 7.858 5.166 5.103 0.2850 73.49 0.93                       128.00   10.771 8.840 1.939 10.650 8.809 1.842
UPLMET_235 2018-09-29 07:00:00 235 46891.0 8.38 8.160 8.160 8.150 7.515 79.950 80.900 5.126 5.064 9.740 9.470 8.420 9.020 0.111 0.071 0.103 0.133     44.690 0.00 1 1 8.590 8.360 8.320 7.734 8.300 5.200 5.130 0.3920 8.160 8.030 8.060 7.381 7.980 5.001 4.927 0.1010 72.26 4.23                       127.90   11.008 8.800 2.207 10.837 8.762 2.070
UPLMET_235 2018-09-29 06:55:00 235 46891.0 8.83 8.540 8.490 8.480 7.863 76.910 78.360 5.005 4.937 9.750 9.470 8.420 9.020 0.111 0.071 0.103 0.133     44.700 0.00 1 1 9.050 8.740 8.670 7.988 8.680 5.036 4.971 0.9350 8.610 8.370 8.330 7.750 8.310 4.971 4.911 0.5010 86.00 13.74                       127.80   11.349 8.726 2.620 11.083 8.684 2.398
UPLMET_235 2018-09-29 06:50:00 235 46891.0 9.36 9.020 8.970 9.060 8.270 74.270 75.610 5.025 4.984 9.760 9.480 8.420 9.020 0.111 0.071 0.103 0.133     44.810 0.00 1 1 9.670 9.340 9.320 8.600 9.410 5.101 5.066 1.3270 9.050 8.750 8.680 7.990 8.720 4.953 4.926 0.8610 63.14 10.81                       127.70   11.762 8.738 3.026 11.526 8.713 2.811
UPLMET_235 2018-09-29 06:45:00 235 46891.0 9.88 9.560 9.580 9.640 8.910 70.300 71.090 4.735 4.669 9.770 9.480 8.420 9.020 0.111 0.071 0.103 0.133     44.850 0.00 1 1 10.020 9.730 9.760 9.100 9.840 4.903 4.903 0.9270 9.680 9.360 9.360 8.630 9.430 4.540 4.520 0.2230 56.87 7.99                       127.60   12.180 8.563 3.618 11.986 8.523 3.465
UPLMET_235 2018-09-29 06:40:00 235 46891.0 10.12 9.910 9.950 9.990 9.320 67.310 68.010 4.341 4.370 9.780 9.480 8.420 9.020 0.111 0.071 0.103 0.133     44.800 0.00 1 1 10.190 9.990 10.060 9.530 10.080 4.609 4.537 0.6860 10.050 9.750 9.780 9.120 9.860 4.117 4.127 0.1520 44.07 5.18                       127.50   12.378 8.329 4.046 12.271 8.346 3.925
UPLMET_235 2018-09-29 06:35:00 235 46891.0 10.27 10.060 10.140 10.170 9.690 64.970 65.240 3.987 3.943 9.790 9.480 8.420 9.020 0.111 0.071 0.103 0.133     44.720 0.00 1 1 10.370 10.140 10.210 9.800 10.260 4.136 4.075 0.5260 10.170 9.990 10.060 9.550 10.080 3.821 3.813 0.2860 64.55 1.10                       127.50   12.503 8.125 4.380 12.419 8.100 4.317
UPLMET_235 2018-09-29 06:30:00 235 46891.0 10.42 10.210 10.290 10.330 9.850 63.940 64.190 3.900 3.872 9.800 9.490 8.420 9.020 0.111 0.071 0.103 0.133     44.770 0.00 1 1 10.510 10.270 10.360 9.910 10.420 3.990 4.053 0.3920 10.350 10.150 10.220 9.810 10.270 3.790 3.779 0.1970 64.02 1.84                       127.40   12.629 8.075 4.554 12.553 8.059 4.495
UPLMET_235 2018-09-29 06:25:00 235 46891.0 10.63 10.380 10.490 10.590 10.030 62.100 62.310 3.676 3.688 9.810 9.490 8.420 9.020 0.111 0.071 0.103 0.133     44.760 0.00 1 1 10.730 10.510 10.640 10.170 10.760 3.878 3.858 0.5430 10.490 10.280 10.370 9.920 10.440 3.356 3.367 0.2160 65.84 1.80                       127.30   12.807 7.949 4.854 12.773 7.955 4.814
UPLMET_235 2018-09-29 06:20:00 235 46891.0 10.88 10.660 10.810 10.960 10.320 59.810 59.470 3.386 3.378 9.820 9.490 8.420 9.020 0.111 0.071 0.103 0.133     44.810 0.00 1 1 11.050 10.800 10.980 10.500 11.200 3.534 3.540 0.6860 10.760 10.520 10.650 10.180 10.760 3.128 3.224 0.2140 64.21 0.53                       127.20   13.022 7.787 5.233 13.091 7.783 5.306
UPLMET_235 2018-09-29 06:15:00 235 46891.0 11.16 10.980 11.230 11.470 10.820 55.110 54.670 2.494 2.668 9.830 9.490 8.420 9.020 0.111 0.071 0.103 0.133     44.740 0.00 1 1 11.270 11.130 11.420 11.120 11.700 2.954 3.421 0.7310 11.040 10.810 11.000 10.520 11.220 2.308 2.304 0.3440 230.10 47.55                       127.10   13.266 7.309 5.955 13.542 7.401 6.139
UPLMET_235 2018-09-29 06:10:00 235 46891.0 11.32 11.270 11.580 11.900 11.440 53.430 51.240 2.212 2.157 9.840 9.500 8.420 9.020 0.111 0.071 0.103 0.133     44.760 0.00 1 1 11.370 11.370 11.690 11.650 12.030 2.333 2.362 0.5880 11.260 11.140 11.430 11.150 11.720 2.122 1.986 0.1290 235.20 0.25                       127.10   13.408 7.164 6.244 13.932 7.136 6.793
UPLMET_235 2018-09-29 06:05:00 235 46891.0 11.43 11.510 11.830 12.160 11.640 52.920 49.490 2.174 1.916 9.850 9.500 8.420 9.020 0.111 0.071 0.103 0.133     44.730 0.00 1 1 11.490 11.650 11.990 11.700 12.280 2.287 1.990 0.0000 11.370 11.370 11.690 11.610 12.040 2.078 1.869 0.0000 0.00 0.00                       127.10   13.506 7.144 6.359 14.173 7.014 7.159
UPLMET_235 2018-09-29 06:00:00 235 46891.0 11.59 11.840 12.160 12.400 11.860 52.570 48.280 2.227 1.783 9.860 9.500 8.420 9.020 0.111 0.071 0.103 0.133     44.790 0.00 1 1 11.670 12.000 12.290 12.020 12.470 2.377 1.875 0.0000 11.490 11.660 12.010 11.710 12.280 2.063 1.618 0.0000 0.00 0.00                       127.10   13.650 7.172 6.474 14.399 6.947 7.447
UPLMET_235 2018-09-29 05:55:00 235 46891.0 11.68 12.040 12.310 12.480 12.160 50.510 46.970 1.752 1.479 9.870 9.500 8.420 9.020 0.111 0.071 0.103 0.133     44.770 0.00 1 1 11.700 12.060 12.320 12.270 12.510 2.033 1.741 0.0000 11.660 12.010 12.290 12.060 12.460 1.612 1.382 0.0000 0.00 0.00                       127.10   13.731 6.932 6.796 14.475 6.797 7.676
UPLMET_235 2018-09-29 05:50:00 235 46891.0 11.62 11.970 12.310 12.560 12.170 51.730 46.880 2.028 1.519 9.880 9.510 8.410 9.020 0.111 0.071 0.103 0.133     44.740 0.00 1 1 11.650 12.020 12.410 12.250 12.640 2.250 1.639 0.0000 11.580 11.950 12.270 12.120 12.490 1.700 1.417 0.0000 0.00 0.00                       127.10   13.677 7.070 6.602 14.551 6.817 7.729
UPLMET_235 2018-09-29 05:45:00 235 46891.0 11.62 12.140 12.500 12.680 12.370 52.110 46.960 2.134 1.659 9.890 9.510 8.410 9.020 0.111 0.071 0.103 0.133     44.770 0.00 1 1 11.650 12.190 12.530 12.500 12.710 2.490 1.834 0.0000 11.570 12.030 12.420 12.140 12.630 1.979 1.504 0.0000 0.00 0.00                       127.10   13.677 7.124 6.550 14.666 6.886 7.779
UPLMET_235 2018-09-29 05:40:00 235 46891.0 11.52 12.030 12.470 12.760 12.340 53.090 47.250 2.303 1.818 9.910 9.510 8.410 9.020 0.111 0.071 0.103 0.133     44.780 0.00 1 1 11.570 12.110 12.490 12.530 12.810 2.625 2.372 0.0000 11.440 11.930 12.450 12.200 12.710 2.032 1.550 0.0000 0.00 0.00                       127.10   13.587 7.211 6.374 14.743 6.965 7.777
UPLMET_235 2018-09-29 05:35:00 235 46891.0 11.44 11.880 12.560 13.020 12.070 54.300 46.750 2.543 1.903 9.920 9.510 8.410 9.020 0.111 0.071 0.103 0.133     44.730 0.00 1 1 11.560 11.990 12.780 12.180 13.230 2.846 2.229 0.0000 11.360 11.830 12.460 11.900 12.830 2.245 1.606 0.0000 0.00 0.00                       127.10   13.515 7.335 6.176 14.996 7.007 7.985
UPLMET_235 2018-09-29 05:30:00 235 46891.0 11.78 12.520 13.230 13.480 12.650 53.780 44.170 2.724 1.529 9.930 9.510 8.410 9.020 0.111 0.071 0.103 0.133     44.790 0.00 1 1 11.920 12.930 13.510 13.390 13.620 3.168 1.949 0.9350 11.580 12.030 12.820 12.020 13.240 1.672 0.891 0.3370 234.80 0.69                       127.20   13.822 7.430 6.389 15.453 6.822 8.628
UPLMET_235 2018-09-29 05:25:00 235 46891.0 11.83 12.710 13.340 13.530 12.890 52.190 43.750 2.346 1.446 9.940 9.520 8.410 9.020 0.111 0.071 0.103 0.133     44.740 0.00 1 1 11.920 12.860 13.530 13.180 13.660 2.758 1.657 0.9090 11.730 12.590 13.250 12.730 13.460 1.912 1.221 0.6310 243.30 4.93                       127.20   13.868 7.233 6.630 15.504 6.781 8.721
UPLMET_235 2018-09-29 05:20:00 235 46891.0 11.53 12.750 13.350 13.390 13.160 52.610 43.610 2.184 1.267 9.950 9.520 8.410 9.020 0.111 0.071 0.103 0.133     44.730 0.00 1 1 11.780 12.960 13.550 13.270 13.640 2.422 1.516 1.3990 11.160 12.330 13.010 12.930 13.080 2.034 1.064 0.9950 239.30 4.20                       127.20   13.596 7.150 6.443 15.363 6.694 8.663
UPLMET_235 2018-09-29 05:15:00 235 46891.0 10.83 11.730 12.450 12.580 12.250 56.960 46.990 2.652 1.568 9.960 9.520 8.410 9.020 0.111 0.071 0.103 0.133     44.740 0.00 1 1 11.100 12.250 12.950 12.850 13.010 2.899 1.979 1.1760 10.740 11.360 12.060 11.830 12.250 2.237 1.177 0.9570 235.60 7.52                       127.20   12.979 7.392 5.586 14.570 6.841 7.724
UPLMET_235 2018-09-29 05:10:00 235 46891.0 11.11 11.510 11.970 12.130 11.650 60.050 53.110 3.653 2.870 9.970 9.520 8.410 9.020 0.111 0.071 0.103 0.133     44.780 0.00 1 1 11.260 11.640 12.020 11.790 12.210 4.041 3.457 1.1760 10.780 11.240 11.930 11.480 12.110 2.948 1.927 0.8940 225.80 1.89                       127.20   13.222 7.936 5.282 14.145 7.508 6.633
UPLMET_235 2018-09-29 05:05:00 235 46891.0 11.22 11.500 11.820 12.060 11.630 58.390 54.920 3.369 3.288 9.980 9.520 8.410 9.020 0.111 0.071 0.103 0.133     44.780 0.00 1 1 11.320 11.630 11.960 11.790 12.120 3.469 3.327 0.7310 11.160 11.400 11.720 11.530 12.040 3.333 3.244 0.4920 224.20 0.05                       127.20   13.319 7.778 5.542 14.080 7.734 6.347
UPLMET_235 2018-09-29 05:00:00 235 46891.0 11.43 11.500 11.790 12.250 11.670 57.640 54.270 3.381 3.291 9.990 9.520 8.410 9.020 0.111 0.071 0.103 0.133     44.800 0.00 1 1 11.550 11.590 11.920 11.800 12.390 3.529 3.345 0.1780 11.320 11.430 11.720 11.550 12.080 3.300 3.248 0.0090 224.00 0.00                       127.20   13.506 7.785 5.721 14.257 7.735 6.520
UPLMET_235 2018-09-29 04:55:00 235 46891.0 11.59 11.730 12.130 12.550 12.000 56.940 53.120 3.360 3.268 10.000 9.530 8.410 9.020 0.111 0.071 0.103 0.133     44.740 0.00 1 1 11.640 11.850 12.300 12.230 12.660 3.393 3.334 0.0000 11.530 11.610 11.930 11.800 12.430 3.301 3.205 0.0000 0.00 0.00                       127.20   13.650 7.773 5.878 14.541 7.723 6.817
UPLMET_235 2018-09-29 04:50:00 235 46891.0 11.62 11.920 12.450 12.780 12.360 56.750 51.610 3.340 3.075 10.010 9.530 8.410 9.020 0.111 0.071 0.103 0.133     44.790 0.00 1 1 11.670 12.010 12.590 12.440 12.870 3.479 3.274 0.0000 11.600 11.860 12.310 12.250 12.690 3.135 2.945 0.0000 0.00 0.00                       127.20   13.677 7.762 5.915 14.762 7.618 7.143
UPLMET_235 2018-09-29 04:45:00 235 46891.0 11.69 12.130 12.670 12.930 12.420 57.380 51.690 3.562 3.238 10.020 9.530 8.410 9.020 0.111 0.071 0.103 0.133     44.800 0.00 1 1 11.720 12.280 12.800 12.740 13.030 4.001 3.553 0.0180 11.670 12.020 12.600 12.250 12.880 3.328 2.958 0.0010 224.30 0.00                       127.20   13.740 7.885 5.856 14.908 7.706 7.202
UPLMET_235 2018-09-29 04:40:00 235 46891.0 11.46 12.000 12.630 12.980 12.390 59.280 51.830 3.802 3.319 10.040 9.530 8.410 9.020 0.111 0.071 0.103 0.133     44.780 0.00 1 1 11.680 12.280 12.790 12.790 13.070 4.093 3.705 0.3300 11.340 11.860 12.550 12.150 12.910 3.586 2.961 0.1070 224.30 0.00                       127.20   13.533 8.020 5.511 14.957 7.751 7.205
UPLMET_235 2018-09-29 04:35:00 235 46891.0 11.41 11.970 12.710 13.120 12.280 60.240 51.910 3.991 3.467 10.050 9.530 8.410 9.020 0.111 0.071 0.103 0.133     44.800 0.00 1 1 11.430 12.010 12.750 12.430 13.190 4.198 3.714 0.6860 11.390 11.900 12.620 12.040 13.070 3.778 3.198 0.3220 224.10 0.15                       127.20   13.488 8.127 5.363 15.094 7.832 7.259
UPLMET_235 2018-09-29 04:30:00 235 46891.0 11.41 12.220 13.020 13.350 12.420 60.350 51.240 4.015 3.500 10.060 9.530 8.410 9.020 0.111 0.071 0.103 0.133     44.780 0.00 1 1 11.470 12.390 13.190 12.980 13.440 4.304 3.755 0.6860 11.340 12.020 12.750 11.820 13.210 3.923 3.196 0.2980 223.00 0.87                       127.30   13.488 8.141 5.348 15.323 7.850 7.471
UPLMET_235 2018-09-29 04:25:00 235 46891.0 11.20 11.890 12.730 13.060 12.530 61.100 51.430 3.989 3.284 10.070 9.540 8.410 9.020 0.111 0.071 0.103 0.133     44.790 0.00 1 1 11.350 12.290 13.090 12.960 13.340 4.302 3.531 0.6860 11.090 11.530 12.510 11.970 12.890 3.808 3.073 0.5280 227.40 4.69                       127.30   13.302 8.126 5.174 15.035 7.731 7.303
UPLMET_235 2018-09-29 04:20:00 235 46891.0 11.21 11.790 12.640 12.950 12.260 61.840 52.710 4.169 3.533 10.080 9.540 8.410 9.020 0.111 0.071 0.103 0.133     44.820 0.00 1 1 11.270 11.890 12.750 12.530 13.030 4.399 3.631 0.8020 11.170 11.640 12.510 11.960 12.820 4.063 3.413 0.4810 231.40 0.36                       127.30   13.310 8.229 5.079 14.928 7.869 7.059
UPLMET_235 2018-09-29 04:15:00 235 46891.0 11.42 12.020 12.600 12.790 12.190 61.650 54.510 4.325 3.858 10.090 9.540 8.410 9.020 0.111 0.071 0.103 0.133     44.820 0.00 1 1 11.510 12.130 12.680 12.420 12.820 4.513 4.020 0.9000 11.300 11.750 12.510 11.980 12.750 4.127 3.728 0.4380 232.60 9.35                       127.30   13.497 8.320 5.176 14.772 8.051 6.720
UPLMET_235 2018-09-29 04:10:00 235 46891.0 11.54 12.240 12.670 12.770 12.390 60.480 54.640 4.163 3.878 10.100 9.540 8.410 9.020 0.111 0.071 0.103 0.133     44.770 0.00 1 1 11.590 12.310 12.700 12.480 12.800 4.295 3.904 0.5880 11.480 12.140 12.620 12.240 12.730 3.992 3.832 0.2950 223.60 0.02                       127.30   13.605 8.226 5.377 14.753 8.063 6.692
UPLMET_235 2018-09-29 04:05:00 235 46891.0 11.55 12.220 12.550 12.640 12.320 59.540 54.730 3.953 3.774 10.110 9.540 8.410 9.020 0.111 0.071 0.103 0.133     44.810 0.00 1 1 11.590 12.260 12.620 12.430 12.730 4.046 3.846 0.6860 11.500 12.180 12.480 12.190 12.570 3.889 3.703 0.3900 223.60 0.02                       127.30   13.614 8.105 5.508 14.627 8.004 6.622
UPLMET_235 2018-09-29 04:00:00 235 46891.0 11.49 12.030 12.310 12.490 12.300 58.980 54.420 3.758 3.554 10.120 9.540 8.410 9.020 0.111 0.071 0.103 0.133     44.810 0.00 1 1 11.560 12.170 12.470 12.320 12.560 3.959 3.697 0.0620 11.380 11.890 12.160 12.250 12.430 3.557 3.406 0.0050 223.60 0.01                       127.30   13.560 7.995 5.562 14.484 7.880 6.602
UPLMET_235 2018-09-29 03:55:00 235 46891.0 11.19 11.700 12.090 12.440 12.140 59.920 54.410 3.701 3.508 10.130 9.540 8.410 9.020 0.111 0.071 0.103 0.133     44.790 0.00 1 1 11.350 11.870 12.150 12.260 12.520 3.895 3.617 0.0000 11.030 11.600 12.070 11.990 12.390 3.532 3.408 0.0000 0.00 0.00                       127.30   13.293 7.963 5.328 14.437 7.855 6.582
UPLMET_235 2018-09-29 03:50:00 235 46891.0 10.99 11.620 12.230 12.670 11.860 61.640 53.740 3.920 3.543 10.140 9.540 8.410 9.020 0.111 0.071 0.103 0.133     44.790 0.00 1 1 11.100 11.780 12.400 12.020 12.820 4.103 3.594 0.0000 10.930 11.530 12.100 11.610 12.530 3.777 3.479 0.0000 0.00 0.00                       127.40   13.117 8.087 5.032 14.656 7.874 6.780
UPLMET_235 2018-09-29 03:45:00 235 46891.0 11.12 11.850 12.570 12.990 12.150 61.220 52.460 3.948 3.500 10.150 9.540 8.410 9.020 0.111 0.071 0.103 0.133     44.740 0.00 1 1 11.180 11.880 12.690 12.300 13.120 4.078 3.600 0.0000 11.070 11.780 12.410 11.970 12.840 3.846 3.428 0.0000 0.00 0.00                       127.40   13.231 8.102 5.131 14.967 7.850 7.115
UPLMET_235 2018-09-29 03:40:00 235 46891.0 11.16 12.070 12.850 13.140 12.520 60.910 51.680 3.903 3.427 10.160 9.550 8.410 9.020 0.111 0.071 0.103 0.133     44.760 0.00 1 1 11.240 12.190 12.900 12.700 13.170 4.024 3.586 0.3470 11.070 11.860 12.700 12.170 13.100 3.714 3.252 0.0450 223.60 0.01                       127.40   13.266 8.077 5.186 15.114 7.810 7.303
UPLMET_235 2018-09-29 03:35:00 235 46891.0 11.07 11.950 12.850 13.210 12.420 60.690 50.880 3.770 3.268 10.170 9.550 8.410 9.020 0.111 0.071 0.103 0.133     44.810 0.00 1 1 11.180 12.110 13.000 12.590 13.310 3.876 3.319 0.4010 11.010 11.870 12.790 12.330 13.090 3.689 3.208 0.0550 223.60 0.00                       127.40   13.187 8.002 5.184 15.183 7.723 7.458
UPLMET_235 2018-09-29 03:30:00 235 46891.0 11.24 12.210 13.100 13.300 12.760 60.090 50.400 3.792 3.217 10.180 9.550 8.410 9.020 0.111 0.071 0.103 0.133     44.810 0.00 1 1 11.300 12.310 13.180 12.910 13.350 3.928 3.256 1.0510 11.100 11.970 12.950 12.400 13.190 3.682 3.187 0.6140 223.60 0.00                       127.40   13.337 8.014 5.323 15.273 7.695 7.575
UPLMET_235 2018-09-29 03:25:00 235 46891.0 11.38 12.140 12.850 13.170 12.500 59.950 51.500 3.892 3.404 10.190 9.550 8.410 9.020 0.111 0.071 0.103 0.133     44.730 0.00 1 1 11.440 12.210 12.940 12.710 13.250 4.009 3.516 1.0160 11.300 12.090 12.790 12.380 13.120 3.774 3.240 0.5410 223.60 0.02                       127.40   13.461 8.071 5.391 15.144 7.797 7.345
UPLMET_235 2018-09-29 03:20:00 235 46891.0 11.59 12.360 13.020 13.300 12.580 59.660 51.400 4.023 3.499 10.200 9.550 8.410 9.020 0.111 0.071 0.103 0.133     44.810 0.00 1 1 11.940 12.630 13.170 12.760 13.370 4.232 3.549 0.6330 11.430 12.160 12.890 12.380 13.230 3.899 3.448 0.5070 223.40 0.17                       127.40   13.650 8.145 5.506 15.273 7.850 7.423
UPLMET_235 2018-09-29 03:15:00 235 46891.0 12.10 12.820 13.300 13.470 12.840 57.740 51.020 4.030 3.546 10.210 9.550 8.410 9.020 0.111 0.071 0.103 0.133     44.820 0.00 1 1 12.170 12.970 13.450 13.050 13.580 4.225 3.640 0.7840 11.970 12.660 13.180 12.710 13.350 3.937 3.472 0.5960 221.90 1.47                       127.50   14.117 8.149 5.966 15.443 7.876 7.564
UPLMET_235 2018-09-29 03:10:00 235 46891.0 11.96 12.930 13.400 13.510 13.120 58.220 51.010 4.016 3.588 10.220 9.550 8.410 9.020 0.111 0.071 0.103 0.133     44.800 0.00 1 1 12.140 13.070 13.500 13.320 13.620 4.097 3.654 1.2740 11.690 12.710 13.250 12.880 13.400 3.938 3.551 0.8780 224.40 4.95                       127.50   13.988 8.141 5.844 15.483 7.899 7.585
UPLMET_235 2018-09-29 03:05:00 235 46891.0 11.44 12.550 13.190 13.370 12.870 60.300 51.700 4.028 3.644 10.230 9.550 8.410 9.020 0.111 0.071 0.103 0.133     44.760 0.00 1 1 11.680 12.690 13.240 12.930 13.420 4.143 3.700 1.1940 11.220 12.300 13.080 12.720 13.300 3.972 3.607 0.9720 233.90 1.91                       127.50   13.515 8.148 5.365 15.343 7.931 7.411
UPLMET_235 2018-09-29 03:00:00 235 46891.0 11.47 12.440 13.080 13.320 12.650 61.280 52.410 4.288 3.789 10.240 9.550 8.410 9.020 0.111 0.071 0.103 0.133     44.790 0.00 1 1 11.620 12.630 13.190 12.830 13.380 4.407 3.854 1.0780 11.250 12.270 13.010 12.520 13.260 4.168 3.701 0.8620 240.50 0.37                       127.50   13.542 8.299 5.243 15.293 8.012 7.278
UPLMET_235 2018-09-29 02:55:00 235 46891.0 11.39 12.460 13.130 13.380 12.890 61.350 52.390 4.230 3.842 10.250 9.550 8.410 9.020 0.111 0.071 0.103 0.133     44.790 0.00 1 1 11.600 12.670 13.210 12.950 13.410 4.309 3.912 0.8110 11.250 12.220 12.960 12.840 13.270 4.145 3.799 0.6960 241.40 0.94                       127.50   13.470 8.265 5.206 15.353 8.042 7.309
UPLMET_235 2018-09-29 02:50:00 235 46891.0 11.34 12.020 12.660 13.060 12.340 62.470 53.960 4.437 3.963 10.260 9.550 8.410 9.020 0.111 0.071 0.103 0.133     44.800 0.00 1 1 11.400 12.190 12.940 12.840 13.260 4.589 4.145 0.7130 11.260 11.830 12.450 11.760 12.960 4.239 3.833 0.4210 243.90 3.53                       127.50   13.426 8.386 5.039 15.035 8.111 6.922
UPLMET_235 2018-09-29 02:45:00 235 46891.0 11.37 12.150 12.810 13.160 12.310 62.870 54.470 4.556 4.193 10.270 9.550 8.400 9.030 0.111 0.071 0.103 0.133     44.760 0.00 1 1 11.410 12.210 12.970 12.350 13.310 4.623 4.267 0.2490 11.330 12.100 12.690 12.280 13.020 4.476 4.087 0.0250 228.80 0.01                       127.60   13.452 8.456 4.995 15.134 8.243 6.890
UPLMET_235 2018-09-29 02:40:00 235 46891.0 11.36 12.420 13.160 13.420 12.730 62.370 53.290 4.437 4.121 10.280 9.550 8.400 9.030 0.111 0.071 0.103 0.133     44.760 0.00 1 1 11.490 12.530 13.230 12.890 13.460 4.564 4.255 1.0250 11.130 12.230 12.990 12.370 13.330 4.328 4.016 0.7380 226.10 2.03                       127.60   13.444 8.386 5.059 15.393 8.202 7.190
UPLMET_235 2018-09-29 02:35:00 235 46891.0 11.04 12.220 13.050 13.340 12.780 63.260 53.080 4.335 3.990 10.290 9.550 8.400 9.030 0.111 0.071 0.103 0.133     44.750 0.00 1 1 11.110 12.290 13.160 12.850 13.410 4.432 4.086 1.1940 10.880 12.030 12.870 12.700 13.240 4.252 3.939 0.9110 231.70 2.46                       127.60   13.161 8.326 4.835 15.313 8.126 7.185
UPLMET_235 2018-09-29 02:30:00 235 46891.0 10.92 11.960 12.860 13.260 12.320 64.190 53.640 4.428 4.064 10.300 9.550 8.400 9.030 0.111 0.071 0.103 0.133     44.740 0.00 1 1 10.970 12.220 13.090 12.670 13.360 4.585 4.131 1.0780 10.850 11.680 12.620 11.840 13.160 4.250 3.974 0.7540 236.20 1.73                       127.60   13.056 8.380 4.676 15.233 8.169 7.062
UPLMET_235 2018-09-29 02:25:00 235 46891.0 11.20 12.300 13.160 13.440 12.650 62.650 52.500 4.349 3.932 10.310 9.550 8.400 9.030 0.111 0.071 0.103 0.133     44.780 0.00 1 1 11.500 12.560 13.310 12.890 13.580 4.405 4.068 0.9800 10.970 12.160 13.060 12.480 13.340 4.291 3.842 0.8070 233.30 1.24                       127.60   13.302 8.334 4.968 15.413 8.093 7.321
UPLMET_235 2018-09-29 02:20:00 235 46891.0 11.57 12.560 13.330 13.600 12.840 60.550 51.550 4.215 3.815 10.320 9.550 8.400 9.030 0.111 0.071 0.103 0.133     44.780 0.00 1 1 11.690 12.640 13.400 12.950 13.630 4.348 3.918 0.8820 11.500 12.520 13.290 12.800 13.560 4.156 3.735 0.6530 227.60 1.17                       127.70   13.632 8.256 5.378 15.574 8.027 7.546
UPLMET_235 2018-09-29 02:15:00 235 46891.0 11.63 12.640 13.210 13.330 13.060 60.280 52.380 4.207 3.794 10.330 9.550 8.400 9.030 0.111 0.071 0.103 0.133     44.770 0.00 1 1 11.770 12.780 13.430 13.290 13.580 4.301 3.857 0.7840 11.450 12.320 12.880 12.680 13.000 4.123 3.723 0.2830 230.80 6.54                       127.70   13.686 8.251 5.436 15.303 8.015 7.287
UPLMET_235 2018-09-29 02:10:00 235 46891.0 11.44 12.270 12.760 12.960 12.460 61.460 54.340 4.302 3.975 10.340 9.550 8.400 9.030 0.111 0.071 0.103 0.133     44.720 0.00 1 1 11.460 12.300 12.860 12.640 12.990 4.365 4.067 0.1250 11.410 12.250 12.720 12.350 12.920 4.188 3.793 0.0110 241.40 0.00                       127.70   13.515 8.307 5.209 14.937 8.118 6.820
UPLMET_235 2018-09-29 02:05:00 235 46891.0 11.58 12.360 12.830 13.080 12.410 60.460 53.920 4.204 3.979 10.350 9.550 8.400 9.030 0.111 0.071 0.103 0.133     44.880 0.00 1 1 11.710 12.500 12.930 12.490 13.210 4.256 4.011 0.2490 11.440 12.270 12.750 12.350 12.980 4.124 3.953 0.0570 241.40 0.00                       127.70   13.641 8.250 5.394 15.055 8.120 6.937
UPLMET_235 2018-09-29 02:00:00 235 46891.0 11.75 12.570 13.060 13.410 12.580 59.290 52.490 4.085 3.897 10.360 9.550 8.400 9.030 0.111 0.071 0.103 0.133     44.730 0.00 1 1 11.790 12.600 13.220 12.730 13.580 4.132 3.977 0.4900 11.720 12.510 12.940 12.500 13.230 4.034 3.730 0.2470 242.00 0.42                       127.70   13.795 8.181 5.616 15.383 8.073 7.308
UPLMET_235 2018-09-29 01:55:00 235 46891.0 11.80 12.690 13.350 13.600 12.940 58.520 50.710 3.945 3.587 10.370 9.540 8.400 9.030 0.111 0.071 0.103 0.133     44.790 0.00 1 1 11.910 12.860 13.450 13.170 13.630 4.043 3.738 1.3720 11.710 12.600 13.230 12.740 13.510 3.735 3.479 0.7630 239.70 3.56                       127.80   13.841 8.101 5.741 15.574 7.899 7.677
UPLMET_235 2018-09-29 01:50:00 235 46891.0 11.60 12.610 13.170 13.350 12.890 58.810 51.400 3.823 3.539 10.370 9.540 8.400 9.030 0.111 0.071 0.103 0.133     44.700 0.00 1 1 11.920 12.850 13.380 13.110 13.510 3.884 3.608 1.4970 11.250 12.250 12.960 12.570 13.220 3.719 3.478 1.1450 225.40 2.17                       127.80   13.659 8.031 5.626 15.323 7.872 7.447
UPLMET_235 2018-09-29 01:45:00 235 46891.0 11.47 12.310 13.020 13.280 12.550 58.970 50.850 3.741 3.322 10.380 9.540 8.400 9.030 0.111 0.071 0.103 0.133     44.730 0.00 1 1 11.790 12.550 13.130 12.660 13.350 3.798 3.512 1.1760 11.250 12.200 12.950 12.470 13.220 3.684 3.224 0.9930 230.20 1.20                       127.80   13.542 7.985 5.556 15.253 7.752 7.497
UPLMET_235 2018-09-29 01:40:00 235 46891.0 11.93 12.710 13.180 13.370 12.760 56.660 50.250 3.601 3.244 10.390 9.540 8.400 9.030 0.111 0.071 0.103 0.133     44.770 0.00 1 1 11.990 12.770 13.210 12.810 13.400 3.663 3.339 1.2740 11.800 12.570 13.140 12.670 13.350 3.562 3.184 1.1510 227.10 2.51                       127.80   13.960 7.907 6.050 15.343 7.710 7.633
UPLMET_235 2018-09-29 01:35:00 235 46891.0 11.74 12.640 13.210 13.410 12.830 57.590 50.430 3.661 3.333 10.400 9.540 8.400 9.030 0.111 0.071 0.103 0.133     44.790 0.00 1 1 11.870 12.730 13.230 12.870 13.450 3.779 3.413 1.4080 11.680 12.590 13.180 12.780 13.380 3.563 3.275 1.2780 227.50 2.73                       127.80   13.786 7.940 5.847 15.383 7.758 7.625
UPLMET_235 2018-09-29 01:30:00 235 46891.0 11.52 12.550 13.180 13.350 12.810 58.830 51.270 3.754 3.513 10.410 9.540 8.400 9.030 0.111 0.071 0.103 0.133     44.770 0.00 1 1 11.740 12.630 13.200 12.860 13.380 3.786 3.618 1.3450 11.150 12.360 13.140 12.760 13.330 3.699 3.428 1.1430 227.70 4.39                       127.90   13.587 7.992 5.594 15.323 7.858 7.467
UPLMET_235 2018-09-29 01:25:00 235 46891.0 10.99 12.030 13.050 13.360 12.690 61.200 51.260 3.820 3.513 10.420 9.540 8.400 9.030 0.111 0.071 0.103 0.133     44.720 0.00 1 1 11.130 12.320 13.130 12.810 13.380 3.874 3.595 1.0870 10.950 11.910 12.990 12.610 13.330 3.764 3.448 0.8880 237.40 1.15                       127.90   13.117 8.030 5.090 15.333 7.858 7.473
UPLMET_235 2018-09-29 01:20:00 235 46891.0 11.02 11.860 12.870 13.360 12.580 61.100 50.990 3.823 3.442 10.430 9.540 8.400 9.030 0.111 0.071 0.103 0.133     44.750 0.00 1 1 11.090 12.020 12.980 12.760 13.410 3.875 3.488 0.7840 10.980 11.600 12.810 12.300 13.330 3.727 3.403 0.5440 238.10 0.02                       127.90   13.144 8.031 5.113 15.333 7.818 7.515
UPLMET_235 2018-09-29 01:15:00 235 46891.0 11.16 11.790 12.920 13.430 12.550 60.770 50.900 3.873 3.476 10.430 9.540 8.400 9.030 0.111 0.071 0.103 0.133     44.660 0.00 1 1 11.390 11.950 13.050 12.900 13.500 3.927 3.505 0.9000 10.980 11.590 12.740 12.180 13.300 3.806 3.440 0.6370 238.10 0.04                       127.90   13.266 8.060 5.204 15.403 7.837 7.563
UPLMET_235 2018-09-29 01:10:00 235 46891.0 11.66 12.240 12.760 13.340 12.090 58.130 51.020 3.711 3.430 10.440 9.530 8.400 9.030 0.111 0.071 0.103 0.133     44.700 0.00 1 1 11.810 12.640 13.200 12.760 13.530 3.900 3.553 0.7840 11.440 11.870 12.500 11.700 13.200 3.570 3.309 0.5200 237.20 0.99                       128.00   13.713 7.968 5.742 15.313 7.812 7.500
UPLMET_235 2018-09-29 01:05:00 235 46891.0 11.77 12.620 13.210 13.580 12.810 56.430 48.950 3.395 3.069 10.450 9.530 8.400 9.030 0.111 0.071 0.103 0.133     44.710 0.00 1 1 11.810 12.760 13.280 13.030 13.650 3.566 3.312 0.8820 11.730 12.500 13.140 12.580 13.540 3.226 2.847 0.4160 241.30 4.33                       128.00   13.813 7.792 6.018 15.554 7.615 7.940
UPLMET_235 2018-09-29 01:00:00 235 46891.0 11.93 12.850 13.420 13.700 13.070 54.690 48.110 3.106 2.935 10.460 9.530 8.400 9.030 0.111 0.071 0.103 0.133     44.720 0.00 1 1 12.080 13.020 13.510 13.320 13.750 3.212 3.021 1.4700 11.690 12.580 13.260 12.670 13.600 2.950 2.842 0.9160 225.80 7.60                       128.00   13.960 7.635 6.325 15.676 7.542 8.134
UPLMET_235 2018-09-29 00:55:00 235 46891.0 11.75 12.510 13.230 13.610 12.700 54.060 46.710 2.770 2.435 10.460 9.530 8.400 9.030 0.111 0.071 0.103 0.133     44.750 0.00 1 1 12.060 12.830 13.470 13.040 13.810 2.899 2.864 1.4520 11.580 12.360 13.120 12.480 13.520 2.545 2.144 1.0410 230.40 9.86                       128.00   13.795 7.455 6.337 15.585 7.279 8.305
UPLMET_235 2018-09-29 00:50:00 235 46891.0 12.43 13.190 13.720 13.940 13.290 50.260 44.460 2.377 2.038 10.470 9.530 8.400 9.030 0.111 0.071 0.103 0.133     44.760 0.00 1 1 12.580 13.330 13.780 13.440 14.000 2.568 2.222 1.2740 12.070 12.860 13.510 12.870 13.810 2.217 1.901 0.9310 233.10 5.89                       128.10   14.427 7.249 7.176 15.923 7.075 8.843
UPLMET_235 2018-09-29 00:45:00 235 46891.0 12.50 13.290 13.770 13.990 13.320 50.430 44.950 2.489 2.242 10.480 9.530 8.400 9.030 0.111 0.071 0.103 0.133     44.710 0.00 1 1 12.600 13.430 13.890 13.450 14.130 2.580 2.330 1.3720 12.380 13.180 13.710 13.250 13.910 2.367 2.175 1.2110 226.20 2.12                       128.10   14.494 7.307 7.184 15.974 7.179 8.794
UPLMET_235 2018-09-29 00:40:00 235 46891.0 12.61 13.500 13.970 14.160 13.550 50.930 45.240 2.726 2.480 10.490 9.520 8.400 9.030 0.111 0.071 0.103 0.133     44.740 0.00 1 1 12.770 13.610 14.010 13.610 14.180 2.893 2.786 1.8530 12.440 13.390 13.900 13.450 14.120 2.560 2.269 1.5800 228.70 2.05                       128.10   14.599 7.431 7.164 16.151 7.302 8.844
UPLMET_235 2018-09-29 00:35:00 235 46891.0 12.42 13.400 13.910 14.100 13.580 52.160 46.790 2.888 2.909 10.490 9.520 8.400 9.030 0.111 0.071 0.103 0.133     44.730 0.00 1 1 12.770 13.660 14.050 13.790 14.190 3.030 3.079 1.6390 12.180 13.090 13.750 13.320 13.990 2.802 2.737 1.3870 216.70 7.13                       128.10   14.418 7.517 6.897 16.089 7.529 8.561
UPLMET_235 2018-09-29 00:30:00 235 46891.0 12.13 13.130 13.730 13.960 13.370 53.200 46.730 2.899 2.764 10.500 9.520 8.400 9.030 0.111 0.071 0.103 0.133     44.740 0.00 1 1 12.300 13.290 13.830 13.620 14.040 3.031 2.964 1.2120 11.930 12.860 13.540 12.970 13.860 2.801 2.630 0.9310 222.50 2.15                       128.20   14.145 7.523 6.620 15.943 7.451 8.493
UPLMET_235 2018-09-29 00:25:00 235 46891.0 12.26 13.220 13.810 14.040 13.320 52.950 46.580 2.952 2.788 10.510 9.520 8.400 9.030 0.111 0.071 0.103 0.133     44.750 0.00 1 1 12.470 13.410 13.940 13.590 14.130 3.088 2.839 1.1400 11.990 12.920 13.580 12.990 13.900 2.839 2.630 0.8290 224.10 2.83                       128.20   14.267 7.552 6.713 16.026 7.464 8.561
UPLMET_235 2018-09-29 00:20:00 235 46891.0 12.45 13.420 13.900 14.140 13.520 52.310 46.010 2.962 2.705 10.510 9.520 8.400 9.030 0.111 0.071 0.103 0.133     44.740 0.00 1 1 12.580 13.530 13.940 13.600 14.170 3.106 2.768 1.3900 12.290 13.270 13.860 13.410 14.110 2.848 2.643 1.1010 221.60 5.11                       128.20   14.446 7.557 6.889 16.130 7.420 8.709
UPLMET_235 2018-09-29 00:15:00 235 46891.0 12.50 13.390 13.920 14.200 13.450 51.810 45.720 2.866 2.667 10.520 9.510 8.400 9.030 0.111 0.071 0.103 0.133     44.740 0.00 1 1 12.710 13.580 14.040 13.550 14.270 3.076 2.818 1.2740 12.260 13.250 13.870 13.330 14.170 2.489 2.451 0.9510 232.30 5.33                       128.20   14.494 7.506 6.984 16.193 7.400 8.790
UPLMET_235 2018-09-29 00:10:00 235 46891.0 12.66 13.640 14.120 14.350 13.720 49.040 44.190 2.244 2.330 10.520 9.510 8.400 9.030 0.111 0.071 0.103 0.133     44.760 0.00 1 1 12.710 13.700 14.180 13.850 14.420 2.498 2.502 1.2740 12.620 13.600 14.080 13.590 14.290 2.007 2.122 0.8960 222.70 0.87                       128.30   14.647 7.180 7.464 16.351 7.225 9.126
UPLMET_235 2018-09-29 00:05:00 235 46891.0 12.79 13.670 14.160 14.380 13.730 47.840 42.490 2.017 1.808 10.530 9.510 8.400 9.030 0.111 0.071 0.103 0.133     44.720 0.00 1 1 12.890 13.730 14.250 13.860 14.450 2.123 1.966 1.3630 12.670 13.590 14.060 13.590 14.280 1.940 1.701 0.9720 223.60 1.58                       128.30   14.772 7.065 7.705 16.383 6.960 9.422
UPLMET_235 2018-09-29 00:00:00 235 46891.0 12.74 13.600 14.130 14.390 13.770 48.380 42.720 2.125 1.894 10.540 9.510 8.400 9.030 0.111 0.071 0.103 0.133     44.740 0.00 1 1 12.830 13.690 14.260 13.940 14.480 2.241 2.075 1.4700 12.670 13.540 14.030 13.590 14.310 2.027 1.665 1.1820 222.90 0.92                       128.30   14.724 7.119 7.600 16.394 7.003 9.390
UPLMET_235 2018-09-28 23:55:00 235 46891.0 12.78 13.650 14.180 14.460 13.710 47.630 41.840 1.942 1.659 10.540 9.500 8.400 9.030 0.111 0.071 0.103 0.133     44.780 0.00 1 1 12.830 13.740 14.300 13.870 14.540 2.088 1.749 1.1760 12.710 13.550 14.070 13.590 14.350 1.865 1.601 1.0350 223.70 0.17                       128.40   14.762 7.027 7.731 16.468 6.886 9.578
UPLMET_235 2018-09-28 23:50:00 235 46891.0 12.32 13.530 14.210 14.380 13.850 48.950 42.040 1.907 1.655 10.550 9.500 8.400 9.030 0.111 0.071 0.103 0.133     44.840 0.00 1 1 12.700 13.770 14.330 14.010 14.530 1.974 2.059 1.6040 11.960 13.160 14.060 13.640 14.250 1.779 1.343 1.2900 223.70 4.00                       128.40   14.323 7.009 7.312 16.383 6.884 9.496
UPLMET_235 2018-09-28 23:45:00 235 46891.0 12.13 13.250 14.060 14.290 13.550 50.700 41.870 2.221 1.516 10.550 9.500 8.400 9.030 0.111 0.071 0.103 0.133     44.770 0.00 1 1 12.280 13.480 14.120 13.630 14.310 2.390 1.622 1.1050 11.950 13.030 14.000 13.430 14.250 1.976 1.342 0.7970 234.10 1.62                       128.40   14.145 7.169 6.974 16.288 6.815 9.468
UPLMET_235 2018-09-28 23:40:00 235 46891.0 12.35 13.430 14.130 14.340 13.730 50.540 42.040 2.381 1.619 10.560 9.500 8.400 9.030 0.111 0.071 0.103 0.133     44.760 0.00 1 1 12.450 13.580 14.200 13.800 14.360 2.538 1.711 1.2740 12.280 13.250 14.060 13.630 14.310 2.190 1.484 0.8910 232.20 2.87                       128.40   14.351 7.251 7.098 16.341 6.866 9.471
UPLMET_235 2018-09-28 23:35:00 235 46891.0 12.59 13.470 14.020 14.320 13.560 50.150 42.890 2.491 1.883 10.560 9.490 8.400 9.030 0.111 0.071 0.103 0.133     44.760 0.00 1 1 12.740 13.660 14.180 13.710 14.440 2.743 2.025 0.9890 12.490 13.360 13.960 13.420 14.260 2.273 1.664 0.4840 230.50 0.38                       128.50   14.579 7.308 7.268 16.320 6.997 9.320
UPLMET_235 2018-09-28 23:30:00 235 46891.0 12.71 13.870 14.450 14.670 13.910 49.730 42.360 2.490 2.024 10.570 9.490 8.400 9.030 0.111 0.071 0.103 0.133     44.770 0.00 1 1 12.830 13.930 14.640 14.120 14.860 2.805 2.086 1.0780 12.490 13.690 14.210 13.580 14.460 2.402 1.942 0.8470 229.50 0.39                       128.50   14.695 7.307 7.387 16.693 7.068 9.622
UPLMET_235 2018-09-28 23:25:00 235 46891.0 12.36 13.830 14.780 15.020 14.340 51.880 41.200 2.754 1.956 10.570 9.490 8.400 9.030 0.111 0.071 0.103 0.133     44.830 0.00 1 1 12.480 13.880 14.850 14.500 15.090 2.861 2.054 1.1400 12.130 13.670 14.650 14.120 14.900 2.571 1.883 1.0250 229.90 0.41                       128.50   14.361 7.446 6.910 17.074 7.034 10.039
UPLMET_235 2018-09-28 23:20:00 235 46891.0 12.02 13.210 14.500 14.790 14.090 55.260 43.250 3.335 2.423 10.570 9.480 8.400 9.030 0.111 0.071 0.103 0.133     44.770 0.00 1 1 12.150 13.620 14.740 14.420 15.010 3.726 2.703 1.1760 11.910 12.990 14.350 13.790 14.660 2.823 2.097 0.8200 232.20 2.37                       128.60   14.043 7.759 6.283 16.823 7.273 9.547
UPLMET_235 2018-09-28 23:15:00 235 46891.0 12.46 13.410 14.270 14.460 13.970 55.120 45.720 3.711 2.904 10.580 9.480 8.400 9.030 0.111 0.071 0.103 0.133     44.740 0.00 1 1 12.570 13.530 14.450 14.160 14.660 3.837 3.255 0.7840 12.180 13.290 14.150 13.770 14.340 3.575 2.687 0.2570 235.40 0.10                       128.60   14.456 7.968 6.488 16.468 7.526 8.939
UPLMET_235 2018-09-28 23:10:00 235 46891.0 12.64 13.500 14.140 14.390 13.790 54.710 46.680 3.769 3.135 10.580 9.480 8.400 9.030 0.111 0.071 0.103 0.133     44.790 0.00 1 1 12.690 13.580 14.170 13.880 14.430 3.899 3.240 0.4450 12.560 13.420 14.120 13.700 14.350 3.683 3.081 0.1940 235.50 0.02                       128.60   14.627 8.001 6.625 16.394 7.650 8.741
UPLMET_235 2018-09-28 23:05:00 235 46891.0 12.58 13.610 14.250 14.520 13.800 54.260 46.080 3.602 3.074 10.590 9.470 8.400 9.030 0.111 0.071 0.103 0.133     44.780 0.00 1 1 12.650 13.780 14.390 13.920 14.650 3.810 3.302 0.6150 12.540 13.540 14.160 13.760 14.420 3.441 2.918 0.2900 235.40 0.11                       128.70   14.570 7.907 6.664 16.532 7.617 8.914
UPLMET_235 2018-09-28 23:00:00 235 46891.0 12.46 13.760 14.450 14.730 14.040 53.070 44.280 3.177 2.705 10.590 9.470 8.400 9.030 0.111 0.071 0.103 0.133     44.830 0.00 1 1 12.610 13.820 14.500 14.120 14.830 3.473 2.978 0.9090 12.300 13.640 14.400 13.990 14.650 3.024 2.484 0.7390 235.00 0.00                       128.70   14.456 7.673 6.784 16.758 7.420 9.337
UPLMET_235 2018-09-28 22:55:00 235 46891.0 12.29 13.390 14.490 14.890 13.970 54.070 42.730 3.276 2.351 10.590 9.470 8.400 9.030 0.111 0.071 0.103 0.133     44.840 0.00 1 1 12.510 13.670 14.580 14.120 14.920 3.534 2.466 1.2740 12.170 13.190 14.450 13.810 14.850 3.023 2.201 1.0020 238.10 2.06                       128.70   14.295 7.727 6.566 16.932 7.235 9.697
UPLMET_235 2018-09-28 22:50:00 235 46891.0 12.73 13.820 14.710 15.020 14.180 51.680 41.340 3.047 2.002 10.590 9.460 8.400 9.030 0.111 0.071 0.103 0.133     44.780 0.00 1 1 13.020 14.050 14.780 14.340 15.070 3.255 2.162 1.3810 12.540 13.690 14.580 13.960 14.940 2.680 1.805 1.1550 239.20 3.66                       128.80   14.714 7.603 7.110 17.074 7.057 10.016
UPLMET_235 2018-09-28 22:45:00 235 46891.0 13.07 14.130 14.760 15.020 14.330 48.670 40.920 2.516 1.855 10.600 9.460 8.400 9.030 0.111 0.071 0.103 0.133     44.820 0.00 1 1 13.100 14.190 14.780 14.390 15.040 2.820 1.947 1.3720 13.040 14.070 14.720 14.220 14.970 2.365 1.820 1.1390 235.60 5.37                       128.80   15.045 7.321 7.723 17.074 6.983 10.087
UPLMET_235 2018-09-28 22:40:00 235 46891.0 13.18 14.190 14.860 15.190 14.370 48.960 40.370 2.701 1.824 10.600 9.450 8.400 9.030 0.111 0.071 0.103 0.133     44.750 0.00 1 1 13.280 14.350 15.000 14.550 15.320 2.964 1.906 0.9800 13.130 14.040 14.720 14.210 15.030 2.472 1.740 0.7560 247.90 0.37                       128.80   15.154 7.418 7.734 17.262 6.968 10.293
UPLMET_235 2018-09-28 22:35:00 235 46891.0 13.53 14.420 15.070 15.340 14.640 48.580 39.990 2.907 1.829 10.600 9.450 8.400 9.030 0.111 0.071 0.103 0.133     44.800 0.00 1 1 13.710 14.610 15.130 14.740 15.380 3.092 1.944 1.4430 13.260 14.300 15.010 14.550 15.320 2.670 1.746 1.0790 241.50 6.69                       128.90   15.504 7.527 7.972 17.429 6.970 10.459
UPLMET_235 2018-09-28 22:30:00 235 46891.0 13.78 14.550 15.060 15.270 14.640 47.140 40.600 2.719 1.972 10.600 9.450 8.400 9.030 0.111 0.071 0.103 0.133     44.750 0.00 1 1 13.880 14.680 15.100 14.740 15.330 2.908 2.092 1.3720 13.700 14.440 15.030 14.570 15.210 2.603 1.839 1.2210 232.80 2.13                       128.90   15.758 7.428 8.330 17.351 7.042 10.306
UPLMET_235 2018-09-28 22:25:00 235 46891.0 13.92 14.660 15.070 15.210 14.660 45.950 40.730 2.488 1.961 10.600 9.440 8.400 9.030 0.111 0.071 0.103 0.133     44.820 0.00 1 1 14.020 14.710 15.090 14.710 15.230 2.708 2.039 1.2120 13.870 14.610 15.050 14.630 15.190 2.344 1.862 1.0720 224.80 0.83                       128.90   15.902 7.306 8.595 17.284 7.036 10.244
UPLMET_235 2018-09-28 22:20:00 235 46891.0 13.88 14.650 15.030 15.160 14.700 45.320 40.090 2.254 1.698 10.600 9.440 8.400 9.030 0.111 0.071 0.103 0.133     44.830 0.00 1 1 14.000 14.730 15.100 14.790 15.220 2.370 1.923 1.2650 13.750 14.540 14.960 14.580 15.080 2.111 1.548 1.0870 225.50 1.97                       129.00   15.861 7.185 8.673 17.228 6.905 10.321
UPLMET_235 2018-09-28 22:15:00 235 46891.0 13.89 14.570 14.950 15.060 14.570 45.690 40.330 2.377 1.686 10.610 9.430 8.400 9.030 0.111 0.071 0.103 0.133     44.710 0.00 1 1 13.960 14.600 15.000 14.670 15.100 2.543 1.816 1.4250 13.760 14.520 14.910 14.490 14.990 2.234 1.575 1.2440 226.30 1.71                       129.00   15.871 7.249 8.619 17.118 6.899 10.214
UPLMET_235 2018-09-28 22:10:00 235 46891.0 13.72 14.500 14.840 14.930 14.510 46.530 41.280 2.476 1.896 10.610 9.430 8.390 9.030 0.111 0.071 0.103 0.133     44.800 0.00 1 1 13.890 14.570 14.910 14.560 14.990 2.562 2.050 1.4790 13.490 14.360 14.710 14.360 14.830 2.317 1.794 1.3960 226.20 1.91                       129.00   15.697 7.300 8.393 16.975 7.004 9.968
UPLMET_235 2018-09-28 22:05:00 235 46891.0 13.46 14.320 14.720 14.890 14.260 48.500 42.330 2.822 2.212 10.610 9.420 8.390 9.030 0.111 0.071 0.103 0.133     44.770 0.00 1 1 13.500 14.410 14.850 14.430 15.020 3.137 2.423 1.3100 13.400 14.270 14.660 14.150 14.810 2.579 2.012 0.9990 232.70 1.94                       129.10   15.433 7.482 7.948 16.932 7.164 9.764
UPLMET_235 2018-09-28 22:00:00 235 46891.0 13.19 14.320 14.880 15.040 14.490 51.480 43.260 3.415 2.653 10.610 9.420 8.400 9.030 0.111 0.071 0.103 0.133     44.760 0.00 1 1 13.470 14.410 14.900 14.540 15.060 3.785 3.006 1.4080 12.850 14.110 14.850 14.420 15.000 2.976 2.312 1.2880 231.20 1.53                       129.10   15.164 7.803 7.357 17.096 7.393 9.700
UPLMET_235 2018-09-28 21:55:00 235 46891.0 12.62 13.850 14.730 14.960 14.330 55.210 45.170 3.885 3.196 10.610 9.420 8.390 9.030 0.111 0.071 0.103 0.133     44.820 0.00 1 1 12.820 14.080 14.830 14.490 15.020 4.011 3.299 1.4790 12.520 13.730 14.640 14.140 14.910 3.719 3.044 1.3610 233.00 0.66                       129.20   14.608 8.067 6.543 17.008 7.683 9.326
UPLMET_235 2018-09-28 21:50:00 235 46891.0 12.46 13.620 14.500 14.760 14.220 56.550 45.920 4.071 3.245 10.600 9.410 8.400 9.030 0.111 0.071 0.103 0.133     44.760 0.00 1 1 12.520 13.760 14.680 14.450 14.940 4.296 3.445 1.6660 12.330 13.340 14.200 14.010 14.560 3.913 3.121 1.4780 235.40 3.12                       129.20   14.456 8.173 6.281 16.790 7.710 9.080
UPLMET_235 2018-09-28 21:45:00 235 46891.0 12.42 13.210 14.040 14.520 13.520 57.850 47.710 4.364 3.564 10.600 9.410 8.390 9.030 0.111 0.071 0.103 0.133     44.820 0.00 1 1 12.730 13.600 14.210 13.960 14.600 4.556 3.786 1.6660 12.320 13.040 13.850 13.160 14.420 4.145 3.332 1.2720 237.70 4.21                       129.20   14.418 8.343 6.077 16.532 7.886 8.645
UPLMET_235 2018-09-28 21:40:00 235 46891.0 12.92 13.660 14.160 14.550 13.670 55.720 48.410 4.296 3.796 10.600 9.400 8.390 9.030 0.111 0.071 0.103 0.133     44.770 0.00 1 1 13.100 13.840 14.280 13.840 14.660 4.365 3.925 1.4880 12.750 13.560 14.060 13.560 14.470 4.190 3.620 0.8500 237.10 4.97                       129.30   14.898 8.303 6.597 16.564 8.016 8.545
UPLMET_235 2018-09-28 21:35:00 235 46891.0 13.23 14.100 14.620 14.860 14.060 54.280 47.120 4.206 3.701 10.600 9.400 8.390 9.030 0.111 0.071 0.103 0.133     44.740 0.00 1 1 13.410 14.260 14.810 14.280 15.020 4.282 3.790 1.4700 13.090 13.860 14.300 13.660 14.660 4.119 3.607 0.8080 230.20 0.39                       129.30   15.203 8.251 6.951 16.899 7.963 8.936
UPLMET_235 2018-09-28 21:30:00 235 46891.0 13.45 14.380 14.940 15.130 14.500 53.140 46.190 4.114 3.669 10.600 9.390 8.390 9.030 0.111 0.071 0.103 0.133     44.730 0.00 1 1 13.500 14.430 15.000 14.650 15.200 4.225 3.734 1.7190 13.340 14.270 14.830 14.300 15.030 3.976 3.566 1.4910 229.00 0.40                       129.40   15.423 8.198 7.227 17.195 7.945 9.253
UPLMET_235 2018-09-28 21:25:00 235 46891.0 13.14 14.210 14.850 15.100 14.450 53.950 45.750 4.040 3.500 10.600 9.390 8.390 9.030 0.111 0.071 0.103 0.133     44.780 0.00 1 1 13.310 14.400 14.990 14.640 15.180 4.154 3.592 1.9960 13.050 14.110 14.750 14.340 15.020 3.943 3.407 1.7450 231.00 1.72                       129.40   15.114 8.155 6.960 17.162 7.850 9.310
UPLMET_235 2018-09-28 21:20:00 235 46891.0 12.97 14.030 14.650 14.930 14.250 55.020 46.080 4.162 3.449 10.590 9.380 8.390 9.030 0.111 0.071 0.103 0.133     44.760 0.00 1 1 13.060 14.140 14.750 14.370 15.020 4.250 3.560 1.9510 12.790 13.880 14.560 14.100 14.860 4.064 3.333 1.7560 227.50 1.46                       129.40   14.947 8.225 6.723 16.975 7.822 9.153
UPLMET_235 2018-09-28 21:15:00 235 46891.0 12.81 13.870 14.610 14.900 14.170 56.390 46.440 4.359 3.530 10.590 9.380 8.390 9.030 0.111 0.071 0.103 0.133     44.780 0.00 1 1 12.910 13.950 14.680 14.280 14.940 4.548 3.683 1.9600 12.740 13.790 14.540 14.060 14.850 4.131 3.429 1.7210 230.70 2.02                       129.50   14.791 8.340 6.450 16.942 7.867 9.074
UPLMET_235 2018-09-28 21:10:00 235 46891.0 13.04 14.010 14.640 14.850 14.200 56.940 48.280 4.718 4.036 10.590 9.370 8.390 9.030 0.111 0.071 0.103 0.133     44.790 0.00 1 1 13.090 14.090 14.660 14.270 14.900 4.978 4.381 1.7190 12.910 13.920 14.590 14.070 14.810 4.564 3.666 1.5570 232.10 2.15                       129.50   15.016 8.552 6.466 16.888 8.153 8.734
UPLMET_235 2018-09-28 21:05:00 235 46891.0 13.04 14.020 14.640 14.870 14.220 58.370 49.780 5.070 4.494 10.580 9.370 8.390 9.030 0.111 0.071 0.103 0.133     44.700 0.00 1 1 13.070 14.080 14.670 14.330 14.910 5.334 4.675 1.6660 12.980 13.950 14.590 14.100 14.820 4.847 4.327 1.4060 233.10 1.67                       129.60   15.016 8.765 6.251 16.910 8.419 8.492
UPLMET_235 2018-09-28 21:00:00 235 46891.0 13.10 13.890 14.390 14.630 14.070 59.230 52.230 5.335 4.957 10.580 9.360 8.390 9.030 0.111 0.071 0.103 0.133     44.740 0.00 1 1 13.150 14.060 14.650 14.410 14.830 5.417 5.127 1.8980 13.020 13.580 14.070 13.600 14.500 5.229 4.668 1.3650 235.30 7.30                       129.60   15.075 8.929 6.146 16.650 8.696 7.954
UPLMET_235 2018-09-28 20:55:00 235 46891.0 13.19 13.780 14.280 14.850 13.720 59.530 52.610 5.496 5.263 10.570 9.360 8.390 9.030 0.111 0.071 0.103 0.133     44.750 0.00 1 1 13.500 14.080 14.600 13.930 15.180 5.579 5.341 1.0780 13.030 13.580 14.060 13.560 14.530 5.407 5.173 0.8000 263.30 5.29                       129.70   15.164 9.029 6.137 16.888 8.884 8.003
UPLMET_235 2018-09-28 20:50:00 235 46891.0 14.00 14.610 15.090 15.480 14.490 56.500 50.120 5.501 5.149 10.570 9.350 8.390 9.030 0.111 0.071 0.103 0.133     44.700 0.00 1 1 14.290 14.910 15.400 14.830 15.700 5.615 5.212 1.1490 13.550 14.110 14.640 13.960 15.210 5.401 5.053 0.7620 231.70 6.48                       129.70   15.985 9.032 6.953 17.586 8.814 8.772
UPLMET_235 2018-09-28 20:45:00 235 46891.0 14.32 15.010 15.530 15.800 15.120 54.960 48.640 5.399 5.012 10.560 9.350 8.390 9.030 0.111 0.071 0.103 0.133     44.770 0.00 1 1 14.410 15.130 15.590 15.270 15.830 5.476 5.133 1.8620 14.250 14.910 15.420 14.850 15.710 5.317 4.875 1.2830 209.20 4.36                       129.70   16.320 8.969 7.350 17.950 8.730 9.219
UPLMET_235 2018-09-28 20:40:00 235 46891.0 14.50 15.080 15.520 15.720 15.060 54.290 49.140 5.396 5.090 10.560 9.340 8.390 9.030 0.111 0.071 0.103 0.133     44.690 0.00 1 1 14.620 15.190 15.590 15.160 15.750 5.478 5.188 1.5770 14.290 14.890 15.430 14.910 15.650 5.339 5.030 1.1510 224.70 12.17                       129.80   16.511 8.967 7.547 17.859 8.778 9.083
UPLMET_235 2018-09-28 20:35:00 235 46891.0 14.65 15.220 15.590 15.750 15.180 53.690 49.210 5.376 5.136 10.550 9.330 8.390 9.030 0.111 0.071 0.103 0.133     44.760 0.00 1 1 14.720 15.290 15.650 15.300 15.790 5.475 5.214 1.6480 14.570 15.150 15.560 15.100 15.720 5.248 5.078 1.3720 219.60 5.49                       129.80   16.671 8.954 7.721 17.893 8.806 9.088
UPLMET_235 2018-09-28 20:30:00 235 46891.0 14.63 15.240 15.590 15.750 15.190 52.770 48.490 5.105 4.931 10.540 9.330 8.390 9.030 0.111 0.071 0.103 0.133     44.710 0.00 1 1 14.700 15.290 15.640 15.320 15.810 5.225 5.044 1.6660 14.540 15.180 15.550 15.110 15.730 4.971 4.747 1.2410 227.20 6.18                       129.90   16.650 8.787 7.864 17.893 8.681 9.217
UPLMET_235 2018-09-28 20:25:00 235 46891.0 14.48 15.130 15.610 15.850 15.130 52.820 47.400 4.981 4.693 10.540 9.320 8.390 9.030 0.111 0.071 0.103 0.133     44.760 0.00 1 1 14.650 15.290 15.720 15.320 15.940 5.126 4.863 1.6750 14.330 14.930 15.460 14.820 15.760 4.846 4.552 1.2310 227.60 9.89                       129.90   16.489 8.711 7.780 18.008 8.537 9.472
UPLMET_235 2018-09-28 20:20:00 235 46891.0 14.85 15.350 15.740 15.960 15.260 50.950 46.660 4.805 4.569 10.530 9.320 8.390 9.030 0.111 0.071 0.103 0.133     44.700 0.00 1 1 15.000 15.500 15.850 15.400 16.080 4.986 4.737 1.9600 14.650 15.220 15.660 15.130 15.880 4.637 4.430 1.2080 227.20 9.71                       130.00   16.888 8.605 8.284 18.135 8.464 9.673
UPLMET_235 2018-09-28 20:15:00 235 46891.0 15.10 15.590 15.980 16.190 15.550 49.530 45.070 4.627 4.285 10.520 9.310 8.390 9.030 0.111 0.071 0.103 0.133     44.740 0.00 1 1 15.190 15.710 16.060 15.730 16.250 4.829 4.544 1.9600 14.950 15.420 15.820 15.280 16.050 4.443 4.064 1.2360 219.50 6.97                       130.00   17.162 8.498 8.662 18.403 8.297 10.109
UPLMET_235 2018-09-28 20:10:00 235 46891.0 14.95 15.590 15.990 16.220 15.660 48.950 43.820 4.322 3.910 10.510 9.310 8.390 9.030 0.111 0.071 0.103 0.133     44.690 0.00 1 1 15.160 15.740 16.070 15.810 16.280 4.593 4.062 1.6300 14.790 15.460 15.910 15.490 16.170 4.039 3.788 1.2010 212.80 5.07                       130.10   16.997 8.318 8.677 18.438 8.081 10.359
UPLMET_235 2018-09-28 20:05:00 235 46891.0 14.76 15.420 15.960 16.250 15.490 48.620 43.150 4.057 3.720 10.500 9.300 8.390 9.030 0.111 0.071 0.103 0.133     44.680 0.00 1 1 14.830 15.510 16.090 15.680 16.390 4.358 3.849 1.4430 14.700 15.330 15.870 15.340 16.160 3.892 3.553 1.0090 225.80 6.37                       130.20   16.790 8.165 8.627 18.473 7.973 10.502
UPLMET_235 2018-09-28 20:00:00 235 46891.0 14.99 15.590 16.080 16.430 15.590 47.010 41.860 3.783 3.446 10.490 9.300 8.390 9.030 0.111 0.071 0.103 0.133     44.690 0.00 1 1 15.150 15.830 16.240 15.870 16.520 4.110 3.900 1.0160 14.840 15.420 15.970 15.370 16.350 3.484 3.240 0.5570 232.00 6.84                       130.20   17.041 8.009 9.030 18.686 7.821 10.864
UPLMET_235 2018-09-28 19:55:00 235 46891.0 15.12 15.850 16.280 16.530 15.860 45.960 40.730 3.586 3.154 10.480 9.290 8.390 9.030 0.111 0.071 0.103 0.133     44.610 0.00 1 1 15.190 15.910 16.350 16.050 16.600 3.788 3.262 1.4340 14.920 15.720 16.210 15.700 16.470 3.417 3.074 0.8550 218.60 4.40                       130.30   17.184 7.898 9.286 18.806 7.661 11.146
UPLMET_235 2018-09-28 19:50:00 235 46891.0 14.61 15.580 16.230 16.540 15.920 48.120 40.540 3.769 3.096 10.470 9.290 8.390 9.030 0.111 0.071 0.103 0.133     44.690 0.00 1 1 14.900 15.750 16.290 16.130 16.590 4.092 3.380 1.3630 14.370 15.330 16.100 15.750 16.490 3.476 2.922 0.6640 221.80 12.98                       130.30   16.628 8.001 8.627 18.818 7.629 11.189
UPLMET_235 2018-09-28 19:45:00 235 46891.0 14.65 15.490 16.240 16.580 15.840 48.210 39.960 3.828 2.930 10.460 9.280 8.390 9.030 0.111 0.071 0.103 0.133     44.630 0.00 1 1 14.830 15.770 16.380 16.430 16.650 4.217 3.292 1.2120 14.350 15.080 16.000 15.250 16.480 3.401 2.560 0.7010 253.70 20.32                       130.40   16.671 8.034 8.634 18.866 7.540 11.327
UPLMET_235 2018-09-28 19:40:00 235 46891.0 14.79 15.570 16.170 16.480 15.850 47.150 39.990 3.647 2.848 10.450 9.270 8.390 9.030 0.111 0.071 0.103 0.133     44.650 0.00 1 1 14.860 15.770 16.360 16.390 16.620 3.978 3.037 1.1760 14.690 15.390 16.010 15.490 16.340 3.316 2.536 0.6670 248.50 13.86                       130.40   16.823 7.932 8.891 18.746 7.496 11.250
UPLMET_235 2018-09-28 19:35:00 235 46891.0 14.92 15.450 16.110 16.500 15.670 46.480 40.000 3.557 2.869 10.440 9.270 8.390 9.030 0.111 0.071 0.103 0.133     44.780 0.00 1 1 15.070 15.590 16.230 15.960 16.590 3.866 3.152 1.1850 14.820 15.350 16.020 15.500 16.420 3.366 2.636 0.6980 267.60 20.33                       130.50   16.964 7.882 9.079 18.770 7.507 11.262
UPLMET_235 2018-09-28 19:30:00 235 46891.0 15.16 15.610 16.270 16.700 15.920 44.840 39.030 3.275 2.702 10.420 9.260 8.390 9.030 0.111 0.071 0.103 0.133     44.680 0.00 1 1 15.270 15.750 16.400 16.010 16.860 3.638 2.817 1.3720 15.070 15.520 16.190 15.660 16.590 3.021 2.586 0.9040 278.10 13.09                       130.60   17.228 7.726 9.503 19.010 7.419 11.590
UPLMET_235 2018-09-28 19:25:00 235 46891.0 15.31 16.000 16.630 17.070 16.280 43.630 37.750 3.020 2.561 10.410 9.260 8.390 9.030 0.111 0.071 0.103 0.133     44.720 0.00 1 1 15.370 16.170 16.780 16.750 17.160 3.315 2.784 1.3360 15.150 15.760 16.400 15.880 16.880 2.734 2.356 0.7430 277.70 18.00                       130.60   17.395 7.588 9.806 19.461 7.344 12.115
UPLMET_235 2018-09-28 19:20:00 235 46891.0 15.20 16.080 16.730 17.180 16.520 43.700 36.520 2.944 2.193 10.400 9.250 8.390 9.030 0.111 0.071 0.103 0.133     44.650 0.00 1 1 15.250 16.230 16.870 17.240 17.280 3.234 2.314 1.0780 15.170 15.950 16.590 16.080 17.090 2.657 1.925 0.6630 289.80 16.25                       130.70   17.273 7.547 9.725 19.597 7.154 12.440
UPLMET_235 2018-09-28 19:15:00 235 46891.0 15.33 16.220 16.850 17.250 16.620 42.710 35.670 2.736 1.925 10.380 9.250 8.390 9.030 0.111 0.071 0.103 0.133     44.650 0.00 1 1 15.430 16.340 16.930 17.080 17.300 3.151 2.106 1.3900 15.240 16.120 16.790 16.370 17.180 2.313 1.696 0.7890 275.20 22.42                       130.70   17.418 7.437 9.979 19.684 7.018 12.663
UPLMET_235 2018-09-28 19:10:00 235 46891.0 15.40 16.240 16.920 17.310 16.610 42.010 34.870 2.565 1.667 10.370 9.240 8.390 9.030 0.111 0.071 0.103 0.133     44.750 0.00 1 1 15.500 16.390 17.010 16.940 17.350 2.800 1.885 1.7640 15.260 16.050 16.840 16.460 17.260 2.269 1.512 0.9070 277.10 24.35                       130.80   17.496 7.347 10.146 19.759 6.890 12.869
UPLMET_235 2018-09-28 19:05:00 235 46891.0 15.41 16.290 17.020 17.420 16.690 41.290 34.370 2.336 1.556 10.360 9.240 8.390 9.030 0.111 0.071 0.103 0.133     44.730 0.00 1 1 15.500 16.370 17.130 17.050 17.470 2.679 1.634 1.3010 15.330 16.230 16.910 16.350 17.320 2.009 1.484 0.8170 276.60 15.75                       130.90   17.507 7.228 10.278 19.897 6.835 13.058
UPLMET_235 2018-09-28 19:00:00 235 46891.0 15.50 16.450 17.150 17.470 16.820 40.570 33.700 2.168 1.332 10.340 9.230 8.390 9.030 0.111 0.071 0.103 0.133     44.720 0.00 1 1 15.610 16.630 17.220 17.120 17.500 2.525 1.542 1.4170 15.370 16.320 17.080 16.510 17.450 1.806 1.207 0.8840 279.50 12.88                       130.90   17.609 7.141 10.465 19.960 6.726 13.233
UPLMET_235 2018-09-28 18:55:00 235 46891.0 15.42 16.460 17.070 17.390 16.720 39.830 32.880 1.835 0.913 10.320 9.230 8.390 9.030 0.111 0.071 0.103 0.133     44.660 0.00 1 1 15.580 16.690 17.220 17.100 17.500 2.150 1.326 1.5950 15.330 16.270 16.950 16.450 17.320 1.427 0.662 0.8710 253.60 19.95                       131.00   17.518 6.973 10.541 19.859 6.526 13.330
UPLMET_235 2018-09-28 18:50:00 235 46891.0 15.49 16.350 17.000 17.380 16.580 39.620 32.390 1.821 0.700 10.310 9.220 8.390 9.030 0.111 0.071 0.103 0.133     44.700 0.00 1 1 15.670 16.510 17.100 16.790 17.410 2.497 0.944 1.2740 15.410 16.200 16.910 16.370 17.340 1.282